MPMG - Transparência

Contra-cheque - Remuneração de todos os servidores ativos - Pré Resolução CNMP 200/2019

Período: 2017 - Abril

Ordem Matrícula Nome Cargo Efetivo Situação Unidade Administrativa Rendimentos Descontos Rendimento Líquido Total Indenizações Outras Remunerações Retroativas/Temporárias Data de Referência
Remuneração Básica Remuneração Eventual ou Temporária Total de Rendimentos Brutos Obrigatórios/Legais Total de Descontos
Remuneração do Cargo Efetivo Outras Verbas Remuneratórias Função de Confiança ou Cargo em Comissão Gratificação Natalina Férias Abono de Permanência Contribuição Previdenciária Imposto de Renda Retenção por Teto Constitucional
1 498900 ABDON MARCIO BARBOSA DA SILVA OFICIAL DO MP ATIVO ABRE CAMPO - COMARCA; ABRE CAMPO-PJ-01PJ 4.245,74 424,57 0,00 0,00 0,00 0,00 4.670,31 513,73 183,37 0,00 697,10 3.973,21 1.418,79 0,00 30/04/2017
2 177800 ADALBERTO MENEZES FARIA SAMORA OFICIAL DO MP ATIVO BELO HORIZONTE - COMARCA; DIRET DE PLANOS PROJETOS E PROGRAMAS INST 11.105,40 3.331,62 0,00 0,00 0,00 0,00 14.437,02 1.588,07 2.559,83 0,00 4.147,90 10.289,12 2.160,48 52,94 30/04/2017
3 306400 ADALBERTO MOREIRA GONCALVES ANALISTA DO MP ATIVO BELO HORIZONTE - COMARCA; BH-24PJ JUIZO REGIONAL DO BARREIRO 12.225,81 2.445,16 0,00 0,00 4.890,32 0,00 19.561,29 1.613,81 4.066,20 0,00 5.680,01 13.881,28 5.578,71 430,35 30/04/2017
4 179300 ADENISE AUXILIADORA SOUZA SAD OFICIAL DO MP ATIVO BARBACENA - COMARCA; BARBACENA-PJ-06PJ 10.755,28 3.226,58 0,00 0,00 0,00 0,00 13.981,86 1.538,00 2.448,43 0,00 3.986,43 9.995,43 884,00 0,00 30/04/2017
5 77700 ADIL EXPEDITO DE OLIVEIRA JUNIOR ASSESSOR ATIVO BELO HORIZONTE - COMARCA; DIRET DE DESENV DE RECURSOS HUMANOS-DDRH 0,00 7.986,91 8.874,34 0,00 0,00 1.854,74 18.715,99 1.854,74 3.767,48 0,00 5.622,22 13.093,77 884,00 0,00 30/04/2017
6 272200 ADILSON BATISTA ORNELAS OFICIAL DO MP ATIVO LAVRAS - COMARCA; LAVRAS-PJ-SECRETARIA 4.383,93 876,79 0,00 0,00 0,00 0,00 5.260,72 578,68 289,36 0,00 868,04 4.392,68 884,00 0,00 30/04/2017
7 380100 ADILSON GONCALVES DE MELO JUNIOR ANALISTA DO MP ATIVO ARAXÁ - COMARCA; ARAXA-PJ-05PJ 8.594,48 859,45 0,00 0,00 0,00 0,00 9.453,93 1.039,93 1.340,22 0,00 2.380,15 7.073,78 1.583,00 0,00 30/04/2017
8 148800 ADILSON JANUARIO OFICIAL DO MP ATIVO BELO HORIZONTE - COMARCA; BH-22PJ PES COM DEF E IDOSOS-SECRETARIA 13.228,78 9.260,15 0,00 0,00 0,00 0,00 22.488,93 2.473,78 4.530,53 0,00 7.004,31 15.484,62 5.381,79 412,30 30/04/2017
9 322601 ADMILSON SILVEIRA ANALISTA DO MP ATIVO SAO JOAO DO PARAISO COMARCA; SAO JOAO DO PARAISO-PJ-UNPJ 6.753,72 0,00 0,00 0,00 0,00 0,00 6.753,72 742,91 783,61 0,00 1.526,52 5.227,20 884,00 0,00 30/04/2017
10 333700 ADRIANA ABRITTA TEIXEIRA OFICIAL DO MP ATIVO BELO HORIZONTE - COMARCA; DIRET DE PESSOAL DO MINISTERIO PUBLICO - DPMP 7.560,72 1.512,14 0,00 0,00 0,00 0,00 9.072,86 998,01 1.351,22 0,00 2.349,23 6.723,63 884,00 0,00 30/04/2017
11 468500 ADRIANA APARECIDA FIRMINO ANALISTA DO MP ATIVO CARATINGA - COMARCA; CARATINGA-PJ-04PJ 8.594,48 859,45 0,00 0,00 0,00 0,00 9.453,93 1.039,93 1.392,35 0,00 2.432,28 7.021,65 2.282,00 0,00 30/04/2017
12 326100 ADRIANA AUGUSTA AMARAL BELO OFICIAL DO MP ATIVO BARBACENA - COMARCA; BARBACENA-PJ-08PJ 7.560,72 1.512,14 0,00 0,00 0,00 0,00 9.072,86 998,01 1.246,95 0,00 2.244,96 6.827,90 884,00 0,00 30/04/2017
13 605700 ADRIANA COSTA LIRA ASSESSOR/OFICIAL ATIVO BELO HORIZONTE - COMARCA; DIRET DE FORMACAO, APERFEIC. E POS-GRADUACAO 0,00 418,42 6.973,61 0,00 0,00 0,00 7.392,03 479,44 1.031,60 0,00 1.511,04 5.880,99 884,00 0,00 30/04/2017
14 541100 ADRIANA CRISTINA DE OLIVEIRA OFICIAL DO MP ATIVO GUAPÉ - COMARCA; GUAPE-PJ-UNPJ 3.735,01 224,10 0,00 0,00 0,00 0,00 3.959,11 435,50 145,30 0,00 580,80 3.378,31 2.282,00 0,00 30/04/2017
15 254800 ADRIANA DAS GRACAS FERNANDES ANALISTA DO MP ATIVO UBERABA - COMARCA; UBERABA-PJ-07PJ 13.034,76 9.124,33 0,00 0,00 0,00 0,00 22.159,09 2.437,50 4.501,94 0,00 6.939,44 15.219,65 884,00 0,00 30/04/2017
16 217400 ADRIANA DE CARVALHO CATAO BRAGA ASSESSOR ATIVO BELO HORIZONTE - COMARCA; EXTINTA - DIRETORIA DE CONTRATOS E CONVÊNIOS 0,00 2.092,08 6.973,61 0,00 0,00 0,00 9.065,69 608,44 1.699,48 0,00 2.307,92 6.757,77 884,00 0,00 30/04/2017
17 434600 ADRIANA FERREIRA DA SILVA ANALISTA DO MP ATIVO BELO HORIZONTE - COMARCA; BH-14PJ DEFESA CONSUMIDOR-GAB 112PJ 9.163,30 916,33 0,00 0,00 0,00 0,00 10.079,63 1.108,76 1.597,63 0,00 2.706,39 7.373,24 884,00 0,00 30/04/2017
18 499800 ADRIANA FERREIRA TIAGO OFICIAL DO MP ATIVO SALINAS - COMARCA; SALINAS-PJ-02PJ 5.396,93 539,69 0,00 0,00 1.978,87 0,00 7.915,49 653,03 1.127,82 0,00 1.780,85 6.134,64 988,96 0,00 30/04/2017
19 543400 ADRIANA GUIMARAES NUNES DE PAULA ANALISTA DO MP ATIVO PATROCÍNIO - COMARCA; PATROCINIO-PJ-01PJ 6.334,59 380,08 0,00 0,00 0,00 0,00 6.714,67 738,61 774,06 0,00 1.512,67 5.202,00 884,00 0,00 30/04/2017
20 471500 ADRIANA HORTA DE CARVALHO RODRIGUES DE SOUSA ANALISTA DO MP ATIVO BELO HORIZONTE - COMARCA; GRUPO ESP PROM PROC JUST DEF PROB ADM PAT PUB 8.594,48 859,45 0,00 0,00 0,00 0,00 9.453,93 1.039,93 1.392,35 0,00 2.432,28 7.021,65 1.583,00 0,00 30/04/2017
21 86400 ADRIANA MOREIRA CALDEIRA BRANT OFICIAL DO MP ATIVO BELO HORIZONTE - COMARCA; EXTINTA-TUTELA DAS FUNDACOES-21 PJ- GABINETE 11.105,40 5.552,70 0,00 0,00 0,00 0,00 16.658,10 1.832,39 3.207,71 0,00 5.040,10 11.618,00 884,00 0,00 30/04/2017
22 480700 ADRIANA MOREIRA DE AVELLAR CEZILIO OFICIAL DO MP ATIVO BELO HORIZONTE - COMARCA; EXTINTA - DIVISAO DE MATERIAL DE CONSUMO 4.598,03 459,80 0,00 0,00 0,00 0,00 5.057,83 556,36 291,39 0,00 847,75 4.210,08 1.583,00 0,00 30/04/2017
23 326000 ADRIANA PEREIRA CARNEIRO RESENDE OFICIAL DO MP ATIVO BELO HORIZONTE - COMARCA; BH-17PJ PATRIMONIO PUBLICO-SECRETARIA 7.200,69 1.440,14 0,00 0,00 0,00 0,00 8.640,83 950,49 1.193,35 0,00 2.143,84 6.496,99 884,00 0,00 30/04/2017
24 502200 ADRIANA PETRUCCI DAVINA OFICIAL DO MP ATIVO PATROCÍNIO - COMARCA; PATROCINIO-PJ-01PJ 5.572,67 557,27 0,00 0,00 0,00 0,00 6.129,94 674,29 630,94 0,00 1.305,23 4.824,71 884,00 0,00 30/04/2017
25 201900 ADRIANA REIS PIMENTA OFICIAL DO MP ATIVO TEÓFILO OTONI - COMARCA; TEOFILO OTONI-PJ-03PJ 10.755,28 3.226,58 0,00 0,00 0,00 0,00 13.981,86 1.538,00 2.552,70 0,00 4.090,70 9.891,16 4.798,92 358,87 30/04/2017
26 278700 ADRIANA RODRIGUES PINTO COELHO AMARAL ANALISTA DO MP ATIVO BELO HORIZONTE - COMARCA; ASSESS TECNICA DA CORREGEDORIA-GERAL DO MP 12.623,91 2.524,78 0,00 0,00 5.049,56 0,00 20.198,25 1.666,36 4.174,77 0,00 5.841,13 14.357,12 1.489,95 55,55 30/04/2017
27 468000 ADRIANA SANTOS DE SANTANA MOREIRA ANALISTA DO MP ATIVO ARAÇUAÍ - COMARCA; ARACUAI-PJ-01PJ 8.594,48 2.578,34 0,00 0,00 0,00 0,00 11.172,82 1.229,01 1.760,91 0,00 2.989,92 8.182,90 1.583,00 0,00 30/04/2017
28 194700 ADRIANA TSUKIDE OFICIAL DO MP ATIVO UBERABA - COMARCA; COORD REG BACIAS PARANAIBA BAIXO RIO GRANDE 10.755,28 3.226,58 0,00 0,00 0,00 0,00 13.981,86 1.538,00 2.500,56 0,00 4.038,56 9.943,30 3.121,10 205,07 30/04/2017
29 206400 ADRIANE MENDES DE SOUZA ANALISTA DO MP ATIVO BELO HORIZONTE - COMARCA; BH-23PJ CIVEL-FISC AC POL PUB II 16.063,25 11.244,28 0,00 0,00 0,00 0,00 27.307,53 3.003,83 5.762,02 0,00 8.765,85 18.541,68 884,00 0,00 30/04/2017
30 465500 ADRIANO CASSIANO MATOS ANALISTA DO MP ATIVO ARAXÁ - COMARCA; ARAXA-PJ-02PJ 8.594,48 859,45 0,00 0,00 0,00 0,00 9.453,93 1.039,93 1.444,49 0,00 2.484,42 6.969,51 884,00 0,00 30/04/2017
31 500500 ADRIANO DE ALMEIDA SILVA OFICIAL DO MP ATIVO UBERABA - COMARCA; UBERABA-PJ-12PJ 5.572,67 557,27 0,00 0,00 0,00 0,00 6.129,94 674,29 630,94 0,00 1.305,23 4.824,71 884,00 0,00 30/04/2017
32 187200 ADRIANO DE FREITAS MARON OFICIAL DO MP ATIVO PONTE NOVA - COMARCA; PONTE NOVA-PJ-03PJ 9.163,30 7.330,64 0,00 0,00 0,00 0,00 16.493,94 1.814,33 3.167,53 0,00 4.981,86 11.512,08 3.523,03 241,91 30/04/2017
33 477900 ADRIANO FERREIRA DE ALMEIDA OFICIAL DO MP ATIVO MONTES CLAROS - COMARCA; MONTES CLAROS-PJ-04PJ 5.572,67 557,27 0,00 0,00 0,00 0,00 6.129,94 674,29 526,67 0,00 1.200,96 4.928,98 6.790,67 449,53 30/04/2017
34 269101 ADRIANO PEREIRA SILVA ANALISTA DO MP ATIVO UBERABA - COMARCA; UBERABA-PJ-02PJ 8.594,48 859,45 0,00 0,00 0,00 0,00 9.453,93 1.039,93 1.288,08 0,00 2.328,01 7.125,92 2.282,00 0,00 30/04/2017
35 414200 ADRIANO RODRIGUES FERNANDES ANALISTA DO MP ATIVO CARANDAÍ - COMARCA; CARANDAI-PJ-UNPJ 8.061,11 806,11 0,00 0,00 0,00 0,00 8.867,22 975,39 1.144,48 0,00 2.119,87 6.747,35 884,00 0,00 30/04/2017
36 536700 ADRIELLE COSTA MARIA OFICIAL DO MP ATIVO BELO HORIZONTE - COMARCA; BH-02PJ FAMILIA-SECRETARIA 3.735,01 224,10 0,00 0,00 0,00 0,00 3.959,11 435,50 173,74 0,00 609,24 3.349,87 884,00 0,00 30/04/2017
37 514300 ADRIENE DAMASCENO BRAGA ANALISTA DO MP ATIVO ALFENAS - COMARCA; ALFENAS-PJ-03PJ 7.806,95 780,70 0,00 0,00 0,00 0,00 8.587,65 944,64 1.232,47 0,00 2.177,11 6.410,54 1.583,00 0,00 30/04/2017
38 254600 ADRIENE DOMINGUES COSTA ANALISTA DO MP ATIVO BELO HORIZONTE - COMARCA; PROC. JUSTICA DIR. DIFUSOS E COLETIVOS-SEC 11.105,40 2.221,08 0,00 0,00 4.442,16 0,00 17.768,64 1.465,91 3.613,89 0,00 5.079,80 12.688,84 0,00 0,00 30/04/2017
39 252001 ADRIENE GOMES BARRETO ANALISTA DO MP ATIVO BELO HORIZONTE - COMARCA; BH-19PJ SAUDE-SECRETARIA 150PJ 10.416,20 4.166,48 0,00 0,00 0,00 0,00 14.582,68 1.604,09 2.699,75 0,00 4.303,84 10.278,84 1.467,31 53,47 30/04/2017
40 645000 AFONSO CELSO GUIMARAES JUNIOR OFICIAL DO MP ATIVO PIRAPORA - COMARCA; PIRAPORA-PJ-01PJ 3.182,15 0,00 0,00 0,00 0,00 0,00 3.182,15 350,04 70,02 0,00 420,06 2.762,09 884,00 0,00 30/04/2017
41 118100 AGENOR ALCIR RODRIGUES DA SILVA OFICIAL DO MP ATIVO SÃO JOÃO NEPOMUCENO - COMARCA; SAO JOAO NEPOMUCENO-PJ-01PJ 13.752,51 11.002,00 0,00 0,00 0,00 0,00 24.754,51 2.723,00 5.189,31 0,00 7.912,31 16.842,20 5.834,90 453,83 30/04/2017
42 302500 AGENOR JOSE DA SILVA JUNIOR ANALISTA DO MP ATIVO JUIZ DE FORA - COMARCA; JUIZ DE FORA-PJ-07PJ 12.225,81 2.445,16 0,00 0,00 0,00 0,00 14.670,97 1.613,81 2.564,95 0,00 4.178,76 10.492,21 1.470,84 53,79 30/04/2017
43 357500 AILSON WAGNER DE ALENCAR SILVA OFICIAL DO MP ATIVO BELO HORIZONTE - COMARCA; OUVIDORIA DO MPMG 7.322,31 2.196,69 0,00 0,00 0,00 0,00 9.519,00 1.047,09 1.304,00 0,00 2.351,09 7.167,91 884,00 0,00 30/04/2017
44 366400 AILTON ALEXSSANDRO ALVES OFICIAL DO MP ATIVO PARÁ DE MINAS - COMARCA; PARA DE MINAS-PJ-05PJ 6.973,61 2.092,08 0,00 0,00 0,00 0,00 9.065,69 997,23 1.349,47 0,00 2.346,70 6.718,99 884,00 0,00 30/04/2017
45 318900 AILTON DE CASTRO RIBEIRO JUNIOR OFICIAL DO MP ATIVO ITAJUBA - COMARCA; ITAJUBA-PJ-01PJ 7.560,72 1.512,14 0,00 0,00 0,00 0,00 9.072,86 998,01 1.142,67 0,00 2.140,68 6.932,18 1.583,00 20.000,00 30/04/2017
46 464400 ALAN MONTEIRO GASPAR ANALISTA DO MP ATIVO SETE LAGOAS - COMARCA; SETE LAGOAS-PJ-03PJ 8.594,48 859,45 0,00 0,00 0,00 0,00 9.453,93 1.039,93 1.444,49 0,00 2.484,42 6.969,51 884,00 0,00 30/04/2017
47 492000 ALANA DE CASTRO FREITAS OFICIAL DO MP ATIVO ITUMIRIM - COMARCA; ITUMIRIM-PJ-UNPJ 5.061,97 303,72 0,00 0,00 0,00 0,00 5.365,69 590,23 443,89 0,00 1.034,12 4.331,57 884,00 0,00 30/04/2017
48 306700 ALANA MARCIA DE OLIVEIRA OFICIAL DO MP ATIVO BELO HORIZONTE - COMARCA; DIRETORIA DE ADMINISTRACAO FINANCEIRA 7.200,69 1.440,14 0,00 0,00 0,00 0,00 8.640,83 950,49 1.245,48 0,00 2.195,97 6.444,86 884,00 0,00 30/04/2017
49 324500 ALANMAR COUTINHO COSTA OFICIAL DO MP ATIVO LEOPOLDINA - COMARCA; LEOPOLDINA-PJ-02PJ 6.973,61 1.394,72 0,00 0,00 0,00 0,00 8.368,33 920,52 767,80 0,00 1.688,32 6.680,01 884,00 0,00 30/04/2017
50 508200 ALBERTO DA SILVA VIEIRA ASSESSOR ATIVO BELO HORIZONTE - COMARCA; ASSESS TECNICA DA CORREGEDORIA-GERAL DO MP 0,00 0,00 9.769,61 0,00 0,00 0,00 9.769,61 608,44 1.840,92 0,00 2.449,36 7.320,25 884,00 0,00 30/04/2017
51 407300 ALBERTO LUIZ SOARES DE OLIVEIRA ANALISTA DO MP ATIVO BELO HORIZONTE - COMARCA; DIRETORIA DE PROJETOS DE EDIFICACOES 9.163,30 916,33 0,00 0,00 3.359,88 0,00 13.439,51 1.108,76 2.521,60 0,00 3.630,36 9.809,15 884,00 0,00 30/04/2017
52 118200 ALBERTO PEREIRA DA COSTA OFICIAL DO MP ATIVO DORES DO INDAIÁ - COMARCA; DORES DO INDAIA-PJ-UNPJ 12.225,81 9.780,64 0,00 0,00 0,00 0,00 22.006,45 2.420,71 4.412,44 0,00 6.833,15 15.173,30 5.285,29 403,45 30/04/2017
53 282400 ALCILENE MARISE DE ARAUJO ANALISTA DO MP ATIVO BELO HORIZONTE - COMARCA; BH-23PJ INF-FISC MED SOC FEC 12.623,91 2.524,78 0,00 0,00 0,00 0,00 15.148,69 1.666,36 2.734,01 0,00 4.400,37 10.748,32 5.731,58 444,36 30/04/2017
54 112600 ALCIONE DA MOTA JARDIM OFICIAL DO MP ATIVO BELO HORIZONTE - COMARCA; CAO-CRIANCAS E ADOLESCENTES 10.087,71 5.043,85 0,00 0,00 0,00 0,00 15.131,56 1.664,47 2.781,95 0,00 4.446,42 10.685,14 884,00 0,00 30/04/2017
55 396400 ALCIONE DE FREITAS E SILVA ANALISTA DO MP ATIVO BELO HORIZONTE - COMARCA; ASSESS JUR DO CONS SUPERIOR DO MINISTERIO PUB 10.416,20 3.124,86 0,00 0,00 0,00 0,00 13.541,06 1.489,52 2.444,81 0,00 3.934,33 9.606,73 884,00 0,00 30/04/2017
56 161600 ALCIONE NERY SOUZA ASSESSOR ATIVO BELO HORIZONTE - COMARCA; ASSESS TECNICO-JUR JUNTO AS PROC. DE JUST 0,00 2.789,44 6.973,61 0,00 0,00 0,00 9.763,05 608,44 1.891,26 0,00 2.499,70 7.263,35 884,00 0,00 30/04/2017
57 376000 ALDA GOMES LANA OFICIAL DO MP ATIVO BELO HORIZONTE - COMARCA; BH-18PJ VIOLENCIA DOMESTICA-SECRETARIA 6.540,78 654,08 0,00 0,00 0,00 0,00 7.194,86 791,43 787,31 0,00 1.578,74 5.616,12 884,00 0,00 30/04/2017
58 148000 ALDA MARTINS SIMOES OFICIAL DO MP ATIVO BELO HORIZONTE - COMARCA; BH-23PJ CIVEL- FISC ENT AB POL 12.623,91 5.049,56 0,00 0,00 0,00 0,00 17.673,47 1.944,08 3.456,22 0,00 5.400,30 12.273,17 1.583,00 0,00 30/04/2017
59 318400 ALDO CREPALDI JUNIOR OFICIAL DO MP ATIVO BELO HORIZONTE - COMARCA; EXTINTA - DIVISAO DE MATERIAL DE CONSUMO 7.200,69 1.440,14 0,00 0,00 0,00 0,00 8.640,83 950,49 1.193,35 0,00 2.143,84 6.496,99 884,00 0,00 30/04/2017
60 604500 ALENIZE APARECIDA RODRIGUES HENRIQUE OFICIAL DO MP ATIVO RIO NOVO - COMARCA; RIO NOVO-PJ-UNPJ 3.735,01 224,10 0,00 0,00 0,00 0,00 3.959,11 435,50 173,74 0,00 609,24 3.349,87 884,00 0,00 30/04/2017
61 197900 ALESSA DE SOUSA E SILVA OFICIAL DO MP ATIVO OLIVEIRA - COMARCA; OLIVEIRA-PJ-02PJ 11.105,40 3.331,62 0,00 0,00 0,00 0,00 14.437,02 1.588,07 2.559,83 0,00 4.147,90 10.289,12 1.587,48 52,94 30/04/2017
62 428500 ALESSANDRA ALVES DINIZ OFICIAL DO MP ATIVO BELO HORIZONTE - COMARCA; CENTRAL DE APOIO TECNICO-SECRETARIA 4.747,79 1.899,12 0,00 0,00 0,00 0,00 6.646,91 731,16 757,47 0,00 1.488,63 5.158,28 884,00 0,00 30/04/2017
63 286801 ALESSANDRA BOTELHO JUNQUEIRA DE MENEZES ANALISTA DO MP ATIVO PASSOS - COMARCA; PASSOS-PJ-05PJ 9.461,59 2.838,48 0,00 0,00 0,00 0,00 12.300,07 1.353,01 1.984,67 0,00 3.337,68 8.962,39 7.202,03 451,00 30/04/2017
64 307000 ALESSANDRA CRISTINA SANTOS MENDES ANALISTA DO MP ATIVO BELO HORIZONTE - COMARCA; BH-18PJ VIOLENCIA DOMESTICA 8.874,34 1.774,87 0,00 0,00 0,00 0,00 10.649,21 1.171,41 1.684,90 0,00 2.856,31 7.792,90 884,00 0,00 30/04/2017
65 264400 ALESSANDRA DE SOUZA SANTOS ANALISTA DO MP ATIVO BELO HORIZONTE - COMARCA; ASSESS TECNICA DA CORREGEDORIA-GERAL DO MP 13.034,76 5.213,90 0,00 0,00 0,00 0,00 18.248,66 2.150,74 3.916,03 0,00 6.066,77 12.181,89 884,00 1.303,48 30/04/2017
66 441500 ALESSANDRA DRUMMOND DE FIGUEIREDO ROSSI ANALISTA DO MP ATIVO BELO HORIZONTE - COMARCA; DIRETORIA DE PROJETOS DE EDIFICACOES 8.061,11 806,11 0,00 0,00 0,00 0,00 8.867,22 975,39 1.300,89 0,00 2.276,28 6.590,94 884,00 0,00 30/04/2017
67 524000 ALESSANDRA LUCIOLI DE BARROS GUERRA ANALISTA DO MP ATIVO BELO HORIZONTE - COMARCA; BH-19PJ SAUDE--SECRETARIA 7.560,72 756,07 0,00 0,00 0,00 0,00 8.316,79 914,85 1.009,76 0,00 1.924,61 6.392,18 5.874,07 457,42 30/04/2017
68 479900 ALESSANDRA MARA ANDRADE DE FARIA OFICIAL DO MP ATIVO UBERABA - COMARCA; UBERABA-PJ-09PJ 5.572,67 557,27 0,00 0,00 0,00 0,00 6.129,94 674,29 630,94 0,00 1.305,23 4.824,71 884,00 0,00 30/04/2017
69 226700 ALESSANDRA MARA VASCONCELOS REZENDE OFICIAL DO MP ATIVO CONSELHEIRO LAFAIETE - COMARCA; CONSELHEIRO LAFAIETE-PJ-07PJ 7.560,72 2.268,22 0,00 0,00 3.276,31 0,00 13.105,25 1.081,18 2.437,26 0,00 3.518,44 9.586,81 884,00 0,00 30/04/2017
70 112100 ALESSANDRA MARCIA FERREIRA OFICIAL DO MP ATIVO BELO HORIZONTE - COMARCA; BELO HORIZONTE- SECRETARIA DAS PROMOTORIAS 8.594,48 4.297,24 0,00 0,00 0,00 0,00 12.891,72 1.418,09 2.233,75 0,00 3.651,84 9.239,88 884,00 0,00 30/04/2017
71 196500 ALESSANDRA MARIA RIBEIRO LUCIANO OFICIAL DO MP ATIVO RIO PARANAÍBA - COMARCA; RIO PARANAIBA-PJ-UNPJ 11.105,40 4.442,16 0,00 0,00 0,00 0,00 15.547,56 1.710,23 2.883,77 0,00 4.594,00 10.953,56 1.583,00 0,00 30/04/2017
72 91400 ALESSANDRA MENDES VASCONCELOS DE SOUZA OFICIAL DO MP ATIVO BELO HORIZONTE - COMARCA; BH-23PJ INF-FISC MED SOC AB 15.451,48 10.816,04 0,00 0,00 0,00 0,00 26.267,52 2.889,43 5.559,61 0,00 8.449,04 17.818,48 884,00 0,00 30/04/2017
73 651700 ALESSANDRA PROFIRIO SOUZA OFICIAL DO MP ATIVO NOVA ERA - COMARCA; NOVA ERA-PJ-UNPJ 3.182,15 0,00 0,00 0,00 0,00 0,00 3.182,15 350,04 55,39 0,00 405,43 2.776,72 884,00 0,00 30/04/2017
74 384900 ALESSANDRA RODRIGUES ANALISTA DO MP ATIVO VISCONDE DO RIO BRANCO - COMARCA; VISCONDE DO RIO BRANCO-PJ-03PJ 10.416,20 1.041,62 0,00 0,00 0,00 0,00 11.457,82 1.260,36 1.778,53 0,00 3.038,89 8.418,93 1.583,00 0,00 30/04/2017
75 390000 ALESSANDRA SPADANO MASSARA VASCONCELOS OFICIAL DO MP ATIVO BETIM - COMARCA; BETIM-PJ-10PJ 6.540,78 654,08 0,00 0,00 0,00 0,00 7.194,86 791,43 891,58 0,00 1.683,01 5.511,85 884,00 0,00 30/04/2017
76 426500 ALESSANDRO CAMPOS DE PAIVA COORDENADOR/ANALISTA ATIVO BELO HORIZONTE - COMARCA; DIRETORIA DE PUBLICIDADE INSTITUCIONAL 9.461,59 3.239,56 0,00 0,00 0,00 0,00 12.701,15 1.144,85 2.308,62 0,00 3.453,47 9.247,68 884,00 0,00 30/04/2017
77 623400 ALESSANDRO DE OLIVEIRA REZENDE ANALISTA DO MP ATIVO BELO HORIZONTE - COMARCA; DIVISAO DE MEMORIA INSTITUCIONAL 6.134,81 0,00 0,00 0,00 0,00 0,00 6.134,81 674,83 632,13 0,00 1.306,96 4.827,85 884,00 0,00 30/04/2017
78 420600 ALESSANDRO SILVA OFICIAL DO MP ATIVO VISCONDE DO RIO BRANCO - COMARCA; VISCONDE DO RIO BRANCO-PJ-02PJ 6.134,81 1.840,44 0,00 0,00 0,00 0,00 7.975,25 877,28 669,02 0,00 1.546,30 6.428,95 884,00 0,00 30/04/2017
79 375301 ALETHEIA PATRICIA ASSIS MORAIS MOREIRA ANALISTA DO MP ATIVO ITABIRA - COMARCA; ITABIRA-PJ-02PJ 6.973,61 418,42 0,00 0,00 0,00 0,00 7.392,03 813,12 887,70 0,00 1.700,82 5.691,21 1.583,00 0,00 30/04/2017
80 382300 ALEX CARVALHO LIMA ANALISTA DO MP ATIVO UBERLÂNDIA - COMARCA; UBERLANDIA-PJ-14PJ 10.416,20 1.041,62 0,00 0,00 0,00 0,00 11.457,82 1.260,36 1.780,34 0,00 3.040,70 8.417,12 884,00 0,00 30/04/2017
81 195201 ALEX DE CASTRO PEREIRA ANALISTA DO MP ATIVO UBERABA - COMARCA; UBERABA-PJ-09PJ 12.623,91 3.787,17 0,00 0,00 0,00 0,00 16.411,08 1.805,22 3.147,25 0,00 4.952,47 11.458,61 3.509,77 240,70 30/04/2017
82 358900 ALEX DE PAULA LANZA ASSESSOR ATIVO BELO HORIZONTE - COMARCA; DIRETORIA DE IMPRENSA 0,00 0,00 6.973,61 0,00 0,00 0,00 6.973,61 608,44 1.124,16 0,00 1.732,60 5.241,01 884,00 0,00 30/04/2017
83 178400 ALEX RODRIGO SALDANHA GUIMARAES OFICIAL DO MP ATIVO BELO HORIZONTE - COMARCA; DIRETORIA DE SISTEMAS DE INFORMACAO 5.226,73 1.568,02 0,00 0,00 2.264,92 0,00 9.059,67 747,42 1.416,51 0,00 2.163,93 6.895,74 884,00 0,00 30/04/2017
84 289200 ALEX SANDRO PEREIRA DE MATOS OFICIAL DO MP ATIVO BELO HORIZONTE - COMARCA; BH-12PJ JUIZO CRIMINAL-SECRETARIA 5.226,73 1.045,35 0,00 0,00 0,00 0,00 6.272,08 689,93 665,73 0,00 1.355,66 4.916,42 884,00 0,00 30/04/2017
85 413500 ALEX VILELA OLIVEIRA ANALISTA DO MP ATIVO GOVERNADOR VALADARES - COMARCA; COORD REG PJ DEF EDU DIR CRIANCA ADOL RIODOCE 9.461,59 946,16 0,00 0,00 0,00 0,00 10.407,75 1.144,85 1.677,94 0,00 2.822,79 7.584,96 884,00 0,00 30/04/2017
86 264300 ALEXANDRA FATIMA SARAIVA SOARES ANALISTA DO MP ATIVO BELO HORIZONTE - COMARCA; CENTRAL DE APOIO TECN-SETOR DE MEIO AMBIENTE 13.034,76 2.606,95 0,00 0,00 0,00 0,00 15.641,71 1.720,59 2.958,95 0,00 4.679,54 10.962,17 884,00 0,00 30/04/2017
87 488000 ALEXANDRA LARA PAIS DE CARVALHO ANALISTA DO MP ATIVO GUANHÃES - COMARCA; GUANHAES-PJ-SECRETARIA 7.200,69 720,07 0,00 0,00 0,00 0,00 7.920,76 871,28 912,84 0,00 1.784,12 6.136,64 2.282,00 0,00 30/04/2017
88 256300 ALEXANDRA SANTOS GOMES OFICIAL DO MP ATIVO BELO HORIZONTE - COMARCA; EXTINTA - DIVISÃO DE COMPRAS 7.322,31 1.464,46 0,00 0,00 0,00 0,00 8.786,77 966,54 1.281,20 0,00 2.247,74 6.539,03 884,00 0,00 30/04/2017
89 403300 ALEXANDRE AUGUSTO RODRIGUES ANALISTA DO MP ATIVO ÁGUAS FORMOSAS - COMARCA; AGUAS FORMOSAS-PJ-UNPJ 8.594,48 859,45 0,00 0,00 0,00 0,00 9.453,93 1.039,93 1.444,49 0,00 2.484,42 6.969,51 884,00 0,00 30/04/2017
90 640900 ALEXANDRE BARBOSA MASCARENHAS ANALISTA DO MP ATIVO BETIM - COMARCA; BETIM-PJ-01PJ 5.061,97 0,00 0,00 0,00 0,00 0,00 5.061,97 556,82 249,56 0,00 806,38 4.255,59 1.583,00 0,00 30/04/2017
91 311700 ALEXANDRE BARCELOS RESENDE OFICIAL DO MP ATIVO BELO HORIZONTE - COMARCA; BH-07PJ 03 TRIBUNAL DO JURI-GAB 109PJ 5.754,07 575,41 0,00 0,00 0,00 0,00 6.329,48 696,24 679,78 0,00 1.376,02 4.953,46 884,00 0,00 30/04/2017
92 285600 ALEXANDRE CAMPOS DE OLIVEIRA OFICIAL DO MP ATIVO UBERABA - COMARCA; COORD REG BACIAS PARANAIBA BAIXO RIO GRANDE 7.806,95 1.561,39 0,00 0,00 0,00 0,00 9.368,34 1.030,52 1.267,13 0,00 2.297,65 7.070,69 1.583,00 0,00 30/04/2017
93 509200 ALEXANDRE CAPUANO DE REZENDE ANALISTA DO MP ATIVO BELO HORIZONTE - COMARCA; GABINETE DE PROCURADOR DE JUSTIÇA - SALA 715 7.806,95 780,70 0,00 0,00 0,00 0,00 8.587,65 944,64 1.180,33 0,00 2.124,97 6.462,68 884,00 0,00 30/04/2017
94 229400 ALEXANDRE CARLOS BOTREL DIRETOR/OFICIAL ATIVO BELO HORIZONTE - COMARCA; SUPERINTENDENCIA DOS ORGAOS COLEGIADOS 0,00 4.458,91 14.863,02 0,00 0,00 0,00 19.321,93 1.353,01 4.072,09 0,00 5.425,10 13.896,83 5.521,26 425,08 30/04/2017
95 411900 ALEXANDRE CARVALHO SANTOS RIBEIRO ANALISTA DO MP ATIVO OLIVEIRA - COMARCA; OLIVEIRA-PJ-02PJ 9.461,59 946,16 0,00 0,00 0,00 0,00 10.407,75 1.144,85 1.677,94 0,00 2.822,79 7.584,96 1.583,00 0,00 30/04/2017
96 641600 ALEXANDRE DA SILVA ASSUNCAO OFICIAL DO MP ATIVO BELO HORIZONTE - COMARCA; SERVICO MEDICO-DEPTO PERIC MEDICA SAUDE OCUP 3.285,74 0,00 0,00 0,00 0,00 0,00 3.285,74 361,43 83,85 0,00 445,28 2.840,46 884,00 0,00 30/04/2017
97 201200 ALEXANDRE DE ALENCAR CORDEIRO OFICIAL DO MP ATIVO ÁGUAS FORMOSAS - COMARCA; AGUAS FORMOSAS-PJ-UNPJ 5.226,73 2.090,69 0,00 0,00 0,00 0,00 7.317,42 804,92 921,58 0,00 1.726,50 5.590,92 884,00 0,00 30/04/2017
98 288200 ALEXANDRE DE VASCONCELOS COSTA KER ANALISTA DO MP ATIVO BELO HORIZONTE - COMARCA; BH-03PJ EMPRESARIAL-SECRETARIA 12.225,81 2.445,16 0,00 0,00 0,00 0,00 14.670,97 1.696,80 2.853,89 0,00 4.550,69 10.120,28 884,00 754,50 30/04/2017
99 445000 ALEXANDRE DIOGENES OLIVEIRA ANALISTA DO MP ATIVO SALINAS - COMARCA; SALINAS-PJ-02PJ 8.594,48 859,45 0,00 0,00 0,00 0,00 9.453,93 1.039,93 1.444,49 0,00 2.484,42 6.969,51 884,00 0,00 30/04/2017
100 463400 ALEXANDRE LEAL WINKELSTROTER ANALISTA DO MP ATIVO TEÓFILO OTONI - COMARCA; TEOFILO OTONI-PJ-04PJ 7.806,95 780,70 0,00 0,00 0,00 0,00 8.587,65 944,64 1.180,33 0,00 2.124,97 6.462,68 884,00 0,00 30/04/2017
101 615700 ALEXANDRE LUIZ DE CASTRO MACIEL ANALISTA DO MP ATIVO IBIRITÉ - COMARCA; IBIRITE-PJ-02PJ 6.134,81 0,00 0,00 0,00 0,00 0,00 6.134,81 674,83 632,13 0,00 1.306,96 4.827,85 884,00 0,00 30/04/2017
102 356900 ALEXANDRE MOISES MENDONCA E ARAUJO OFICIAL DO MP ATIVO UBERABA - COMARCA; UBERABA-PJ-13PJ 5.396,93 1.079,39 0,00 0,00 0,00 0,00 6.476,32 712,40 715,72 0,00 1.428,12 5.048,20 884,00 0,00 30/04/2017
103 633300 ALEXANDRE NONATO MARTINS OFICIAL DO MP ATIVO IGARAPÉ - COMARCA; IGARAPE-PJ-02PJ 3.285,74 0,00 0,00 0,00 0,00 0,00 3.285,74 361,43 62,30 0,00 423,73 2.862,01 884,00 0,00 30/04/2017
104 469900 ALEXANDRE PEREIRA GUEDES ANALISTA DO MP ATIVO CATAGUASES - COMARCA; CATAGUASES-PJ-03PJ 8.594,48 859,45 0,00 0,00 3.151,31 0,00 12.605,24 1.039,93 2.311,10 0,00 3.351,03 9.254,21 884,00 0,00 30/04/2017
105 208700 ALEXANDRE RESENDE FRAGA ANALISTA DO MP ATIVO BELO HORIZONTE - COMARCA; BH-19PJ SAUDE 16.063,25 4.818,98 0,00 0,00 0,00 0,00 20.882,23 2.297,05 4.085,15 0,00 6.382,20 14.500,03 1.583,00 0,00 30/04/2017
106 216401 ALEXANDRE RIBEIRO DE LIMA MAIORINO ANALISTA DO MP ATIVO UBERABA - COMARCA; UBERABA-PJ-03PJ 12.225,81 3.667,74 0,00 0,00 5.297,85 0,00 21.191,40 1.748,29 4.425,36 0,00 6.173,65 15.017,75 1.519,74 58,28 30/04/2017
107 475100 ALEXANDRE TEOTONIO COSTA ANALISTA DO MP ATIVO ARAGUARI - COMARCA; ARAGUARI-PJ-01PJ 8.594,48 859,45 0,00 0,00 0,00 0,00 9.453,93 1.039,93 1.340,22 0,00 2.380,15 7.073,78 1.583,00 0,00 30/04/2017
108 339000 ALEXANDRE VITOR CARDOSO OFICIAL DO MP ATIVO BELO HORIZONTE - COMARCA; EXTINTA - PROTOCOLO DA PGJ 5.226,73 1.045,35 0,00 0,00 0,00 0,00 6.272,08 689,93 509,32 0,00 1.199,25 5.072,83 884,00 0,00 30/04/2017
109 623100 ALEXSANDER BATISTA AGUIAR ANALISTA DO MP ATIVO BELO HORIZONTE - COMARCA; DIRETORIA DE SUPORTE E MANUTENCAO 6.134,81 0,00 0,00 0,00 0,00 0,00 6.134,81 674,83 527,86 0,00 1.202,69 4.932,12 884,00 0,00 30/04/2017
110 513300 ALFSON MIRANDA BRAGA ANALISTA DO MP ATIVO BELO HORIZONTE - COMARCA; BH-12PJ JUIZO CRIMINAL-GAB 092PJ 7.806,95 780,70 0,00 0,00 0,00 0,00 8.587,65 944,64 1.232,47 0,00 2.177,11 6.410,54 884,00 0,00 30/04/2017
111 618400 ALICE MAGALHAES MACEDO DE CARVALHO ANALISTA DO MP ATIVO AÇUCENA - COMARCA; ACUCENA-PJ-UNPJ 6.134,81 0,00 0,00 0,00 0,00 0,00 6.134,81 674,83 632,13 0,00 1.306,96 4.827,85 884,00 0,00 30/04/2017
112 471000 ALICE TITONELI MOREIRA ANALISTA DO MP ATIVO MIRADOURO - COMARCA; MIRADOURO-PJ-UNPJ 8.594,48 859,45 0,00 0,00 0,00 0,00 9.453,93 1.039,93 1.392,35 0,00 2.432,28 7.021,65 1.583,00 0,00 30/04/2017
113 622400 ALINE BALBINO PORTUGAL LOPES ANALISTA DO MP ATIVO TRÊS PONTAS - COMARCA; TRES PONTAS-PJ-03PJ 6.134,81 0,00 0,00 0,00 0,00 0,00 6.134,81 674,83 632,13 0,00 1.306,96 4.827,85 884,00 0,00 30/04/2017
114 373000 ALINE BOTELHO RESENDE OFICIAL DO MP ATIVO PASSA QUATRO - COMARCA; PASSA QUATRO-PJ-SECRETARIA 6.334,59 633,46 0,00 0,00 0,00 0,00 6.968,05 766,49 836,07 0,00 1.602,56 5.365,49 884,00 0,00 30/04/2017
115 407700 ALINE CRISTINA RODRIGUES PEREIRA ANALISTA DO MP ATIVO BELO HORIZONTE - COMARCA; DIRETORIA DE PROJETOS DE EDIFICACOES 8.594,48 859,45 0,00 0,00 3.151,31 0,00 12.605,24 1.039,93 2.311,10 0,00 3.351,03 9.254,21 1.583,00 0,00 30/04/2017
116 193100 ALINE CRISTINA SENA OLIVEIRA OFICIAL DO MP ATIVO UBERLÂNDIA - COMARCA; UBERLANDIA-PJ-03PJ 10.755,28 3.226,58 0,00 0,00 0,00 0,00 13.981,86 1.538,00 2.839,79 0,00 4.377,79 9.604,07 1.642,89 21.139,08 30/04/2017
117 554200 ALINE CRISTINA SILVA SOUZA OFICIAL DO MP ATIVO TIROS - COMARCA; TIROS-PJ-UNPJ 4.111,87 246,71 0,00 0,00 0,00 0,00 4.358,58 479,44 236,68 0,00 716,12 3.642,46 884,00 0,00 30/04/2017
118 505500 ALINE DA CUNHA MARREIROS OLIVEIRA ANALISTA DO MP ATIVO CARANGOLA - COMARCA; CARANGOLA-PJ-03PJ 7.806,95 780,70 0,00 0,00 0,00 0,00 8.587,65 944,64 1.180,33 0,00 2.124,97 6.462,68 884,00 0,00 30/04/2017
119 433500 ALINE DE MELO QUEIROZ OFICIAL DO MP ATIVO BELO HORIZONTE - COMARCA; ASSESSORIA TECNICA DO PROCON-MG 6.334,59 633,46 0,00 0,00 0,00 0,00 6.968,05 766,49 836,07 0,00 1.602,56 5.365,49 884,00 0,00 30/04/2017
120 542700 ALINE DE SOUSA ALBINO ANALISTA DO MP ATIVO CARMO DO PARANAÍBA - COMARCA; CARMO DO PARANAIBA-PJ-01PJ 6.334,59 380,08 0,00 0,00 0,00 0,00 6.714,67 738,61 774,06 0,00 1.512,67 5.202,00 884,00 0,00 30/04/2017
121 330000 ALINE DIORIO MAYRINK OFICIAL DO MP ATIVO BELO HORIZONTE - COMARCA; ASSESS EXECUTIVA DO CONSELHO SUPERIOR DO MP 5.572,67 557,27 0,00 0,00 0,00 0,00 6.129,94 674,29 630,94 0,00 1.305,23 4.824,71 884,00 0,00 30/04/2017
122 499000 ALINE FERREIRA LOPES ANALISTA DO MP ATIVO TEÓFILO OTONI - COMARCA; COORD. DE DEF. DO PAT. PUBLICO-JEQUIT./MUCURI 7.806,95 780,70 0,00 0,00 0,00 0,00 8.587,65 944,64 1.232,47 0,00 2.177,11 6.410,54 1.583,00 0,00 30/04/2017
123 405300 ALINE LAIA CARDOZO ANALISTA DO MP ATIVO BELO HORIZONTE - COMARCA; EXTINTA - DIRETORIA SERVIÇOS GERAIS E TRANS 10.416,20 1.041,62 0,00 0,00 0,00 0,00 11.457,82 1.260,36 1.934,94 0,00 3.195,30 8.262,52 884,00 0,00 30/04/2017
124 278200 ALINE MARCIA FARIA BARBOSA OFICIAL DO MP ATIVO BARBACENA - COMARCA; BARBACENA-PJ-SECRETARIA 5.396,93 1.079,39 0,00 0,00 0,00 0,00 6.476,32 712,40 559,31 0,00 1.271,71 5.204,61 884,00 0,00 30/04/2017
125 389000 ALINE NERI NOBRE ANALISTA DO MP ATIVO MONTES CLAROS - COMARCA; COORD REG PJ DEF EDUC DIR CRIANCA ADOL NORTE 10.416,20 3.124,86 0,00 0,00 0,00 0,00 13.541,06 1.489,52 2.444,81 0,00 3.934,33 9.606,73 4.675,50 347,55 30/04/2017
126 294600 ALINE PATRICIA SILVA VIEIRA OFICIAL DO MP ATIVO UBERLÂNDIA - COMARCA; UBERLANDIA-PJ-03PJ 7.806,95 1.561,39 0,00 0,00 0,00 0,00 9.368,34 1.030,52 1.720,63 0,00 2.751,15 6.617,19 5.028,40 18.251,11 30/04/2017
127 420000 ALINE RODRIGUES CAMOROPIN ANALISTA DO MP ATIVO SABARÁ - COMARCA; SABARA-PJ-02PJ 9.461,59 946,16 0,00 0,00 0,00 0,00 10.407,75 1.144,85 1.677,94 0,00 2.822,79 7.584,96 884,00 0,00 30/04/2017
128 408300 ALINE SILVA ARAUJO DE PAULA ANALISTA DO MP ATIVO SÃO SEBASTIÃO DO PARAÍSO - COMARCA; SAO SEBASTIAO DO PARAISO-PJ-02PJ 9.461,59 946,16 0,00 0,00 0,00 0,00 10.407,75 1.144,85 1.677,94 0,00 2.822,79 7.584,96 6.578,72 457,94 30/04/2017
129 425400 ALINE TRINDADE DE FREITAS CAMPOS OFICIAL DO MP ATIVO BELO HORIZONTE - COMARCA; BH-14PJ DEFESA CONSUMIDOR-SECRETARIA 6.334,59 633,46 0,00 0,00 0,00 0,00 6.968,05 766,49 836,07 0,00 1.602,56 5.365,49 884,00 0,00 30/04/2017
130 517200 ALISSOM PEREIRA DA SILVA ANALISTA DO MP ATIVO BORDA DA MATA - COMARCA; BORDA DA MATA-PJ-UNPJ 7.806,95 780,70 0,00 0,00 0,00 0,00 8.587,65 944,64 1.232,47 0,00 2.177,11 6.410,54 884,00 0,00 30/04/2017
131 442400 ALISSON LABRE ANALISTA DO MP ATIVO VARGINHA - COMARCA; VARGINHA-PJ-02PJ 8.594,48 859,45 0,00 0,00 0,00 0,00 9.453,93 1.039,93 1.444,49 0,00 2.484,42 6.969,51 2.282,00 0,00 30/04/2017
132 643800 ALLAN PAUL FONSECA DE CASTRO OFICIAL DO MP ATIVO CONTAGEM - COMARCA; CONTAGEM-PJ-06PJ 3.182,15 0,00 0,00 0,00 0,00 0,00 3.182,15 350,04 70,02 0,00 420,06 2.762,09 1.583,00 0,00 30/04/2017
133 612900 ALLAN VINICIUS VIEIRA ARAUJO OFICIAL DO MP ATIVO BELO HORIZONTE - COMARCA; BH-09PJ AUDITORIA MILITAR-SECRETARIA 3.982,20 238,93 0,00 0,00 0,00 0,00 4.221,13 490,61 274,92 0,00 765,53 3.455,60 884,00 318,57 30/04/2017
134 349000 ALLEC RODRIGUES VIEIRA ASSESSOR/OFICIAL ATIVO BELO HORIZONTE - COMARCA; COORD DE INCLUSAO E MOBILIZACAO SOCIAIS 0,00 1.774,87 8.874,34 0,00 0,00 0,00 10.649,21 1.171,41 1.737,04 0,00 2.908,45 7.740,76 884,00 0,00 30/04/2017
135 297300 ALLYSON SALIBA MONTEIRO LAIZO ANALISTA DO MP ATIVO CONSELHEIRO LAFAIETE - COMARCA; CONSELHEIRO LAFAIETE-PJ-03PJ 13.228,78 2.645,76 0,00 0,00 0,00 0,00 15.874,54 1.746,20 3.015,93 0,00 4.762,13 11.112,41 1.583,00 0,00 30/04/2017
136 303700 ALMIR LOPES LOURES ANALISTA DO MP ATIVO BELO HORIZONTE - COMARCA; CENTRAL DE APOIO TECN-SETOR DE MEIO AMBIENTE 13.228,78 2.645,76 0,00 0,00 0,00 0,00 15.874,54 1.746,20 2.963,80 0,00 4.710,00 11.164,54 1.518,98 58,21 30/04/2017
137 515900 ALTAIR NEVES JUNIOR OFICIAL DO MP ATIVO BELO HORIZONTE - COMARCA; BH-03PJ EMPRESARIAL-SECRETARIA 5.396,93 539,69 0,00 0,00 0,00 0,00 5.936,62 653,03 583,63 0,00 1.236,66 4.699,96 884,00 0,00 30/04/2017
138 233300 ALVARINDO BATISTA COORDENADOR/ANALISTA ATIVO BELO HORIZONTE - COMARCA; DIVISAO DE MULTIMIDIA 16.063,25 6.836,54 0,00 0,00 0,00 0,00 22.899,79 2.297,05 4.744,26 0,00 7.041,31 15.858,48 2.142,20 0,00 30/04/2017
139 274100 ALYSSON CARVALHO VIDAL DE LACERDA OFICIAL DO MP ATIVO MANHUAÇU - COMARCA; MANHUACU-PJ-01PJ 8.061,11 1.612,22 0,00 0,00 0,00 0,00 9.673,33 1.064,07 1.498,19 0,00 2.562,26 7.111,07 884,00 0,00 30/04/2017
140 621000 AMANDA BASTOS ALVES ANALISTA DO MP ATIVO BELO HORIZONTE - COMARCA; ASSESS TECNICO-JUR JUNTO AS PROC. DE JUST 6.134,81 0,00 0,00 0,00 0,00 0,00 6.134,81 674,83 632,13 0,00 1.306,96 4.827,85 884,00 0,00 30/04/2017
141 521700 AMANDA CRISTINA AGUIAR MACHADO OFICIAL DO MP ATIVO CONGONHAS - COMARCA; CONGONHAS-PJ-01PJ 4.111,87 411,19 0,00 0,00 0,00 0,00 4.523,06 497,54 226,95 0,00 724,49 3.798,57 884,00 0,00 30/04/2017
142 613400 AMANDA DE ASSIS IUNES SANTOS ANALISTA DO MP ATIVO CONGONHAS - COMARCA; CONGONHAS-PJ-01PJ 6.134,81 368,09 0,00 0,00 0,00 0,00 6.502,90 755,81 846,06 0,00 1.601,87 4.901,03 1.583,00 490,79 30/04/2017
143 520800 AMANDA DE SOUZA MACHADO ANALISTA DO MP ATIVO BAEPENDI - COMARCA; BAEPENDI-PJ-UNPJ 7.560,72 756,07 0,00 0,00 0,00 0,00 8.316,79 914,85 1.061,90 0,00 1.976,75 6.340,04 884,00 0,00 30/04/2017
144 543100 AMANDA VIEIRA FREITAS BRESSANE ANALISTA DO MP ATIVO PARAGUAÇU - COMARCA; PARAGUACU-PJ-UNPJ 6.334,59 380,08 0,00 0,00 0,00 0,00 6.714,67 738,61 721,92 0,00 1.460,53 5.254,14 884,00 0,00 30/04/2017
145 434400 AMARILIS ASSIS SIMAO CURCIO ANALISTA DO MP ATIVO MANHUAÇU - COMARCA; MANHUACU-PJ-01PJ 8.594,48 859,45 0,00 0,00 0,00 0,00 9.453,93 1.039,93 1.444,49 0,00 2.484,42 6.969,51 1.583,00 0,00 30/04/2017
146 652000 AMAURI SILVA ALVES OFICIAL DO MP ATIVO BELO HORIZONTE - COMARCA; BH-23PJ INFRACIONAL-SEC EXP 3.182,15 0,00 0,00 0,00 0,00 0,00 3.182,15 368,03 91,86 0,00 459,89 2.722,26 884,00 163,62 30/04/2017
147 273700 AMBROLINA CARNEIRO DE VASCONCELOS OFICIAL DO MP ATIVO FRUTAL - COMARCA; FRUTAL-PJ-01PJ 8.061,11 4.030,55 0,00 0,00 0,00 0,00 12.091,66 1.330,08 2.037,94 0,00 3.368,02 8.723,64 884,00 0,00 30/04/2017
148 58000 AMELIA GUARIZE DE CASTRO OFICIAL DO MP ATIVO JUIZ DE FORA - COMARCA; JUIZ DE FORA-PJ-SECRETARIA 5.754,07 5.178,67 0,00 0,00 0,00 1.202,60 12.135,34 1.202,60 2.137,14 0,00 3.339,74 8.795,60 884,00 0,00 30/04/2017
149 324301 AMERICA SUELI FERREIRA DA SILVA ANALISTA DO MP ATIVO MONTE CARMELO - COMARCA; MONTE CARMELO-PJ-02PJ 8.594,48 859,45 0,00 0,00 0,00 0,00 9.453,93 1.039,93 1.392,35 0,00 2.432,28 7.021,65 1.583,00 0,00 30/04/2017
150 273300 AMUJACY DE BRITO ASSIZ OFICIAL DO MP ATIVO BELO HORIZONTE - COMARCA; BH-12PJ JUIZO CRIMINAL-SECRETARIA 7.806,95 1.561,39 0,00 0,00 0,00 0,00 9.368,34 1.030,52 1.214,99 0,00 2.245,51 7.122,83 1.583,00 0,00 30/04/2017
151 482200 ANA ALICE LOPES ACHTSCHIN ANALISTA DO MP ATIVO BELO HORIZONTE - COMARCA; PROC JUST RECURSOS ESP E EXTRAORD CRIMINAIS 8.594,48 859,45 0,00 0,00 0,00 0,00 9.453,93 1.039,93 1.444,49 0,00 2.484,42 6.969,51 884,00 0,00 30/04/2017
152 490400 ANA AMELIA PAULINO GARCIA OFICIAL DO MP ATIVO CONTAGEM - COMARCA; CONTAGEM-PJ-13PJ 5.572,67 557,27 0,00 0,00 0,00 0,00 6.129,94 674,29 630,94 0,00 1.305,23 4.824,71 884,00 0,00 30/04/2017
153 279100 ANA CAROLINA ARAUJO PEREIRA ANALISTA DO MP ATIVO BELO HORIZONTE - COMARCA; DIRETORIA DE PROJETOS DE EDIFICACOES 13.228,78 2.645,76 0,00 0,00 0,00 0,00 15.874,54 1.746,20 2.963,80 0,00 4.710,00 11.164,54 1.583,00 0,00 30/04/2017
154 653300 ANA CAROLINA CYRNE DINIZ ASSESSOR ATIVO BELO HORIZONTE - COMARCA; CENTRAL DE APOIO TECNICO-SETOR CONTABIL 0,00 0,00 6.973,61 0,00 0,00 0,00 6.973,61 608,44 2.429,51 0,00 3.037,95 3.935,66 1.446,55 4.184,17 30/04/2017
155 359400 ANA CAROLINA DE ABREU FARIA ASSESSOR ATIVO BELO HORIZONTE - COMARCA; DIVISAO DE CONTROLE IMOBILIARIO 0,00 0,00 6.973,61 0,00 0,00 0,00 6.973,61 608,44 1.124,16 0,00 1.732,60 5.241,01 884,00 0,00 30/04/2017
156 408500 ANA CAROLINA DE CASTRO CARVALHO ANALISTA DO MP ATIVO BARBACENA - COMARCA; BARBACENA-PJ-SECRETARIA 9.461,59 946,16 0,00 0,00 0,00 0,00 10.407,75 1.144,85 1.677,94 0,00 2.822,79 7.584,96 884,00 0,00 30/04/2017
157 420200 ANA CAROLINA FERNANDES SILVA ANALISTA DO MP ATIVO BELO HORIZONTE - COMARCA; GABINETE DE PROCURADOR DE JUSTIÇA - SALA 708 9.163,30 916,33 0,00 0,00 3.359,88 0,00 13.439,51 1.108,76 2.521,60 0,00 3.630,36 9.809,15 884,00 0,00 30/04/2017
158 522100 ANA CAROLINA FERNANDINO VIDAL PEREIRA SANTOS OFICIAL DO MP ATIVO BELO HORIZONTE - COMARCA; SECRETARIA DO PROCON-MG 5.396,93 539,69 0,00 0,00 0,00 0,00 5.936,62 653,03 583,63 0,00 1.236,66 4.699,96 884,00 0,00 30/04/2017
159 502400 ANA CAROLINA GONCALVES FERNANDES ANALISTA DO MP ATIVO GRAO MOGOL - COMARCA; GRAO MOGOL-PJ-UNPJ 7.806,95 780,70 0,00 0,00 0,00 0,00 8.587,65 944,64 1.232,47 0,00 2.177,11 6.410,54 884,00 0,00 30/04/2017
160 529900 ANA CAROLINA GONCALVES PECANHA CHEQUER ANALISTA DO MP ATIVO MANHUAÇU - COMARCA; MANHUACU-PJ-04PJ 6.334,59 380,08 0,00 0,00 0,00 0,00 6.714,67 738,61 774,06 0,00 1.512,67 5.202,00 884,00 0,00 30/04/2017
161 431900 ANA CAROLINA MOTTA GUATIMOSIM ANALISTA DO MP ATIVO BELO HORIZONTE - COMARCA; GABINETE DE PROCURADOR DE JUSTIÇA - SALA 1006 9.163,30 916,33 0,00 0,00 0,00 0,00 10.079,63 1.108,76 1.597,63 0,00 2.706,39 7.373,24 884,00 0,00 30/04/2017
162 490600 ANA CAROLINA XAVIER GODOY ANALISTA DO MP ATIVO BELO HORIZONTE - COMARCA; BH-18PJ VIOLENCIA DOMESTICA 7.806,95 780,70 0,00 0,00 0,00 0,00 8.587,65 944,64 1.232,47 0,00 2.177,11 6.410,54 884,00 0,00 30/04/2017
163 600300 ANA CAROLINE PEREIRA DINIZ ANALISTA DO MP ATIVO BELO HORIZONTE - COMARCA; COMB CRIMES PRAT POR AG POL MUN-SECRETARIA 6.334,59 380,08 0,00 0,00 0,00 0,00 6.714,67 738,61 774,06 0,00 1.512,67 5.202,00 1.583,00 0,00 30/04/2017
164 615800 ANA CAROLINE PEREIRA OLIVEIRA OFICIAL DO MP ATIVO ALFENAS - COMARCA; ALFENAS-PJ-06PJ 3.982,20 0,00 0,00 0,00 0,00 0,00 3.982,20 438,04 176,82 0,00 614,86 3.367,34 884,00 0,00 30/04/2017
165 324800 ANA CECILIA MENDES DA SILVA OFICIAL DO MP ATIVO OURO FINO - COMARCA; OURO FINO-PJ-01PJ 7.560,72 2.268,22 0,00 0,00 0,00 0,00 9.828,94 1.081,18 1.484,14 0,00 2.565,32 7.263,62 1.583,00 0,00 30/04/2017
166 441300 ANA CLAUDIA ALKIMIM MIRANDA BOMTEMPO ANALISTA DO MP ATIVO MONTES CLAROS - COMARCA; MONTES CLAROS-PJ-11PJ 9.163,30 916,33 0,00 0,00 0,00 0,00 10.079,63 1.108,76 1.493,35 0,00 2.602,11 7.477,52 1.583,00 0,00 30/04/2017
167 642500 ANA CLAUDIA DA COSTA NAVES OFICIAL DO MP ATIVO MONTE CARMELO - COMARCA; MONTE CARMELO-PJ-02PJ 3.182,15 0,00 0,00 0,00 0,00 0,00 3.182,15 350,04 70,02 0,00 420,06 2.762,09 884,00 0,00 30/04/2017
168 604900 ANA CLAUDIA OLIVEIRA DE MIRANDA OFICIAL DO MP ATIVO PONTE NOVA - COMARCA; PONTE NOVA-PJ-04PJ 3.392,75 0,00 0,00 0,00 1.130,92 0,00 4.523,67 373,20 255,07 0,00 628,27 3.895,40 884,00 0,00 30/04/2017
169 379300 ANA CRISTINA ALVES FLAVIO ANALISTA DO MP ATIVO SÃO GOTARDO - COMARCA; SAO GOTARDO-PJ-01PJ 10.416,20 1.041,62 0,00 0,00 0,00 0,00 11.457,82 1.260,36 1.882,80 0,00 3.143,16 8.314,66 1.583,00 0,00 30/04/2017
170 461200 ANA CRISTINA ALVES PASCHOAL ANALISTA DO MP ATIVO SANTA LUZIA - COMARCA; SANTA LUZIA-PJ-03PJ 8.594,48 859,45 0,00 0,00 0,00 0,00 9.453,93 1.039,93 1.444,49 0,00 2.484,42 6.969,51 884,00 0,00 30/04/2017
171 514100 ANA CRISTINA ARAUJO ASSUNCAO ANALISTA DO MP ATIVO BELO HORIZONTE - COMARCA; ASSESS JUR DO CONS SUPERIOR DO MINISTERIO PUB 7.806,95 780,70 0,00 0,00 0,00 0,00 8.587,65 944,64 1.180,33 0,00 2.124,97 6.462,68 1.583,00 0,00 30/04/2017
172 113400 ANA CRISTINA BRAGA ALBUQUERQUE ASSESSOR/ANALISTA ATIVO BELO HORIZONTE - COMARCA; ASSESS ESP ADM E FINANCEIRA DO PGJ ADJ ADM 25.682,27 12.841,14 0,00 0,00 0,00 0,00 38.523,41 3.351,82 6.588,44 8.052,30 17.992,56 20.530,85 5.759,38 446,91 30/04/2017
173 233800 ANA CRISTINA BRAGA SOARES RIOS OFICIAL DO MP ATIVO CONTAGEM - COMARCA; CONTAGEM-PJ-SECRETARIA 7.806,95 2.342,09 0,00 0,00 0,00 0,00 10.149,04 1.116,39 1.614,62 0,00 2.731,01 7.418,03 884,00 0,00 30/04/2017
174 186400 ANA CRISTINA DE AZEVEDO LOPES OFICIAL DO MP ATIVO UBÁ - COMARCA; UBA-PJ-01PJ 10.755,28 3.226,58 0,00 0,00 0,00 0,00 13.981,86 1.538,00 2.500,56 0,00 4.038,56 9.943,30 884,00 0,00 30/04/2017
175 465100 ANA CRISTINA DE OLIVEIRA GUIMARAES ANALISTA DO MP ATIVO BRASÓPOLIS - COMARCA; BRASOPOLIS-PJ-UNPJ 8.594,48 859,45 0,00 0,00 0,00 0,00 9.453,93 1.039,93 1.392,35 0,00 2.432,28 7.021,65 1.583,00 0,00 30/04/2017
176 500600 ANA CRISTINA LATADO SUDARIO ANALISTA DO MP ATIVO UBERLÂNDIA - COMARCA; UBERLANDIA-PJ-09PJ 7.806,95 780,70 0,00 0,00 2.862,55 0,00 11.450,20 944,64 2.019,67 0,00 2.964,31 8.485,89 884,00 0,00 30/04/2017
177 331400 ANA CRISTINA RIBEIRO ALVES OFICIAL DO MP ATIVO BAMBUÍ - COMARCA; BAMBUI-PJ-UNPJ 6.753,72 1.350,74 0,00 0,00 2.701,49 0,00 10.805,95 891,49 1.804,98 0,00 2.696,47 8.109,48 884,00 0,00 30/04/2017
178 249300 ANA ELOINA MARTINS DO PINHO OFICIAL DO MP ATIVO BETIM - COMARCA; BETIM-PJ-08PJ 9.163,30 3.665,32 0,00 0,00 0,00 0,00 12.828,62 1.411,15 2.270,44 0,00 3.681,59 9.147,03 884,00 0,00 30/04/2017
179 257400 ANA FLAVIA CAMBRAIA ANALISTA DO MP ATIVO BELO HORIZONTE - COMARCA; BH-19PJ SAUDE-SECRETARIA 150PJ 13.034,76 2.606,95 0,00 0,00 0,00 0,00 15.641,71 1.720,59 2.906,81 0,00 4.627,40 11.014,31 884,00 0,00 30/04/2017
180 248201 ANA FLAVIA DE MORAIS SOUZA ANALISTA DO MP ATIVO DIVINÓPOLIS - COMARCA; DIVINOPOLIS-PJ-01PJ 8.594,48 2.578,34 0,00 0,00 0,00 0,00 11.172,82 1.323,55 1.971,26 0,00 3.294,81 7.878,01 2.961,92 900,42 30/04/2017
181 621100 ANA FLAVIA DINIZ TEODORO OFICIAL DO MP ATIVO SANTA LUZIA - COMARCA; SANTA LUZIA-PJ-06PJ 3.617,27 0,00 0,00 0,00 0,00 0,00 3.617,27 397,90 128,11 0,00 526,01 3.091,26 884,00 0,00 30/04/2017
182 238600 ANA FLAVIA FRANCO OFICIAL DO MP ATIVO BELO HORIZONTE - COMARCA; DIRETORIA DE PESSOAL ADMINISTRATIVO - DPAD 9.461,59 2.838,48 0,00 0,00 0,00 0,00 12.300,07 1.353,01 2.141,08 0,00 3.494,09 8.805,98 884,00 0,00 30/04/2017
183 402900 ANA FLAVIA PORTES DE CARVALHO ANALISTA DO MP ATIVO BELO HORIZONTE - COMARCA; DIRET DE PLANOS PROJETOS E PROGRAMAS INST 10.416,20 1.041,62 0,00 0,00 0,00 0,00 11.457,82 1.260,36 1.882,80 0,00 3.143,16 8.314,66 884,00 0,00 30/04/2017
184 382700 ANA KARENINA SALDANHA GONTIJO ANALISTA DO MP ATIVO BELO HORIZONTE - COMARCA; ASSESS TECNICO-JUR JUNTO AS PROC. DE JUST 10.087,71 1.008,77 0,00 0,00 0,00 0,00 11.096,48 1.220,61 1.846,50 0,00 3.067,11 8.029,37 2.282,00 0,00 30/04/2017
185 620500 ANA KARINE DE ANDRADE OLIVEIRA ANALISTA DO MP ATIVO RIBEIRÃO DAS NEVES - COMARCA; RIBEIRAO DAS NEVES-PJ-10PJ 5.572,67 0,00 0,00 0,00 0,00 0,00 5.572,67 612,99 494,55 0,00 1.107,54 4.465,13 884,00 0,00 30/04/2017
186 220000 ANA LUCIA AMORIM OFICIAL DO MP ATIVO MARTINHO CAMPOS - COMARCA; MARTINHO CAMPOS-PJ-SECRETARIA 9.163,30 4.581,65 0,00 0,00 0,00 0,00 13.744,95 1.511,94 2.494,72 0,00 4.006,66 9.738,29 1.583,00 0,00 30/04/2017
187 462200 ANA LUCIA ANDRADE TOMICH OTTONI ANALISTA DO MP ATIVO TEÓFILO OTONI - COMARCA; TEOFILO OTONI-PJ-06PJ 8.594,48 859,45 0,00 0,00 0,00 0,00 9.453,93 1.039,93 1.340,22 0,00 2.380,15 7.073,78 884,00 0,00 30/04/2017
188 504100 ANA LUCIA CATAO DE CARVALHO OFICIAL DO MP ATIVO BELO HORIZONTE - COMARCA; BH-09PJ AUDITORIA MILITAR 5.572,67 557,27 0,00 0,00 0,00 0,00 6.129,94 674,29 578,81 0,00 1.253,10 4.876,84 1.583,00 0,00 30/04/2017
189 274700 ANA LUCIA DE ALENCAR BRAGATO OFICIAL DO MP ATIVO UBERABA - COMARCA; UBERABA-PJ-07PJ 8.061,11 1.612,22 0,00 0,00 0,00 0,00 9.673,33 1.064,07 1.446,05 0,00 2.510,12 7.163,21 884,00 0,00 30/04/2017
190 509400 ANA LUCIA DORNELAS MALLOSTO ANALISTA DO MP ATIVO JUIZ DE FORA - COMARCA; JUIZ DE FORA-PJ-18PJ 7.200,69 720,07 0,00 0,00 0,00 0,00 7.920,76 871,28 1.017,11 0,00 1.888,39 6.032,37 884,00 0,00 30/04/2017
191 524600 ANA LUCIA DOS SANTOS FERNANDES COELHO ASSESSOR ATIVO BELO HORIZONTE - COMARCA; COORD DE INCLUSAO E MOBILIZACAO SOCIAIS 0,00 0,00 2.625,65 0,00 0,00 0,00 2.625,65 386,06 113,74 0,00 499,80 2.125,85 884,00 0,00 30/04/2017
192 302600 ANA LUCIA LOPES SANTOS OFICIAL DO MP ATIVO BELO HORIZONTE - COMARCA; DIVISÃO DE FISCALIZAÇÃO DAS RELAÇÕES DE CONSU 7.560,72 1.512,14 0,00 0,00 0,00 0,00 9.072,86 998,01 1.638,32 0,00 2.636,33 6.436,53 1.296,26 1.271,35 30/04/2017
193 493400 ANA LUISA NOGUEIRA MOREIRA ANALISTA DO MP ATIVO BELO HORIZONTE - COMARCA; BH-19PJ SAUDE 7.806,95 780,70 0,00 0,00 0,00 0,00 8.587,65 944,64 1.232,47 0,00 2.177,11 6.410,54 884,00 0,00 30/04/2017
194 389300 ANA LUISA REUTER LIMA ANALISTA DO MP ATIVO BELO HORIZONTE - COMARCA; DIRETORIA DE SISTEMAS DE INFORMACAO 8.594,48 859,45 0,00 0,00 0,00 0,00 9.453,93 1.039,93 1.444,49 0,00 2.484,42 6.969,51 884,00 0,00 30/04/2017
195 480600 ANA LUIZA FERNANDES FRAGA E GRECO OFICIAL DO MP ATIVO SANTO ANTÔNIO DO MONTE - COMARCA; SANTO ANTONIO DO MONTE-PJ-UNPJ 5.396,93 539,69 0,00 0,00 0,00 0,00 5.936,62 653,03 583,63 0,00 1.236,66 4.699,96 884,00 0,00 30/04/2017
196 481400 ANA MARCIA CANDIDA FERREIRA OFICIAL DO MP ATIVO BRUMADINHO - COMARCA; BRUMADINHO-PJ-01PJ 4.598,03 459,80 0,00 0,00 0,00 0,00 5.057,83 556,36 376,70 0,00 933,06 4.124,77 884,00 0,00 30/04/2017
197 643100 ANA MARIA LOPES MIRANDA ANALISTA DO MP ATIVO BELO HORIZONTE - COMARCA; CAO-TS-TERCEIRO SETOR 5.396,93 0,00 0,00 0,00 0,00 0,00 5.396,93 593,66 451,54 0,00 1.045,20 4.351,73 1.583,00 0,00 30/04/2017
198 556400 ANA MARIA OLIVEIRA SOUZA OFICIAL DO MP ATIVO ITAPECERICA - COMARCA; ITAPECERICA-PJ-UNPJ 4.111,87 246,71 0,00 0,00 0,00 0,00 4.358,58 479,44 236,68 0,00 716,12 3.642,46 884,00 0,00 30/04/2017
199 409600 ANA OLIVIA FARIA ROSENBURG ANALISTA DO MP ATIVO BELO HORIZONTE - COMARCA; DIRETORIA DO COLEGIO E DA CAMARA DE PJ 9.461,59 1.892,32 0,00 0,00 0,00 0,00 11.353,91 1.248,93 1.909,51 0,00 3.158,44 8.195,47 884,00 0,00 30/04/2017
200 461500 ANA PAULA ALVES CARVALHO ANALISTA DO MP ATIVO UBERLÂNDIA - COMARCA; UBERLANDIA-PJ-08PJ 8.594,48 859,45 0,00 0,00 0,00 0,00 9.453,93 1.039,93 1.444,49 0,00 2.484,42 6.969,51 1.583,00 0,00 30/04/2017
201 523200 ANA PAULA ALVES DA SILVA OFICIAL DO MP ATIVO GOVERNADOR VALADARES - COMARCA; GOVERNADOR VALADARES-PJ-10PJ 5.396,93 539,69 0,00 0,00 1.978,87 0,00 7.915,49 653,03 1.075,68 0,00 1.728,71 6.186,78 1.583,00 0,00 30/04/2017
202 381200 ANA PAULA BARROS PEREIRA ANALISTA DO MP ATIVO BELO HORIZONTE - COMARCA; PROC JUST RECURSOS ESP E EXTRAORD CRIMINAIS 10.416,20 1.041,62 0,00 0,00 0,00 0,00 11.457,82 1.260,36 1.934,94 0,00 3.195,30 8.262,52 884,00 0,00 30/04/2017
203 227200 ANA PAULA DA SILVA CAMPOLINA ANALISTA DO MP ATIVO BELO HORIZONTE - COMARCA; SUPERINTENDENCIA DE FINANCAS 16.063,25 6.425,30 0,00 0,00 0,00 0,00 22.488,55 2.473,74 4.634,71 0,00 7.108,45 15.380,10 5.381,71 412,29 30/04/2017
204 84200 ANA PAULA DE SOUZA ROCHA OFICIAL DO MP ATIVO BELO HORIZONTE - COMARCA; ASSESS ESP ADM E FINANCEIRA DO PGJ ADJ ADM 24.137,95 12.068,98 0,00 0,00 0,00 0,00 36.206,93 3.351,82 6.588,44 5.735,82 15.676,08 20.530,85 5.759,38 446,91 30/04/2017
205 278500 ANA PAULA DIAS CAPANEMA COORDENADOR/OFICIAL ATIVO BELO HORIZONTE - COMARCA; EXTINTA - DIRETORIA DE MATERIAL E PATRIMONIO 0,00 2.293,40 11.466,98 0,00 0,00 0,00 13.760,38 1.064,07 2.622,13 0,00 3.686,20 10.074,18 884,00 0,00 30/04/2017
206 327300 ANA PAULA GARCIA MAXIMO OFICIAL DO MP ATIVO UNAÍ - COMARCA; UNAI-PJ-01PJ 7.560,72 2.268,22 0,00 0,00 0,00 0,00 9.828,94 1.081,18 1.379,86 0,00 2.461,04 7.367,90 884,00 0,00 30/04/2017
207 270000 ANA PAULA GOULART CRUZ DE MAGALHAES ANALISTA DO MP ATIVO BELO HORIZONTE - COMARCA; COMB CRIMES PRAT POR AG POL MUN-ASSESSORIA 10.087,71 2.017,54 0,00 0,00 0,00 0,00 12.105,25 1.331,58 2.093,40 0,00 3.424,98 8.680,27 884,00 0,00 30/04/2017
208 262100 ANA PAULA KOMATSUZAKI ABIJAUDI ANALISTA DO MP ATIVO BELO HORIZONTE - COMARCA; BH-17PJ PATRIMONIO PUBLICO-SECRETARIA 13.034,76 5.213,90 0,00 0,00 0,00 0,00 18.248,66 2.007,35 3.492,73 0,00 5.500,08 12.748,58 884,00 0,00 30/04/2017
209 278900 ANA PAULA MOREIRA GURGEL ANALISTA DO MP ATIVO BELO HORIZONTE - COMARCA; DIRETORIA-GERAL 13.228,78 3.968,63 0,00 0,00 0,00 0,00 17.197,41 1.891,72 3.339,70 0,00 5.231,42 11.965,99 3.635,59 252,23 30/04/2017
210 425701 ANA PAULA ROCHA ASSESSOR/ANALISTA ATIVO BELO HORIZONTE - COMARCA; SUPERINTENDENCIA DE COMUNICACAO INTEGRADA 0,00 0,00 6.973,61 0,00 0,00 0,00 6.973,61 674,83 862,80 0,00 1.537,63 5.435,98 884,00 0,00 30/04/2017
211 395601 ANA PAULA SALGE OLIVEIRA ANALISTA DO MP ATIVO UBERABA - COMARCA; COORD REG PP TRIANGULO MINEIRO UBERABA 7.806,95 1.561,39 0,00 0,00 0,00 0,00 9.368,34 1.030,52 1.423,54 0,00 2.454,06 6.914,28 884,00 0,00 30/04/2017
212 473200 ANA PAULA SCOTTON BRASIL ANALISTA DO MP ATIVO JUIZ DE FORA - COMARCA; JUIZ DE FORA-PJ-15PJ 8.594,48 859,45 0,00 0,00 0,00 0,00 9.453,93 1.039,93 1.444,49 0,00 2.484,42 6.969,51 1.583,00 0,00 30/04/2017
213 633600 ANA PAULA SILVA FERNANDES OFICIAL DO MP ATIVO CATAGUASES - COMARCA; CATAGUASES-PJ-04PJ 3.285,74 0,00 0,00 0,00 0,00 0,00 3.285,74 361,43 83,85 0,00 445,28 2.840,46 884,00 0,00 30/04/2017
214 470900 ANA PAULA VALADARES ANALISTA DO MP ATIVO PITANGUI - COMARCA; PITANGUI-PJ-01PJ 8.594,48 859,45 0,00 0,00 0,00 0,00 9.453,93 1.039,93 1.340,22 0,00 2.380,15 7.073,78 884,00 0,00 30/04/2017
215 447000 ANA PAULA VALENTIM DE ARAUJO ANALISTA DO MP ATIVO BELO HORIZONTE - COMARCA; PROCURADORIA-GERAL ADJUNTA ADMINISTRATIVA 8.594,48 859,45 0,00 0,00 0,00 0,00 9.453,93 1.039,93 1.444,49 0,00 2.484,42 6.969,51 884,00 0,00 30/04/2017
216 604200 ANA PAULA VIANA E SILVA OFICIAL DO MP ATIVO BELO HORIZONTE - COMARCA; BH-17PJ PATRIMONIO PUBLICO-SECRETARIA 4.111,87 246,71 0,00 0,00 0,00 0,00 4.358,58 479,44 236,68 0,00 716,12 3.642,46 1.583,00 0,00 30/04/2017
217 505400 ANA PAULA VIEIRA SOUTO OFICIAL DO MP ATIVO ALMENARA - COMARCA; COORD. PAT. PUBLICO-MUCURI/JEQUIT - ALMENARA 4.245,74 1.273,72 0,00 0,00 0,00 0,00 5.519,46 607,14 429,39 0,00 1.036,53 4.482,93 884,00 0,00 30/04/2017
218 280200 ANA RACHEL BRANDAO LADEIRA ROLAND ANALISTA DO MP ATIVO BELO HORIZONTE - COMARCA; SUPRIN DE FORMACAO E APERFEICOAMENTO-SFA/CEAF 12.623,91 2.524,78 0,00 0,00 0,00 0,00 15.148,69 1.666,36 3.110,77 0,00 4.777,13 10.371,56 884,00 990,87 30/04/2017
219 601200 ANA REGINA RIBEIRO ANALISTA DO MP ATIVO BELO HORIZONTE - COMARCA; EXTINTA - DIVISAO DE SERVICOS GERAIS 5.754,07 345,24 0,00 0,00 0,00 0,00 6.099,31 670,92 623,45 0,00 1.294,37 4.804,94 884,00 0,00 30/04/2017
220 384700 ANA RODRIGUES PEREIRA MARRA ANALISTA DO MP ATIVO COROMANDEL - COMARCA; COROMANDEL-PJ-SECRETARIA 8.061,11 806,11 0,00 0,00 0,00 0,00 8.867,22 975,39 1.248,76 0,00 2.224,15 6.643,07 884,00 0,00 30/04/2017
221 232700 ANA SILVIA SEMBLANO NAKAMURA ASSESSOR/OFICIAL ATIVO BELO HORIZONTE - COMARCA; CENT DE APOIO TEC-SETOR DEF,IDOSO E INFANC 0,00 2.662,30 8.874,34 0,00 0,00 0,00 11.536,64 1.152,74 1.986,21 0,00 3.138,95 8.397,69 884,00 0,00 30/04/2017
222 326700 ANA TERCIA DE FATIMA COSTA OFICIAL DO MP ATIVO NOVA SERRANA - COMARCA; NOVA SERRANA-PJ-01PJ 7.322,31 1.464,46 0,00 0,00 0,00 966,54 9.753,31 966,54 1.494,86 0,00 2.461,40 7.291,91 884,00 0,00 30/04/2017
223 602100 ANACLETO FRANCISCO MARCIER PIMENTA OFICIAL DO MP ATIVO SÃO JOÃO DEL REI - COMARCA; SAO JOAO DEL REI-PJ-03PJ 3.735,01 224,10 0,00 0,00 0,00 0,00 3.959,11 435,50 64,59 0,00 500,09 3.459,02 2.282,00 0,00 30/04/2017
224 310400 ANADEJE DO CARMO DINIZ ARAUJO OFICIAL DO MP ATIVO BELO HORIZONTE - COMARCA; CENT DE ATENDIMENTO E ORIENTACAO DE PESSOAL 7.322,31 1.464,46 0,00 0,00 0,00 0,00 8.786,77 966,54 1.281,20 0,00 2.247,74 6.539,03 884,00 0,00 30/04/2017
225 337000 ANAILDES MARIA MENDES OFICIAL DO MP ATIVO JANAÚBA - COMARCA; JANAUBA-PJ-02PJ 6.973,61 1.394,72 0,00 0,00 2.789,44 0,00 11.157,77 920,52 1.945,88 0,00 2.866,40 8.291,37 1.583,00 0,00 30/04/2017
226 192900 ANATALIA CERQUEIRA LIMA PERES OFICIAL DO MP ATIVO UBERABA - COMARCA; COORD REG SAUDE MACROR SANIT TRIANGULO SUL 8.874,34 2.662,30 0,00 0,00 0,00 0,00 11.536,64 1.269,03 1.954,23 0,00 3.223,26 8.313,38 1.345,47 42,30 30/04/2017
227 377400 ANDEIRSON DA MATTA BARBOSA ANALISTA DO MP ATIVO POUSO ALEGRE - COMARCA; POUSO ALEGRE-PJ-01PJ 8.594,48 859,45 0,00 0,00 0,00 0,00 9.453,93 1.039,93 1.444,49 0,00 2.484,42 6.969,51 884,00 0,00 30/04/2017
228 317400 ANDERSON DA SILVA BICALHO OFICIAL DO MP ATIVO CONTAGEM - COMARCA; COORD REG DEF ORDEM ECONOMICA TRIB CONTAGEM 6.753,72 1.350,74 0,00 0,00 0,00 0,00 8.104,46 891,49 1.009,98 0,00 1.901,47 6.202,99 1.583,00 20.000,00 30/04/2017
229 506900 ANDERSON DE SOUZA DAMIANI ANALISTA DO MP ATIVO BELO HORIZONTE - COMARCA; DIRETORIA DE PAGAMENTO DE PESSOAL-DPAG 7.200,69 1.440,14 0,00 0,00 0,00 0,00 8.640,83 950,49 1.141,21 0,00 2.091,70 6.549,13 1.583,00 0,00 30/04/2017
230 410000 ANDERSON DE SOUZA NETO ASSESSOR ATIVO BELO HORIZONTE - COMARCA; DIRETORIA DE ADMINISTRACAO FINANCEIRA 0,00 0,00 4.383,93 0,00 0,00 0,00 4.383,93 579,47 419,97 0,00 999,44 3.384,49 884,00 0,00 30/04/2017
231 181900 ANDERSON FLAVIO DE OLIVEIRA OFICIAL DO MP ATIVO ITAGUARA - COMARCA; ITAGUARA-PJ-SECRETARIA 9.461,59 2.838,48 0,00 0,00 0,00 0,00 12.300,07 1.353,01 2.141,08 0,00 3.494,09 8.805,98 884,00 0,00 30/04/2017
232 119500 ANDERSON FUNGHI DE AZEVEDO ROCHA OFICIAL DO MP ATIVO BELO HORIZONTE - COMARCA; GABINETE DE SEGURANCA E INTELIGENCIA 12.225,81 9.780,64 0,00 0,00 0,00 0,00 22.006,45 2.420,71 4.412,44 0,00 6.833,15 15.173,30 3.524,77 242,07 30/04/2017
233 333200 ANDERSON JOSE DE FREITAS OFICIAL DO MP ATIVO IPATINGA - COMARCA; IPATINGA-PJ-07PJ 6.973,61 1.394,72 0,00 0,00 0,00 0,00 8.368,33 920,52 1.413,74 0,00 2.334,26 6.034,07 1.583,00 21.233,56 30/04/2017
234 462100 ANDERSON LUIZ GUIMARAES CARDOSO ANALISTA DO MP ATIVO BARBACENA - COMARCA; BARBACENA-PJ-02PJ 8.594,48 859,45 0,00 0,00 0,00 0,00 9.453,93 1.039,93 1.444,49 0,00 2.484,42 6.969,51 884,00 0,00 30/04/2017
235 429700 ANDERSON MELO DE SOUZA OFICIAL DO MP ATIVO BELO HORIZONTE - COMARCA; DIRET DE ESTAGIOS E CONVENIOS ACADEMICOS 4.747,79 474,78 0,00 0,00 0,00 0,00 5.222,57 574,48 409,69 0,00 984,17 4.238,40 884,00 0,00 30/04/2017
236 545600 ANDERSON MENDES PROCOPIO FERREIRA ANALISTA DO MP ATIVO BELO HORIZONTE - COMARCA; BH-12PJ JUIZO CRIMINAL-GAB 089PJ 6.334,59 380,08 0,00 0,00 0,00 0,00 6.714,67 738,61 774,06 0,00 1.512,67 5.202,00 884,00 0,00 30/04/2017
237 519900 ANDERSON MOREIRA DOEHLER ANALISTA DO MP ATIVO NOVO CRUZEIRO - COMARCA; NOVO CRUZEIRO-PJ-UNPJ 7.200,69 1.440,14 0,00 0,00 0,00 0,00 8.640,83 950,49 1.245,48 0,00 2.195,97 6.444,86 884,00 0,00 30/04/2017
238 103000 ANDERSON TADEU DE DEUS ASSESSOR ATIVO BELO HORIZONTE - COMARCA; EXTINTA - DIVISAO DE TRANSPORTES 0,00 2.191,97 4.383,93 0,00 0,00 0,00 6.575,90 608,44 1.014,79 0,00 1.623,23 4.952,67 884,00 0,00 30/04/2017
239 309200 ANDITYAS SOARES DE MOURA COSTA MATOS ANALISTA DO MP ATIVO BELO HORIZONTE - COMARCA; GABINETE DE PROCURADOR DE JUSTIÇA - SALA 909 10.755,28 2.151,06 0,00 0,00 0,00 0,00 12.906,34 1.419,70 2.289,47 0,00 3.709,17 9.197,17 884,00 0,00 30/04/2017
240 613500 ANDRE AZEVEDO SOUSA ANALISTA DO MP ATIVO BELO HORIZONTE - COMARCA; CAO-CRIANCAS E ADOLESCENTES 6.134,81 368,09 0,00 0,00 0,00 0,00 6.502,90 715,32 722,22 0,00 1.437,54 5.065,36 884,00 0,00 30/04/2017
241 519200 ANDRE BORJA LANA ANALISTA DO MP ATIVO BELO HORIZONTE - COMARCA; DIRETORIA DE IMPRENSA 7.806,95 780,70 0,00 0,00 2.862,55 0,00 11.450,20 944,64 2.462,53 0,00 3.407,17 8.043,03 884,00 1.610,41 30/04/2017
242 637200 ANDRE FERNANDES DA CUNHA OFICIAL DO MP ATIVO MORADA NOVA DE MINAS - COMARCA; MORADA NOVA DE MINAS-PJ-UNPJ 3.617,27 0,00 0,00 0,00 0,00 0,00 3.617,27 397,90 128,11 0,00 526,01 3.091,26 884,00 0,00 30/04/2017
243 651500 ANDRE GONCALVES MARANHAO OFICIAL DO MP ATIVO JACINTO - COMARCA; JACINTO-PJ-SECRETARIA 3.182,15 0,00 0,00 0,00 0,00 0,00 3.182,15 350,04 70,02 0,00 420,06 2.762,09 884,00 0,00 30/04/2017
244 521900 ANDRE LUIS GOMES SILVA ANALISTA DO MP ATIVO FORMIGA - COMARCA; FORMIGA-PJ-02PJ 7.560,72 756,07 0,00 0,00 0,00 0,00 8.316,79 914,85 768,20 0,00 1.683,05 6.633,74 884,00 0,00 30/04/2017
245 304300 ANDRE LUIZ AVELAR ANALISTA DO MP ATIVO BELO HORIZONTE - COMARCA; DIRETORIA DE REDES E BANCOS DE DADOS 7.200,69 1.440,14 0,00 0,00 0,00 0,00 8.640,83 950,49 1.245,48 0,00 2.195,97 6.444,86 884,00 0,00 30/04/2017
246 397400 ANDRE PATARO MYRRHA DE PAULA E SILVA ANALISTA DO MP ATIVO BELO HORIZONTE - COMARCA; ASSESSORIA JURIDICO-ADMINISTRATIVA 10.416,20 1.041,62 0,00 0,00 0,00 0,00 11.457,82 1.260,36 1.934,94 0,00 3.195,30 8.262,52 1.583,00 0,00 30/04/2017
247 650100 ANDRE THOME VARGAS OFICIAL DO MP ATIVO LEOPOLDINA - COMARCA; LEOPOLDINA-PJ-04PJ 3.503,19 0,00 0,00 0,00 0,00 0,00 3.503,19 385,35 112,88 0,00 498,23 3.004,96 884,00 0,00 30/04/2017
248 548500 ANDRE VINICIUS CARVALHO MEIRA ANALISTA DO MP ATIVO JUIZ DE FORA - COMARCA; JUIZ DE FORA-PJ-25PJ 5.754,07 345,24 0,00 0,00 0,00 0,00 6.099,31 670,92 623,45 0,00 1.294,37 4.804,94 884,00 0,00 30/04/2017
249 297200 ANDRE WILLE ROSARIO ANALISTA DO MP ATIVO BELO HORIZONTE - COMARCA; ASSESSORIA ESPECIAL DO PGJ 12.623,91 2.524,78 0,00 0,00 0,00 0,00 15.148,69 1.752,05 2.924,68 0,00 4.676,73 10.471,96 884,00 779,04 30/04/2017
250 423600 ANDREA COSTA GUALBERTO ANALISTA DO MP ATIVO GOVERNADOR VALADARES - COMARCA; COORD REG PJ DEF EDU DIR CRIANCA ADOL RIODOCE 9.163,30 4.581,65 0,00 0,00 0,00 0,00 13.744,95 1.511,94 2.442,58 0,00 3.954,52 9.790,43 884,00 0,00 30/04/2017
251 198600 ANDREA CRISTINA ANDRADE COSTA E SOUZA OFICIAL DO MP ATIVO MONTES CLAROS - COMARCA; MONTES CLAROS-PJ-SECRETARIA 11.105,40 3.331,62 0,00 0,00 0,00 0,00 14.437,02 1.588,07 2.611,96 0,00 4.200,03 10.236,99 1.461,48 52,94 30/04/2017
252 467300 ANDREA DE CASSIA PENNA ALVERNAZ ANALISTA DO MP ATIVO PONTE NOVA - COMARCA; PONTE NOVA-PJ-01PJ 8.594,48 859,45 0,00 0,00 0,00 0,00 9.453,93 1.039,93 1.392,35 0,00 2.432,28 7.021,65 884,00 0,00 30/04/2017
253 308000 ANDREA DE CASSIA SANTOS OLIVEIRA ANALISTA DO MP ATIVO BELO HORIZONTE - COMARCA; ASSESS TECNICO-JUR JUNTO AS PROC. DE JUST 12.225,81 2.445,16 0,00 0,00 0,00 0,00 14.670,97 1.613,81 2.669,22 0,00 4.283,03 10.387,94 2.868,84 53,79 30/04/2017
254 349500 ANDREA DE OLIVEIRA OFICIAL DO MP ATIVO IGUATAMA - COMARCA; IGUATAMA-PJ-UNPJ 7.200,69 1.440,14 0,00 0,00 0,00 0,00 8.640,83 950,49 1.193,35 0,00 2.143,84 6.496,99 884,00 0,00 30/04/2017
255 254700 ANDREA EMISE REIS DE AZEVEDO COORDENADOR/OFICIAL ATIVO BELO HORIZONTE - COMARCA; COMB CRIMES PRAT POR AG POL MUN-SECRETARIA 0,00 2.017,54 10.087,71 0,00 0,00 0,00 12.105,25 1.064,07 2.166,96 0,00 3.231,03 8.874,22 884,00 0,00 30/04/2017
256 287900 ANDREA FERNANDES PENA OFICIAL DO MP ATIVO MONTES CLAROS - COMARCA; MONTES CLAROS-PJ-09PJ 7.806,95 1.561,39 0,00 0,00 0,00 0,00 9.368,34 1.030,52 1.319,27 0,00 2.349,79 7.018,55 884,00 0,00 30/04/2017
257 300800 ANDREA FERREIRA ANALISTA DO MP ATIVO LAVRAS - COMARCA; LAVRAS-PJ-04PJ 11.105,40 2.221,08 0,00 0,00 0,00 0,00 13.326,48 1.465,91 2.392,30 0,00 3.858,21 9.468,27 884,00 0,00 30/04/2017
258 316700 ANDREA FRANCISCA DIAS DE SOUZA ASSESSOR ATIVO BELO HORIZONTE - COMARCA; ASSESSORIA TECNICA DO PROCON-MG 0,00 0,00 2.625,65 0,00 0,00 0,00 2.625,65 386,06 113,74 0,00 499,80 2.125,85 1.583,00 0,00 30/04/2017
259 395100 ANDREA LANNA MENDES NOVAIS ANALISTA DO MP ATIVO BELO HORIZONTE - COMARCA; PROMOT ESTADUAL DE DEF PATRI CULT E TUR DE MG 10.416,20 1.041,62 0,00 0,00 0,00 0,00 11.457,82 1.260,36 1.882,80 0,00 3.143,16 8.314,66 1.583,00 0,00 30/04/2017
260 67300 ANDREA LEAO MAGALHAES ROQUE ASSESSOR ATIVO BELO HORIZONTE - COMARCA; PROCURADOR-GERAL ADJ INSTITUCIONAL- GABINETE 0,00 6.212,04 8.874,34 0,00 0,00 0,00 15.086,38 608,44 3.250,90 0,00 3.859,34 11.227,04 884,00 0,00 30/04/2017
261 335700 ANDREA LOPES PEREIRA ANALISTA DO MP ATIVO GOVERNADOR VALADARES - COMARCA; COORD REG DO MA DA BACIA DO RIO DOCE 12.225,81 2.445,16 0,00 0,00 4.890,32 0,00 19.561,29 1.613,81 4.066,20 0,00 5.680,01 13.881,28 5.578,71 430,35 30/04/2017
262 389200 ANDREA TUPINI DOS SANTOS TRISTAO DA ROCHA OFICIAL DO MP ATIVO BELO HORIZONTE - COMARCA; BH-13ª PJ JUÍZO DE TÓXICOS-SECRETARIA 4.747,79 474,78 0,00 0,00 0,00 0,00 5.222,57 574,48 367,03 0,00 941,51 4.281,06 884,00 0,00 30/04/2017
263 419000 ANDREIA BARBOSA DE ALMEIDA ANALISTA DO MP ATIVO BELO HORIZONTE - COMARCA; GABINETE DE PROCURADOR DE JUSTIÇA - SALA 705 9.163,30 916,33 0,00 0,00 0,00 0,00 10.079,63 1.108,76 1.597,63 0,00 2.706,39 7.373,24 1.583,00 0,00 30/04/2017
264 281501 ANDREIA CARLA COSTA FILGUEIRAS ANALISTA DO MP ATIVO VISCONDE DO RIO BRANCO - COMARCA; VISCONDE DO RIO BRANCO-PJ-02PJ 9.461,59 946,16 0,00 0,00 0,00 0,00 10.407,75 1.144,85 1.625,80 0,00 2.770,65 7.637,10 884,00 0,00 30/04/2017
265 643600 ANDREIA CRISTINA SILVA OFICIAL DO MP ATIVO PARACATU - COMARCA; PARACATU-PJ-01PJ 3.182,15 0,00 0,00 0,00 0,00 0,00 3.182,15 350,04 70,02 0,00 420,06 2.762,09 884,00 0,00 30/04/2017
266 477100 ANDREIA DE ALMEIDA RIBEIRO MELO OFICIAL DO MP ATIVO CONTAGEM - COMARCA; CONTAGEM-PJ-07PJ 5.572,67 557,27 0,00 0,00 0,00 0,00 6.129,94 674,29 630,94 0,00 1.305,23 4.824,71 1.583,00 0,00 30/04/2017
267 619000 ANDREIA FERREIRA NORONHA COORDENADOR/OFICIAL ATIVO BELO HORIZONTE - COMARCA; DIRETORIA DE SERVICO CRIMINAL 0,00 0,00 11.466,98 0,00 0,00 0,00 11.466,98 438,04 2.163,60 0,00 2.601,64 8.865,34 884,00 0,00 30/04/2017
268 424000 ANDREIA LUCIA COUTO ANALISTA DO MP ATIVO BELO HORIZONTE - COMARCA; BH-18PJ DIREITOS HUMANOS 9.461,59 946,16 0,00 0,00 0,00 0,00 10.407,75 1.144,85 1.677,94 0,00 2.822,79 7.584,96 884,00 0,00 30/04/2017
269 370100 ANDREIA MARIA SILVA PINTO OFICIAL DO MP ATIVO CORONEL FABRICIANO - COMARCA; CORONEL FABRICIANO-PJ-01PJ 6.753,72 675,37 0,00 0,00 0,00 0,00 7.429,09 817,20 948,91 0,00 1.766,11 5.662,98 884,00 0,00 30/04/2017
270 382100 ANDREIA NATALI PEREIRA OFICIAL DO MP ATIVO PRADOS - COMARCA; PRADOS-PJ-UNPJ 6.540,78 654,08 0,00 0,00 0,00 0,00 7.194,86 791,43 891,58 0,00 1.683,01 5.511,85 884,00 0,00 30/04/2017
271 275200 ANDREIA RIBEIRO FREITAS OFICIAL DO MP ATIVO VIÇOSA - COMARCA; VICOSA-PJ-03PJ 8.061,11 2.418,33 0,00 0,00 0,00 0,00 10.479,44 1.152,74 1.643,35 0,00 2.796,09 7.683,35 884,00 0,00 30/04/2017
272 352200 ANDREIA XAVIER PEREIRA OFICIAL DO MP ATIVO CLÁUDIO - COMARCA; CLAUDIO-PJ-UNPJ 7.200,69 1.440,14 0,00 0,00 0,00 0,00 8.640,83 950,49 1.245,48 0,00 2.195,97 6.444,86 884,00 0,00 30/04/2017
273 638500 ANDRESA ALVES FEITOSA CASAGRANDE ANALISTA DO MP ATIVO PERDÕES - COMARCA; PERDOES-PJ-UNPJ 5.572,67 0,00 0,00 0,00 0,00 0,00 5.572,67 608,44 495,80 0,00 1.104,24 4.468,43 1.583,00 0,00 30/04/2017
274 383700 ANDRESSA EDUARDO SOUZA ANALISTA DO MP ATIVO OURO BRANCO - COMARCA; OURO BRANCO-PJ-SECRETARIA 10.416,20 1.041,62 0,00 0,00 0,00 0,00 11.457,82 1.260,36 1.934,94 0,00 3.195,30 8.262,52 1.583,00 0,00 30/04/2017
275 426200 ANDRESSA MENDES CASAL OFICIAL DO MP ATIVO BELO HORIZONTE - COMARCA; DIR ANALISES TECNOLOGIA INTELIGENCIA 5.396,93 539,69 0,00 0,00 0,00 0,00 5.936,62 653,03 583,63 0,00 1.236,66 4.699,96 884,00 0,00 30/04/2017
276 390100 ANDRESSA RIBEIRO PUCCI OFICIAL DO MP ATIVO UBERABA - COMARCA; UBERABA-PJ-14PJ 5.396,93 539,69 0,00 0,00 0,00 0,00 5.936,62 653,03 583,63 0,00 1.236,66 4.699,96 884,00 0,00 30/04/2017
277 462500 ANDREZA APARECIDA COSTA E SILVA ANALISTA DO MP ATIVO CONSELHEIRO LAFAIETE - COMARCA; CONSELHEIRO LAFAIETE-PJ-02PJ 8.594,48 859,45 0,00 0,00 0,00 0,00 9.453,93 1.039,93 1.444,49 0,00 2.484,42 6.969,51 884,00 0,00 30/04/2017
278 537800 ANDREZZA LUZIA DE OLIVEIRA ALVES ANALISTA DO MP ATIVO PATOS DE MINAS - COMARCA; COORD REG PJ DEF EDU DIR CRI ADO AL PAR NOROE 6.334,59 380,08 0,00 0,00 0,00 0,00 6.714,67 738,61 669,78 0,00 1.408,39 5.306,28 884,00 0,00 30/04/2017
279 491600 ANE PATRICIA RIBEIRO ANALISTA DO MP ATIVO SETE LAGOAS - COMARCA; SETE LAGOAS-PJ-10PJ 7.806,95 780,70 0,00 0,00 0,00 0,00 8.587,65 944,64 1.180,33 0,00 2.124,97 6.462,68 884,00 0,00 30/04/2017
280 465800 ANELISE GAMA ASSESSOR ATIVO BELO HORIZONTE - COMARCA; BH-18PJ VIOLENCIA DOMESTICA-SECRETARIA 0,00 0,00 4.383,93 0,00 0,00 0,00 4.383,93 579,47 419,97 0,00 999,44 3.384,49 884,00 0,00 30/04/2017
281 535200 ANELIZE FERNANDA ALVES VILARINHO OFICIAL DO MP ATIVO CAPINÓPOLIS - COMARCA; CAPINOPOLIS-PJ-UNPJ 3.735,01 224,10 0,00 0,00 0,00 0,00 3.959,11 435,50 173,74 0,00 609,24 3.349,87 1.583,00 0,00 30/04/2017
282 197200 ANGELA COELHO SALDANHA OFICIAL DO MP ATIVO PARÁ DE MINAS - COMARCA; PARA DE MINAS-PJ-03PJ 11.105,40 3.331,62 0,00 0,00 0,00 0,00 14.437,02 1.588,07 2.664,10 0,00 4.252,17 10.184,85 1.461,48 52,94 30/04/2017
283 307400 ANGELA CRISTINA GONCALVES MUNIZ ANALISTA DO MP ATIVO UBERLÂNDIA - COMARCA; UBERLANDIA-PJ-SEC FAMILIA 12.623,91 3.787,17 0,00 0,00 0,00 0,00 16.411,08 1.805,22 3.095,11 0,00 4.900,33 11.510,75 2.282,00 0,00 30/04/2017
284 191800 ANGELA MARIA DE OLIVEIRA OFICIAL DO MP ATIVO GUARANÉSIA - COMARCA; GUARANESIA-PJ-SECRETARIA 11.105,40 4.442,16 0,00 0,00 0,00 0,00 15.547,56 1.710,23 2.883,77 0,00 4.594,00 10.953,56 5.859,22 456,06 30/04/2017
285 69900 ANGELA MARIA DE PAULA CUNHA OFICIAL DO MP ATIVO JUIZ DE FORA - COMARCA; JUIZ DE FORA-PJ-11PJ 12.225,81 8.558,06 0,00 0,00 0,00 2.286,23 23.070,10 2.286,23 4.992,90 0,00 7.279,13 15.790,97 5.872,13 990,70 30/04/2017
286 497400 ANGELA MARIA HENRIQUES ANALISTA DO MP ATIVO BELO HORIZONTE - COMARCA; COORD REG BACIAS RIO VELHAS E PARAOPEBA 7.806,95 780,70 0,00 0,00 0,00 0,00 8.587,65 944,64 1.232,47 0,00 2.177,11 6.410,54 2.282,00 0,00 30/04/2017
287 260700 ANGELICA CRISTINA AZEVEDO MOREIRA MOUCO OFICIAL DO MP ATIVO UBÁ - COMARCA; UBA-PJ-02PJ 9.163,30 1.832,66 0,00 0,00 0,00 0,00 10.995,96 1.209,56 1.821,90 0,00 3.031,46 7.964,50 884,00 0,00 30/04/2017
288 334600 ANGELICA PANISSA DE FREITAS OFICIAL DO MP ATIVO GUAXUPÉ - COMARCA; GUAXUPE-PJ-02PJ 7.560,72 2.268,22 0,00 0,00 0,00 0,00 9.828,94 1.164,35 1.721,32 0,00 2.885,67 6.943,27 1.216,67 786,56 30/04/2017
289 521100 ANGELICA SALES MOREIRA OFICIAL DO MP ATIVO BELO HORIZONTE - COMARCA; BH-02PJ FAMILIA-SECRETARIA 5.396,93 539,69 0,00 0,00 0,00 0,00 5.936,62 653,03 583,63 0,00 1.236,66 4.699,96 884,00 0,00 30/04/2017
290 466500 ANGELLO MARQUES AGRELLI ANALISTA DO MP ATIVO MAR DE ESPANHA - COMARCA; MAR DE ESPANHA-PJ-UNPJ 8.594,48 859,45 0,00 0,00 0,00 0,00 9.453,93 1.039,93 1.444,49 0,00 2.484,42 6.969,51 884,00 0,00 30/04/2017
291 363300 ANGELO VERDOLIN HENRIQUES ANALISTA DO MP ATIVO SETE LAGOAS - COMARCA; SETE LAGOAS-PJ-04PJ 11.105,40 3.331,62 0,00 0,00 0,00 0,00 14.437,02 1.588,07 2.664,10 0,00 4.252,17 10.184,85 2.160,48 52,94 30/04/2017
292 250900 ANISIO APARECIDO SANTOS OFICIAL DO MP ATIVO MARIANA - COMARCA; MARIANA-PJ-02PJ 5.226,73 1.568,02 0,00 0,00 0,00 0,00 6.794,75 747,42 277,54 0,00 1.024,96 5.769,79 884,00 0,00 30/04/2017
293 651200 ANITA MARIA SANTANA DE MATTOS FONTES OFICIAL DO MP ATIVO ERVÁLIA - COMARCA; ERVALIA-PJ-UNPJ 3.182,15 0,00 0,00 0,00 0,00 0,00 3.182,15 350,04 55,39 0,00 405,43 2.776,72 884,00 0,00 30/04/2017
294 253400 ANNA FLAVIA LEHMAN BATTAGLIA ANALISTA DO MP ATIVO BELO HORIZONTE - COMARCA; CAO-PATRIMONIO PUBLICO 13.034,76 2.606,95 0,00 0,00 0,00 0,00 15.641,71 1.720,59 2.802,54 0,00 4.523,13 11.118,58 5.263,68 401,47 30/04/2017
295 447600 ANNGELUCE ALCANTARA DE CAMPOS OFICIAL DO MP ATIVO DIVINÓPOLIS - COMARCA; DIVINOPOLIS-PJ-10PJ 5.226,73 1.045,35 0,00 0,00 0,00 0,00 6.272,08 689,93 665,73 0,00 1.355,66 4.916,42 884,00 0,00 30/04/2017
296 119600 ANSELMO BORGES PARREIRAS OFICIAL DO MP ATIVO BONFIM - COMARCA; BONFIM-PJ-UNPJ 5.941,34 4.753,07 0,00 0,00 0,00 0,00 10.694,41 1.176,39 1.695,96 0,00 2.872,35 7.822,06 884,00 0,00 30/04/2017
297 630300 ANTONIA GOMES RAMALHO OFICIAL DO MP ATIVO NOVO CRUZEIRO - COMARCA; NOVO CRUZEIRO-PJ-UNPJ 3.982,20 0,00 0,00 0,00 0,00 0,00 3.982,20 438,04 176,82 0,00 614,86 3.367,34 884,00 0,00 30/04/2017
298 332400 ANTONIA MARIA MAMEDE OFICIAL DO MP ATIVO UBERLÂNDIA - COMARCA; COORD REG PP TRIANGULO MINEIRO UBERLANDIA 7.200,69 1.440,14 0,00 0,00 0,00 0,00 8.640,83 950,49 1.245,48 0,00 2.195,97 6.444,86 884,00 0,00 30/04/2017
299 401600 ANTONIO CARLOS GUEDES AROUCA ANALISTA DO MP ATIVO BELO HORIZONTE - COMARCA; EXTINTA - CAO-IDOSOS PESSOAS DEFIC-SEC ADM 9.163,30 916,33 0,00 0,00 0,00 0,00 10.079,63 1.108,76 1.597,63 0,00 2.706,39 7.373,24 884,00 0,00 30/04/2017
300 7100 ANTONIO DO NASCIMENTO OLIVEIRA ASSESSOR ATIVO BELO HORIZONTE - COMARCA; GAECO - SECRETARIA 0,00 2.625,66 2.625,65 0,00 0,00 0,00 5.251,31 608,44 320,02 0,00 928,46 4.322,85 884,00 0,00 30/04/2017
301 333900 ANTONIO GONCALVES DE SOUZA FILHO OFICIAL DO MP ATIVO BELO HORIZONTE - COMARCA; DIVISAO DE MEMORIA INSTITUCIONAL 7.200,69 1.440,14 0,00 0,00 0,00 0,00 8.640,83 950,49 1.245,48 0,00 2.195,97 6.444,86 884,00 0,00 30/04/2017
302 176100 ANTONIO MARCELO CAMPOS CAMPANELLA OFICIAL DO MP ATIVO BELO HORIZONTE - COMARCA; ASSESSORIA JURIDICO-ADMINISTRATIVA 11.105,40 4.442,16 0,00 0,00 0,00 0,00 15.547,56 1.710,23 2.935,91 0,00 4.646,14 10.901,42 1.583,00 0,00 30/04/2017
303 321001 ANTONIO OLINTO VIEIRA MACHADO ANALISTA DO MP ATIVO BELO HORIZONTE - COMARCA; CENTRAL DE APOIO TECN-SETOR DE MEIO AMBIENTE 10.416,20 1.041,62 0,00 0,00 0,00 0,00 11.457,82 1.260,36 1.778,53 0,00 3.038,89 8.418,93 884,00 0,00 30/04/2017
304 356200 ANTONIO PAULA DA SILVA OFICIAL DO MP ATIVO JUIZ DE FORA - COMARCA; JUIZ DE FORA-PJ-20PJ 6.334,59 1.900,38 0,00 0,00 0,00 0,00 8.234,97 905,85 1.146,15 0,00 2.052,00 6.182,97 884,00 0,00 30/04/2017
305 119900 ANTONIO RODRIGUES DE PINHO OFICIAL DO MP ATIVO GUANHÃES - COMARCA; GUANHAES-PJ-01PJ 10.755,28 7.528,70 0,00 0,00 0,00 0,00 18.283,98 2.011,24 3.449,23 0,00 5.460,47 12.823,51 5.971,16 402,25 30/04/2017
306 373300 ANTONIO SERGIO ANANIAS OFICIAL DO MP ATIVO AIURUOCA - COMARCA; AIURUOCA-PJ-UNPJ 6.334,59 633,46 0,00 0,00 0,00 0,00 6.968,05 766,49 731,79 0,00 1.498,28 5.469,77 884,00 0,00 30/04/2017
307 608100 ANTONIO SIDINEY VIEIRA LEMOS ANALISTA DO MP ATIVO PIRAPORA - COMARCA; PIRAPORA-PJ-01PJ 6.134,81 1.840,44 0,00 0,00 0,00 0,00 7.975,25 877,28 1.082,58 0,00 1.959,86 6.015,39 884,00 0,00 30/04/2017
308 374700 ANTONIO SILVA NETO OFICIAL DO MP ATIVO BELO HORIZONTE - COMARCA; GAECO - SECRETARIA 6.540,78 654,08 0,00 0,00 0,00 0,00 7.194,86 791,43 891,58 0,00 1.683,01 5.511,85 884,00 0,00 30/04/2017
309 636700 ANTONIUS VITORIANO FERNANDES OFICIAL DO MP ATIVO BELO HORIZONTE - COMARCA; ASSESSORIA JURIDICA DO PROCON-MG 3.285,74 0,00 0,00 0,00 0,00 0,00 3.285,74 361,43 83,85 0,00 445,28 2.840,46 884,00 0,00 30/04/2017
310 413200 ANY PEREIRA SILVA ANALISTA DO MP ATIVO TRÊS PONTAS - COMARCA; TRES PONTAS-PJ-01PJ 9.163,30 916,33 0,00 0,00 0,00 0,00 10.079,63 1.108,76 1.545,49 0,00 2.654,25 7.425,38 884,00 0,00 30/04/2017
311 151401 APARECIDA DE FATIMA MENDES DE ALMEIDA ASSESSOR ATIVO JUIZ DE FORA - COMARCA; JUIZ DE FORA-PJ-SECRETARIA 0,00 0,00 4.383,93 0,00 0,00 0,00 4.383,93 579,47 419,97 0,00 999,44 3.384,49 884,00 0,00 30/04/2017
312 329300 APARECIDA MARIA MELO DE ASSIS OFICIAL DO MP ATIVO BELO HORIZONTE - COMARCA; BH-18PJ DIREITOS HUMANOS-SECRETARIA 7.560,72 1.512,14 0,00 0,00 0,00 0,00 9.072,86 998,01 1.351,22 0,00 2.349,23 6.723,63 884,00 0,00 30/04/2017
313 475300 APARECIDA MARLENE FREIRE ROSA ANALISTA DO MP ATIVO BELO HORIZONTE - COMARCA; BH-02PJ FAMILIA-SECRETARIA 8.874,34 7.986,91 0,00 0,00 0,00 1.854,74 18.715,99 1.854,74 3.767,48 0,00 5.622,22 13.093,77 884,00 0,00 30/04/2017
314 240300 APARECIDA PEREIRA DO NASCIMENTO OFICIAL DO MP ATIVO ITURAMA - COMARCA; ITURAMA-PJ-01PJ 9.461,59 6.623,12 0,00 0,00 0,00 0,00 16.084,71 1.769,32 3.067,37 0,00 4.836,69 11.248,02 908,00 0,00 30/04/2017
315 653000 APARECIDA ROSA DE LIMA ASSESSOR ATIVO BELO HORIZONTE - COMARCA; COORD DE GABINETE DO PGJ 0,00 0,00 4.383,93 0,00 0,00 0,00 4.383,93 579,47 419,97 0,00 999,44 3.384,49 884,00 0,00 30/04/2017
316 354500 APARECIDA VIEIRA DE CARVALHO OFICIAL DO MP ATIVO BELO HORIZONTE - COMARCA; DIVISÃO DE EDUCAÇÃO PARA O CONSUMO 5.572,67 1.114,53 0,00 0,00 0,00 0,00 6.687,20 735,59 767,33 0,00 1.502,92 5.184,28 884,00 0,00 30/04/2017
317 551000 ARACELES BICALHO FELIX ANALISTA DO MP ATIVO MANHUAÇU - COMARCA; MANHUACU-PJ-02PJ 6.334,59 380,08 0,00 0,00 0,00 0,00 6.714,67 738,61 774,06 0,00 1.512,67 5.202,00 884,00 0,00 30/04/2017
318 286200 ARACELI MEDRADO DOS SANTOS LIMA OFICIAL DO MP ATIVO PARACATU - COMARCA; PARACATU-PJ-03PJ 5.226,73 1.045,35 0,00 0,00 0,00 0,00 6.272,08 689,93 665,73 0,00 1.355,66 4.916,42 1.028,00 0,00 30/04/2017
319 189000 ARAHY MARQUES SILVA OFICIAL DO MP ATIVO BELO HORIZONTE - COMARCA; BH-16PJ HABITACAO URBANISMO-GAB 118PJ 5.226,73 1.568,02 0,00 0,00 0,00 0,00 6.794,75 747,42 793,66 0,00 1.541,08 5.253,67 884,00 0,00 30/04/2017
320 112200 ARAQUEM AUGUSTO DE MATOS AGENTE DO MP ATIVO BELO HORIZONTE - COMARCA; COORD ESTADUAL DE DEFESA DA EDUCACAO 5.396,93 4.317,54 0,00 0,00 0,00 1.068,59 10.783,06 1.068,59 1.645,71 0,00 2.714,30 8.068,76 884,00 0,00 30/04/2017
321 280600 ARDUINO FRATTEZI ANALISTA DO MP ATIVO BELO HORIZONTE - COMARCA; CENTRAL DE APOIO TECNICO-SETOR CONTABIL 12.623,91 2.524,78 0,00 0,00 0,00 0,00 15.148,69 1.666,36 2.838,28 0,00 4.504,64 10.644,05 1.489,95 55,55 30/04/2017
322 520201 ARIANE DE FATIMA CARVALHO ALMEIDA RODRIGUES ANALISTA DO MP ATIVO VESPASIANO - COMARCA; VESPASIANO-PJ-04PJ 6.134,81 0,00 0,00 0,00 0,00 0,00 6.134,81 674,83 580,00 0,00 1.254,83 4.879,98 884,00 0,00 30/04/2017
323 537600 ARIELA FREIRE MONTIJO ANALISTA DO MP ATIVO ARCOS - COMARCA; ARCOS-PJ-01PJ 6.334,59 380,08 0,00 0,00 0,00 0,00 6.714,67 738,61 669,78 0,00 1.408,39 5.306,28 1.583,00 0,00 30/04/2017
324 182000 ARILSON ALEXANDRE MARTINS MAGALHAES OFICIAL DO MP ATIVO JOÃO MONLEVADE - COMARCA; JOAO MONLEVADE-PJ-01PJ 10.755,28 4.302,11 0,00 0,00 0,00 0,00 15.057,39 1.656,31 2.711,66 0,00 4.367,97 10.689,42 1.659,48 55,21 30/04/2017
325 511000 ARISLANE CAROLINA DA SILVA ANALISTA DO MP ATIVO CAMPINA VERDE - COMARCA; CAMPINA VERDE-PJ-UNPJ 7.806,95 780,70 0,00 0,00 0,00 0,00 8.587,65 944,64 1.232,47 0,00 2.177,11 6.410,54 884,00 0,00 30/04/2017
326 170000 ARLEY BRITES DA SILVA ASSESSOR ATIVO BELO HORIZONTE - COMARCA; EXTINTA - DIVISÃO DE MATERIAL PERMANENTE 0,00 1.315,18 4.383,93 0,00 0,00 0,00 5.699,11 608,44 368,28 0,00 976,72 4.722,39 1.583,00 0,00 30/04/2017
327 120400 ARLINDO CASSIO DA CRUZ OFICIAL DO MP ATIVO SÃO GONÇALO DO SAPUCAÍ - COMARCA; SAO GONCALO DO SAPUCAI-PJ-01PJ 16.063,25 12.850,61 0,00 0,00 0,00 0,00 28.913,86 3.180,52 6.050,90 0,00 9.231,42 19.682,44 1.131,04 0,00 30/04/2017
328 243700 ARLINDO MARCIO LACERDA OFICIAL DO MP ATIVO CONTAGEM - COMARCA; CONTAGEM-PJ-03PJ 9.163,30 2.748,99 0,00 0,00 0,00 0,00 11.912,29 1.310,35 2.385,40 0,00 3.695,75 8.216,54 884,00 21.233,56 30/04/2017
329 392100 ARNALDO DE ANDRADE OFICIAL DO MP ATIVO DIVINÓPOLIS - COMARCA; DIVINOPOLIS-PJ-02PJ 6.540,78 654,08 0,00 0,00 0,00 0,00 7.194,86 791,43 1.178,68 0,00 1.970,11 5.224,75 1.583,00 13.314,93 30/04/2017
330 642400 ARTANE INARDE DE SIQUEIRA DAMASCENO ANALISTA DO MP ATIVO BELO HORIZONTE - COMARCA; BH-13ª PJ JUÍZO DE TÓXICOS-SECRETARIA 5.396,93 0,00 0,00 0,00 0,00 0,00 5.396,93 593,66 451,54 0,00 1.045,20 4.351,73 1.583,00 0,00 30/04/2017
331 302100 AUGUSTO ROUSSEAU DE CASTRO ANALISTA DO MP ATIVO CATAGUASES - COMARCA; CATAGUASES-PJ-02PJ 13.228,78 2.645,76 0,00 0,00 0,00 0,00 15.874,54 1.746,20 3.015,93 0,00 4.762,13 11.112,41 1.583,00 0,00 30/04/2017
332 540200 AUREA AVELAR OFICIAL DO MP ATIVO BELO HORIZONTE - COMARCA; GRUPO ESP PROM PROC JUST DEF PROB ADM PAT PUB 3.735,01 224,10 0,00 0,00 0,00 0,00 3.959,11 435,50 116,86 0,00 552,36 3.406,75 884,00 0,00 30/04/2017
333 183200 AURELIANO MAGELA DE REZENDE COORDENADOR/OFICIAL ATIVO BELO HORIZONTE - COMARCA; COORD DE GABINETE DO PGJ 11.466,98 5.733,50 0,00 0,00 0,00 0,00 17.200,48 1.639,78 3.409,83 0,00 5.049,61 12.150,87 884,00 0,00 30/04/2017
334 629400 AYESKA DA COSTA VAL MOURA DABIEN OFICIAL DO MP ATIVO BELO HORIZONTE - COMARCA; BH-18PJ VIOLENCIA DOMESTICA-SECRETARIA 3.982,20 0,00 0,00 0,00 0,00 0,00 3.982,20 438,04 176,82 0,00 614,86 3.367,34 884,00 0,00 30/04/2017
335 652800 BARBARA JULIANNE MOREIRA CASTRO ASSESSOR ATIVO BELO HORIZONTE - COMARCA; ASSESS TECNICO-JUR JUNTO AS PROC. DE JUST 0,00 0,00 6.973,61 0,00 0,00 0,00 6.973,61 608,44 1.124,16 0,00 1.732,60 5.241,01 884,00 0,00 30/04/2017
336 546500 BARBARA ZACARONI GOULART OFICIAL DO MP ATIVO BETIM - COMARCA; BETIM-PJ-08PJ 3.735,01 224,10 0,00 0,00 0,00 0,00 3.959,11 435,50 173,74 0,00 609,24 3.349,87 884,00 0,00 30/04/2017
337 316500 BEATRIZ ABILVIA DA SILVA ANALISTA DO MP ATIVO GOVERNADOR VALADARES - COMARCA; GOVERNADOR VALADARES-PJ-07PJ 12.225,81 2.445,16 0,00 0,00 0,00 0,00 14.670,97 1.613,81 2.721,36 0,00 4.335,17 10.335,80 884,00 0,00 30/04/2017
338 311800 BEATRIZ APARECIDA SOARES GANEM OFICIAL DO MP ATIVO ITAMBACURI - COMARCA; ITAMBACURI-PJ-02PJ 8.061,11 2.418,33 0,00 0,00 0,00 0,00 10.479,44 1.152,74 1.539,07 0,00 2.691,81 7.787,63 884,00 0,00 30/04/2017
339 266800 BEATRIZ AUGUSTA VILACA GOMES DE HUBER OFICIAL DO MP ATIVO BELO HORIZONTE - COMARCA; BH-05PJ-JUÍZO SUCESSÕES-SEC 6.753,72 1.350,74 0,00 0,00 0,00 0,00 8.104,46 891,49 1.114,21 0,00 2.005,70 6.098,76 884,00 0,00 30/04/2017
340 235200 BEATRIZ BOTELHO BATISTA OFICIAL DO MP ATIVO BELO HORIZONTE - COMARCA; BH-21PJ TUTELA FUNDACOES-SECRETARIA 7.806,95 2.342,09 0,00 0,00 0,00 0,00 10.149,04 1.116,39 1.614,62 0,00 2.731,01 7.418,03 884,00 0,00 30/04/2017
341 182300 BEATRIZ PAULA SOUSA RAMOS OFICIAL DO MP ATIVO MARIANA - COMARCA; MARIANA-PJ-01PJ 10.755,28 4.302,11 0,00 0,00 5.019,13 0,00 20.076,52 1.656,31 4.091,92 0,00 5.748,23 14.328,29 884,00 0,00 30/04/2017
342 507000 BELCHIOR FRANKLIN AMARAL LEITE ANALISTA DO MP ATIVO BELO HORIZONTE - COMARCA; CENTRAL DE APOIO TECNICO 7.806,95 780,70 0,00 0,00 2.862,55 0,00 11.450,20 944,64 1.863,26 0,00 2.807,90 8.642,30 2.282,00 0,00 30/04/2017
343 345100 BENITO ELIAS RODRIGUES ANALISTA DO MP ATIVO BARBACENA - COMARCA; BARBACENA-PJ-SECRETARIA 11.105,40 2.221,08 0,00 0,00 0,00 0,00 13.326,48 1.465,91 2.392,30 0,00 3.858,21 9.468,27 884,00 0,00 30/04/2017
344 207300 BENITO VIEIRA DOS SANTOS ANALISTA DO MP ATIVO BELO HORIZONTE - COMARCA; COMB CRIMES PRAT POR AG POL MUN-ASSESSORIA 16.063,25 6.425,30 0,00 0,00 0,00 2.473,74 24.962,29 2.473,74 3.785,30 0,00 6.259,04 18.703,25 5.381,71 412,29 30/04/2017
345 480200 BERNADETE NUNES DOS SANTOS ANALISTA DO MP ATIVO GUANHÃES - COMARCA; GUANHAES-PJ-02PJ 8.594,48 1.718,90 0,00 0,00 0,00 0,00 10.313,38 1.134,47 1.654,84 0,00 2.789,31 7.524,07 884,00 0,00 30/04/2017
346 378400 BETANIA FARNESI DE SOUZA E SILVA OFICIAL DO MP ATIVO SETE LAGOAS - COMARCA; SETE LAGOAS-PJ-03PJ 6.540,78 1.962,23 0,00 0,00 0,00 0,00 8.503,01 935,33 1.159,61 0,00 2.094,94 6.408,07 884,00 0,00 30/04/2017
347 387400 BETANIA MENDONCA DE ASSIS ANALISTA DO MP ATIVO BELO HORIZONTE - COMARCA; BH-08PJ JUIZADO ESPECIAL-SECRETARIA 10.416,20 1.041,62 0,00 0,00 0,00 0,00 11.457,82 1.260,36 1.934,94 0,00 3.195,30 8.262,52 884,00 0,00 30/04/2017
348 450300 BIANCA OLIVEIRA DE ALBUQUERQUE ANALISTA DO MP ATIVO BELO HORIZONTE - COMARCA; BH-10PJ EXECUÇÃO PENAL-SECRETARIA 8.594,48 859,45 0,00 0,00 0,00 0,00 9.453,93 1.039,93 1.444,49 0,00 2.484,42 6.969,51 1.583,00 0,00 30/04/2017
349 535400 BIANCA SALOTO ROSSI ANALISTA DO MP ATIVO SANTOS DUMONT - COMARCA; SANTOS DUMONT-PJ-01PJ 6.334,59 380,08 0,00 0,00 0,00 0,00 6.714,67 738,61 774,06 0,00 1.512,67 5.202,00 884,00 0,00 30/04/2017
350 120800 BRAS MARQUES DE SOUZA ANALISTA DO MP ATIVO BELO HORIZONTE - COMARCA; EXTINTA - SUPERINTENDENCIA ADMINISTRATIVA-SAD 20.277,14 16.221,71 0,00 0,00 0,00 0,00 36.498,85 3.351,82 6.432,03 6.027,74 15.811,59 20.687,26 4.540,53 335,18 30/04/2017
351 460900 BRENO CRISTIANO DE SOUZA REZENDE ANALISTA DO MP ATIVO ITAÚNA - COMARCA; ITAUNA-PJ-02PJ 7.200,69 720,07 0,00 0,00 0,00 0,00 7.920,76 871,28 1.069,25 0,00 1.940,53 5.980,23 884,00 0,00 30/04/2017
352 239000 BRENO VENANCIO ROMANINI OFICIAL DO MP ATIVO BELO HORIZONTE - COMARCA; BH-20PJ ORD ECON TRIBUTARIA-SECRETARIA 8.061,11 2.418,33 0,00 0,00 0,00 0,00 10.479,44 1.152,74 1.695,48 0,00 2.848,22 7.631,22 884,00 0,00 30/04/2017
353 202201 BRIGITTE AMARALINA DE CALDAS LIMA OFICIAL DO MP ATIVO NANUQUE - COMARCA; NANUQUE-PJ-03PJ 8.323,51 2.497,05 0,00 0,00 0,00 0,00 10.820,56 1.190,26 1.570,42 0,00 2.760,68 8.059,88 884,00 0,00 30/04/2017
354 642300 BRUNA IZABELITA DE FATIMA OLIVEIRA COSTA OFICIAL DO MP ATIVO PIUMHI - COMARCA; PIUMHI-PJ-02PJ 3.617,27 0,00 0,00 0,00 0,00 0,00 3.617,27 397,90 128,11 0,00 526,01 3.091,26 884,00 0,00 30/04/2017
355 513600 BRUNA KARLA MARTINS CARVALHO ANALISTA DO MP ATIVO GOVERNADOR VALADARES - COMARCA; GOVERNADOR VALADARES-PJ-01PJ 7.806,95 780,70 0,00 0,00 0,00 0,00 8.587,65 944,64 1.232,47 0,00 2.177,11 6.410,54 884,00 0,00 30/04/2017
356 415100 BRUNA MARIA SOARES OLIVEIRA COSTA RAMOS ANALISTA DO MP ATIVO UBÁ - COMARCA; COORD REG BACIA DO RIO PARAIBA DO SUL 9.461,59 946,16 0,00 0,00 0,00 0,00 10.407,75 1.144,85 1.677,94 0,00 2.822,79 7.584,96 884,00 0,00 30/04/2017
357 470000 BRUNA MORAES MARQUES ANALISTA DO MP ATIVO TOMBOS - COMARCA; TOMBOS-PJ-UNPJ 8.874,34 887,43 0,00 0,00 0,00 0,00 9.761,77 1.073,79 1.311,29 0,00 2.385,08 7.376,69 1.583,00 0,00 30/04/2017
358 614700 BRUNA NATTANY DE LIMA OFICIAL DO MP ATIVO MANTENA - COMARCA; MANTENA-PJ-02PJ 3.982,20 0,00 0,00 0,00 0,00 0,00 3.982,20 438,04 176,82 0,00 614,86 3.367,34 884,00 0,00 30/04/2017
359 631800 BRUNA RAPOSO JORGE OFICIAL DO MP ATIVO JUIZ DE FORA - COMARCA; JUIZ DE FORA-PJ-19PJ 3.982,20 0,00 0,00 0,00 1.327,40 0,00 5.309,60 438,04 470,32 0,00 908,36 4.401,24 884,00 0,00 30/04/2017
360 463800 BRUNO ALVES TEIXEIRA ANALISTA DO MP ATIVO UBERLÂNDIA - COMARCA; UBERLANDIA-PJ-04PJ 8.594,48 859,45 0,00 0,00 0,00 0,00 9.453,93 1.039,93 1.444,49 0,00 2.484,42 6.969,51 884,00 0,00 30/04/2017
361 538500 BRUNO AUGUSTO DA SILVA OFICIAL DO MP ATIVO SANTA LUZIA - COMARCA; SANTA LUZIA-PJ-03PJ 4.111,87 246,71 0,00 0,00 0,00 0,00 4.358,58 479,44 236,68 0,00 716,12 3.642,46 2.282,00 0,00 30/04/2017
362 318200 BRUNO BARROS DE SOUZA OFICIAL DO MP ATIVO UBÁ - COMARCA; UBA-PJ-04PJ 7.560,72 1.512,14 0,00 0,00 0,00 0,00 9.072,86 998,01 908,97 0,00 1.906,98 7.165,88 884,00 0,00 30/04/2017
363 459600 BRUNO CASTELAR LUGAO MENDES OFICIAL DO MP ATIVO GOVERNADOR VALADARES - COMARCA; GOVERNADOR VALADARES-PJ-05PJ 5.754,07 575,41 0,00 0,00 0,00 0,00 6.329,48 696,24 679,78 0,00 1.376,02 4.953,46 884,00 0,00 30/04/2017
364 427400 BRUNO CESAR RIBEIRO DE PAIVA ANALISTA DO MP ATIVO BELO HORIZONTE - COMARCA; ASSESS JUR DO CONS SUPERIOR DO MINISTERIO PUB 9.461,59 946,16 0,00 0,00 0,00 0,00 10.407,75 1.144,85 1.677,94 0,00 2.822,79 7.584,96 884,00 0,00 30/04/2017
365 380900 BRUNO CIRILO ANTUNES OFICIAL DO MP ATIVO VARGINHA - COMARCA; VARGINHA-PJ-05PJ 6.334,59 633,46 0,00 0,00 0,00 0,00 6.968,05 766,49 836,07 0,00 1.602,56 5.365,49 884,00 0,00 30/04/2017
366 329000 BRUNO DE MELO REIS ANALISTA DO MP ATIVO PATROCÍNIO - COMARCA; PATROCINIO-PJ-02PJ 12.225,81 3.667,74 0,00 0,00 0,00 0,00 15.893,55 1.748,29 2.968,45 0,00 4.716,74 11.176,81 1.519,74 58,28 30/04/2017
367 601700 BRUNO DIAS JUNQUEIRA PEREIRA ANALISTA DO MP ATIVO BELO HORIZONTE - COMARCA; ASSESS TECNICO-JUR JUNTO AS PROC. DE JUST 6.334,59 380,08 0,00 0,00 2.238,22 0,00 8.952,89 738,61 1.389,57 0,00 2.128,18 6.824,71 884,00 0,00 30/04/2017
368 378300 BRUNO HERDY LOPES DE OLIVEIRA ANALISTA DO MP ATIVO MANTENA - COMARCA; MANTENA-PJ-SECRETARIA 10.416,20 1.041,62 0,00 0,00 0,00 0,00 11.457,82 1.260,36 1.934,94 0,00 3.195,30 8.262,52 884,00 0,00 30/04/2017
369 529700 BRUNO JOSE BUENO DIAS OFICIAL DO MP ATIVO SÃO SEBASTIÃO DO PARAÍSO - COMARCA; SAO SEBASTIAO DO PARAISO-PJ-02PJ 4.111,87 246,71 0,00 0,00 0,00 0,00 4.358,58 479,44 198,63 0,00 678,07 3.680,51 884,00 0,00 30/04/2017
370 350100 BRUNO LAUD SERRANO DOS REIS OFICIAL DO MP ATIVO UBÁ - COMARCA; UBA-PJ-02PJ 6.334,59 1.266,92 0,00 0,00 0,00 0,00 7.601,51 836,17 938,97 0,00 1.775,14 5.826,37 884,00 0,00 30/04/2017
371 373800 BRUNO MARTINO DE ALBUQUERQUE ANALISTA DO MP ATIVO PONTE NOVA - COMARCA; PONTE NOVA-PJ-03PJ 10.416,20 1.041,62 0,00 0,00 0,00 0,00 11.457,82 1.260,36 1.830,67 0,00 3.091,03 8.366,79 884,00 0,00 30/04/2017
372 470400 BRUNO NOVAIS CABRAL ANALISTA DO MP ATIVO MUTUM - COMARCA; MUTUM-PJ-UNPJ 8.594,48 859,45 0,00 0,00 0,00 0,00 9.453,93 1.039,93 1.444,49 0,00 2.484,42 6.969,51 884,00 0,00 30/04/2017
373 648600 BRUNO RIBEIRO E MELO ASSESSOR ATIVO BELO HORIZONTE - COMARCA; DIRETORIA DE RELACOES PUBLICAS E CERIMONIAL 0,00 0,00 4.383,93 0,00 0,00 0,00 4.383,93 579,47 419,97 0,00 999,44 3.384,49 884,00 0,00 30/04/2017
374 369200 BRUNO ROBERTO DIAS DE OLIVEIRA OFICIAL DO MP ATIVO BELO HORIZONTE - COMARCA; BH-22PJ PES COM DEF E IDOSOS 6.753,72 1.350,74 0,00 0,00 0,00 0,00 8.104,46 891,49 1.114,21 0,00 2.005,70 6.098,76 884,00 0,00 30/04/2017
375 547700 BRUNO ROBERTO SOUZA GONCALVES ANALISTA DO MP ATIVO PARACATU - COMARCA; PARACATU-PJ-03PJ 6.334,59 380,08 0,00 0,00 0,00 0,00 6.714,67 738,61 774,06 0,00 1.512,67 5.202,00 1.583,00 0,00 30/04/2017
376 546100 BRUNO SA VIEIRA ANALISTA DO MP ATIVO ERVÁLIA - COMARCA; ERVALIA-PJ-UNPJ 6.334,59 380,08 0,00 0,00 0,00 0,00 6.714,67 738,61 721,92 0,00 1.460,53 5.254,14 884,00 0,00 30/04/2017
377 438200 BRUNO SALES PEREIRA ANALISTA DO MP ATIVO BELO HORIZONTE - COMARCA; CENTRAL DE APOIO TECNICO-SETOR CONTABIL 8.874,34 887,43 0,00 0,00 0,00 0,00 9.761,77 1.073,79 1.467,70 0,00 2.541,49 7.220,28 2.282,00 0,00 30/04/2017
378 537400 BRUNO SANT'ANA CESAR ANALISTA DO MP ATIVO CONTAGEM - COMARCA; CONTAGEM-PJ-19PJ 6.334,59 380,08 0,00 0,00 0,00 0,00 6.714,67 738,61 774,06 0,00 1.512,67 5.202,00 884,00 0,00 30/04/2017
379 405800 CAIO FERNANDO RODRIGUES DE OLIVEIRA ANALISTA DO MP ATIVO BELO HORIZONTE - COMARCA; ASSESS TECNICO-JUR JUNTO AS PROC. DE JUST 9.461,59 946,16 0,00 0,00 0,00 0,00 10.407,75 1.144,85 1.677,94 0,00 2.822,79 7.584,96 884,00 0,00 30/04/2017
380 530000 CAIO GUEDES DE OLIVEIRA ANALISTA DO MP ATIVO DIAMANTINA - COMARCA; DIAMANTINA-PJ-02PJ 6.334,59 380,08 0,00 0,00 0,00 0,00 6.714,67 738,61 721,92 0,00 1.460,53 5.254,14 2.282,00 0,00 30/04/2017
381 491400 CAIO MIRANDA JUNQUEIRA ANALISTA DO MP ATIVO BUENO BRANDAO - COMARCA; BUENO BRANDAO-PJ-UNPJ 7.200,69 720,07 0,00 0,00 0,00 0,00 7.920,76 871,28 1.017,11 0,00 1.888,39 6.032,37 1.583,00 0,00 30/04/2017
382 415800 CAMILA ALVES DA SILVA ANALISTA DO MP ATIVO CAETÉ - COMARCA; CAETE-PJ-01PJ 9.461,59 946,16 0,00 0,00 0,00 0,00 10.407,75 1.144,85 1.677,94 0,00 2.822,79 7.584,96 884,00 0,00 30/04/2017
383 555800 CAMILA CAROLINE ROCHA CHAVES OFICIAL DO MP ATIVO SALINAS - COMARCA; SALINAS-PJ-01PJ 4.111,87 246,71 0,00 0,00 1.452,86 0,00 5.811,44 479,44 596,94 0,00 1.076,38 4.735,06 927,52 0,00 30/04/2017
384 445200 CAMILA CONDE ROCHA ANALISTA DO MP ATIVO CONTAGEM - COMARCA; CONTAGEM-PJ-08PJ 8.594,48 859,45 0,00 0,00 0,00 0,00 9.453,93 1.039,93 1.444,49 0,00 2.484,42 6.969,51 1.583,00 0,00 30/04/2017
385 419900 CAMILA CUNNINGHAM PIMENTA DE PADUA ANALISTA DO MP ATIVO BELO HORIZONTE - COMARCA; ASSESSORIA PSICOSSOCIAL 9.461,59 946,16 0,00 0,00 0,00 0,00 10.407,75 1.144,85 1.677,94 0,00 2.822,79 7.584,96 884,00 0,00 30/04/2017
386 507700 CAMILA ELIZABETH RODRIGUES ANALISTA DO MP ATIVO BELO HORIZONTE - COMARCA; BH-02PJ FAMILIA-SECRETARIA 7.806,95 780,70 0,00 0,00 0,00 0,00 8.587,65 944,64 1.232,47 0,00 2.177,11 6.410,54 884,00 0,00 30/04/2017
387 372700 CAMILA FONSECA LIMONGE ANALISTA DO MP ATIVO BETIM - COMARCA; BETIM-PJ-12PJ 10.416,20 1.041,62 0,00 0,00 0,00 0,00 11.457,82 1.260,36 1.934,94 0,00 3.195,30 8.262,52 1.583,00 0,00 30/04/2017
388 621300 CAMILA GOLFETO DE SOUSA VALENTE OFICIAL DO MP ATIVO ESPERA FELIZ - COMARCA; ESPERA FELIZ-PJ-UNPJ 3.982,20 0,00 0,00 0,00 0,00 0,00 3.982,20 438,04 119,95 0,00 557,99 3.424,21 1.947,80 0,00 30/04/2017
389 409800 CAMILA GONCALVES COSTA RIBEIRO ANALISTA DO MP ATIVO INHAPIM - COMARCA; INHAPIM-PJ-02PJ 8.594,48 859,45 0,00 0,00 0,00 0,00 9.453,93 1.039,93 1.392,35 0,00 2.432,28 7.021,65 1.583,00 0,00 30/04/2017
390 335000 CAMILA GONTIJO DE PAIVA ANALISTA DO MP ATIVO BELO HORIZONTE - COMARCA; COORD DE CONTROLE DA CONSTITUCIONALIDADE 11.840,34 2.368,07 0,00 0,00 0,00 0,00 14.208,41 1.562,93 2.503,87 0,00 4.066,80 10.141,61 1.583,00 0,00 30/04/2017
391 547800 CAMILA MATTARELLI DE ABREU E SILVA ANALISTA DO MP ATIVO BELO HORIZONTE - COMARCA; COORD DE INCLUSAO E MOBILIZACAO SOCIAIS 6.334,59 380,08 0,00 0,00 0,00 0,00 6.714,67 738,61 774,06 0,00 1.512,67 5.202,00 884,00 0,00 30/04/2017
392 430000 CANDIDA MARINA COSTA ANALISTA DO MP ATIVO BELO HORIZONTE - COMARCA; DIVISAO DE DOCUMENTACAO JURIDICA 9.461,59 946,16 0,00 0,00 3.469,25 0,00 13.877,00 1.144,85 2.631,98 0,00 3.776,83 10.100,17 884,00 0,00 30/04/2017
393 614300 CARINA CORTIELHA OFICIAL DO MP ATIVO BELO HORIZONTE - COMARCA; BH-23PJ CIVEL-SEC EXP CIVEIS 3.617,27 0,00 0,00 0,00 0,00 0,00 3.617,27 397,90 128,11 0,00 526,01 3.091,26 884,00 0,00 30/04/2017
394 380400 CARINA DIAS FACANHA DE SOUZA ANALISTA DO MP ATIVO SANTA RITA DO SAPUCAÍ - COMARCA; SANTA RITA DO SAPUCAI-PJ-SECRETARIA 10.416,20 1.041,62 0,00 0,00 0,00 0,00 11.457,82 1.260,36 1.934,94 0,00 3.195,30 8.262,52 1.583,00 0,00 30/04/2017
395 255000 CARLA ADRIANA DE MENEZES OFICIAL DO MP ATIVO BELO HORIZONTE - COMARCA; CENT DE APOIO TEC-SETOR DEF,IDOSO E INFANC 8.061,11 1.612,22 0,00 0,00 0,00 0,00 9.673,33 1.064,07 1.498,19 0,00 2.562,26 7.111,07 884,00 0,00 30/04/2017
396 425100 CARLA ADRIANA DINIZ AMARAL OFICIAL DO MP ATIVO CONTAGEM - COMARCA; CONTAGEM-PJ-08PJ 6.334,59 633,46 0,00 0,00 0,00 0,00 6.968,05 766,49 783,93 0,00 1.550,42 5.417,63 884,00 0,00 30/04/2017
397 508100 CARLA ALESSANDRA FONSECA ANALISTA DO MP ATIVO BELO HORIZONTE - COMARCA; CAO-ORDEM ECONOMICA E TRIBUTARIA-SECRETARIA 7.806,95 780,70 0,00 0,00 0,00 0,00 8.587,65 944,64 1.232,47 0,00 2.177,11 6.410,54 884,00 0,00 30/04/2017
398 607100 CARLA ANGELICA DIAS MIRANDA OFICIAL DO MP ATIVO JABOTICATUBAS - COMARCA; JABOTICATUBAS-PJ-UNPJ 4.111,87 246,71 0,00 0,00 0,00 0,00 4.358,58 479,44 141,76 0,00 621,20 3.737,38 884,00 0,00 30/04/2017
399 351500 CARLA APARECIDA MENDES RAMIRIO OFICIAL DO MP ATIVO PASSOS - COMARCA; PASSOS-PJ-01PJ 6.753,72 1.350,74 0,00 0,00 0,00 0,00 8.104,46 891,49 1.062,07 0,00 1.953,56 6.150,90 884,00 0,00 30/04/2017
400 206200 CARLA BORGES DA COSTA COORDENADOR/ANALISTA ATIVO BELO HORIZONTE - COMARCA; DIRETORIA DE PROJETOS DE EDIFICACOES 16.063,25 10.325,04 0,00 0,00 0,00 0,00 26.388,29 2.650,44 5.658,55 0,00 8.308,99 18.079,30 5.106,13 387,03 30/04/2017
401 442800 CARLA GONCALVES COSTA SOALHEIRO ANALISTA DO MP ATIVO GOVERNADOR VALADARES - COMARCA; GOVERNADOR VALADARES-PJ-12PJ 8.594,48 859,45 0,00 0,00 0,00 0,00 9.453,93 1.039,93 1.392,35 0,00 2.432,28 7.021,65 2.282,00 0,00 30/04/2017
402 321500 CARLA GONCALVES MASSOTE OFICIAL DO MP ATIVO CAMPO BELO - COMARCA; CAMPO BELO-PJ-01PJ 7.560,72 1.512,14 0,00 0,00 0,00 0,00 9.072,86 998,01 1.351,22 0,00 2.349,23 6.723,63 884,00 0,00 30/04/2017
403 429200 CARLA HAUTEQUESTT BECHARA COORDENADOR/ANALISTA ATIVO BELO HORIZONTE - COMARCA; DIRET DE INFORMACAO E CONHECIMENTO-DINC/CEAF 9.461,59 3.239,56 0,00 0,00 4.233,72 0,00 16.934,87 1.144,85 3.472,90 0,00 4.617,75 12.317,12 884,00 0,00 30/04/2017
404 247500 CARLA MATILDE GUIMARAES DE OLIVEIRA OFICIAL DO MP ATIVO ITAJUBA - COMARCA; ITAJUBA-PJ-02PJ 8.061,11 2.418,33 0,00 0,00 0,00 0,00 10.479,44 1.152,74 1.643,35 0,00 2.796,09 7.683,35 884,00 0,00 30/04/2017
405 226100 CARLA MERLI DA CONCEICAO ANALISTA DO MP ATIVO BELO HORIZONTE - COMARCA; CENTRAL DE APOIO TECNICO-SETOR CONTABIL 16.063,25 4.818,98 0,00 0,00 0,00 0,00 20.882,23 2.297,05 4.189,43 0,00 6.486,48 14.395,75 5.895,74 459,41 30/04/2017
406 181401 CARLO MICHEL GAUDENSI COELHO ANALISTA DO MP ATIVO BELO HORIZONTE - COMARCA; BH-08PJ JUIZADO ESPECIAL-SECRETARIA 9.163,30 2.748,99 0,00 0,00 0,00 0,00 11.912,29 1.310,35 2.046,17 0,00 3.356,52 8.555,77 884,00 0,00 30/04/2017
407 634000 CARLOS ALBERTO AMORMINO TRIGUEIRO ANALISTA DO MP ATIVO BELO HORIZONTE - COMARCA; DIRET DE APOIO AS PROCURADORIAS DE JUSTICA 5.061,97 0,00 0,00 0,00 0,00 0,00 5.061,97 556,82 334,87 0,00 891,69 4.170,28 1.583,00 0,00 30/04/2017
408 637900 CARLOS ALBERTO DE MOURA OFICIAL DO MP ATIVO SETE LAGOAS - COMARCA; SETE LAGOAS-PJ-SECRETARIA 3.285,74 0,00 0,00 0,00 0,00 0,00 3.285,74 361,43 62,30 0,00 423,73 2.862,01 1.583,00 0,00 30/04/2017
409 638700 CARLOS ALBERTO FERREIRA BRAGA ANALISTA DO MP ATIVO RIBEIRÃO DAS NEVES - COMARCA; RIBEIRAO DAS NEVES-PJ-11PJ 5.061,97 0,00 0,00 0,00 1.687,32 0,00 6.749,29 556,82 729,29 0,00 1.286,11 5.463,18 1.583,00 0,00 30/04/2017
410 375801 CARLOS ALBERTO ROCHA ANALISTA DO MP ATIVO ELOI MENDES - COMARCA; ELOI MENDES-PJ-SECRETARIA 6.973,61 418,42 0,00 0,00 0,00 0,00 7.392,03 813,12 939,84 0,00 1.752,96 5.639,07 884,00 0,00 30/04/2017
411 462800 CARLOS ANDREI SOARES FAGUNDES ANALISTA DO MP ATIVO MONTES CLAROS - COMARCA; MONTES CLAROS-PJ-09PJ 8.594,48 859,45 0,00 0,00 0,00 0,00 9.453,93 1.039,93 1.392,35 0,00 2.432,28 7.021,65 1.583,00 0,00 30/04/2017
412 370300 CARLOS AUGUSTO BUENO DIAS ASSESSOR ATIVO BELO HORIZONTE - COMARCA; SUPERINTENDÊNCIA DE ENGENHARIA E ARQUITETURA 0,00 0,00 8.874,34 0,00 0,00 0,00 8.874,34 608,44 1.080,74 0,00 1.689,18 7.185,16 884,00 0,00 30/04/2017
413 505100 CARLOS CEZAR CARVALHO ANALISTA DO MP ATIVO RIBEIRÃO DAS NEVES - COMARCA; RIBEIRAO DAS NEVES-PJ-04PJ 7.200,69 2.160,21 0,00 0,00 0,00 0,00 9.360,90 1.029,70 1.317,45 0,00 2.347,15 7.013,75 884,00 0,00 30/04/2017
414 195900 CARLOS DE SOUZA FERREIRA OFICIAL DO MP ATIVO COROMANDEL - COMARCA; COROMANDEL-PJ-UNPJ 8.594,48 6.016,14 0,00 0,00 4.870,21 0,00 19.480,83 1.607,17 3.993,76 0,00 5.600,93 13.879,90 884,00 0,00 30/04/2017
415 196800 CARLOS EDUARDO DE OLIVEIRA MARINHO OFICIAL DO MP ATIVO ALPINÓPOLIS - COMARCA; ALPINOPOLIS-PJ-UNPJ 11.105,40 5.552,70 0,00 0,00 0,00 0,00 16.658,10 1.832,39 3.155,57 0,00 4.987,96 11.670,14 3.549,30 244,32 30/04/2017
416 650800 CARLOS EDUARDO NIZA DA SILVA OFICIAL DO MP ATIVO IGARAPÉ - COMARCA; IGARAPE-PJ-SECRETARIA 3.182,15 0,00 0,00 0,00 0,00 0,00 3.182,15 350,04 55,39 0,00 405,43 2.776,72 884,00 0,00 30/04/2017
417 491800 CARLOS EDUARDO ROMAN OFICIAL DO MP ATIVO BARBACENA - COMARCA; BARBACENA-PJ-09PJ 5.572,67 1.114,53 0,00 0,00 0,00 0,00 6.687,20 735,59 767,33 0,00 1.502,92 5.184,28 884,00 0,00 30/04/2017
418 299300 CARLOS HENRIQUE BICALHO ANALISTA DO MP ATIVO BELO HORIZONTE - COMARCA; BH-17PJ PATRIMONIO PUBLICO-SECRETARIA 12.623,91 3.787,17 0,00 0,00 5.470,36 0,00 21.881,44 1.805,22 4.651,60 0,00 6.456,82 15.424,62 884,00 0,00 30/04/2017
419 205100 CARLOS HENRIQUE ESTEVES OFICIAL DO MP ATIVO ITAMBACURI - COMARCA; ITAMBACURI-PJ-01PJ 11.105,40 3.331,62 0,00 0,00 0,00 0,00 14.437,02 1.588,07 2.611,96 0,00 4.200,03 10.236,99 884,00 0,00 30/04/2017
420 351600 CARLOS HENRIQUE FELICIO DA FONSECA OFICIAL DO MP ATIVO JUIZ DE FORA - COMARCA; JUIZ DE FORA-PJ-21PJ 7.200,69 2.160,21 0,00 0,00 0,00 0,00 9.360,90 1.108,91 1.611,82 0,00 2.720,73 6.640,17 1.200,83 989,13 30/04/2017
421 85400 CARLOS JOSE VIEIRA OFICIAL DO MP ATIVO BELO HORIZONTE - COMARCA; DIRETORIA DO COLEGIO E DA CAMARA DE PJ 20.277,14 14.194,00 0,00 0,00 0,00 0,00 34.471,14 3.351,82 6.588,44 4.000,03 13.940,29 20.530,85 5.759,38 446,91 30/04/2017
422 229100 CARLOS MERCES DE OLIVEIRA ANALISTA DO MP ATIVO BELO HORIZONTE - COMARCA; CENTRAL DE APOIO TECN-SETOR DE MEIO AMBIENTE 14.863,02 4.458,91 0,00 0,00 0,00 0,00 19.321,93 2.125,41 2.964,78 0,00 5.090,19 14.231,74 884,00 0,00 30/04/2017
423 538300 CARLOS RANGEL SILVA DE MELO ANALISTA DO MP ATIVO BELO HORIZONTE - COMARCA; DIVISAO DE CONTROLE IMOBILIARIO 5.754,07 1.150,81 0,00 0,00 0,00 0,00 6.904,88 759,54 820,61 0,00 1.580,15 5.324,73 884,00 0,00 30/04/2017
424 265100 CARLOS REIFF MIRANDA ANALISTA DO MP ATIVO BELO HORIZONTE - COMARCA; BH-19PJ SAUDE-SECRETARIA 150PJ 12.225,81 2.445,16 0,00 0,00 0,00 0,00 14.670,97 1.613,81 2.721,36 0,00 4.335,17 10.335,80 884,00 0,00 30/04/2017
425 305400 CARLOS ROCHA DE SOUZA OFICIAL DO MP ATIVO MONTALVÂNIA - COMARCA; MONTALVANIA-PJ-SECRETARIA 5.226,73 1.045,35 0,00 0,00 0,00 0,00 6.272,08 689,93 457,18 0,00 1.147,11 5.124,97 2.491,79 0,00 30/04/2017
426 365100 CARLOS WAGNER SANDER MORAIS COORDENADOR/OFICIAL ATIVO BELO HORIZONTE - COMARCA; DIRETORIA DE ADMINISTRACAO FINANCEIRA 0,00 2.293,40 11.466,98 0,00 0,00 0,00 13.760,38 950,49 2.653,36 0,00 3.603,85 10.156,53 884,00 0,00 30/04/2017
427 399900 CARMELITA EVANGELISTA DE SOUZA OFICIAL DO MP ATIVO JOÃO PINHEIRO - COMARCA; JOAO PINHEIRO-PJ-01PJ 6.134,81 613,48 0,00 0,00 0,00 0,00 6.748,29 742,31 782,28 0,00 1.524,59 5.223,70 884,00 0,00 30/04/2017
428 390400 CARMEM APARECIDA ANTUNES RESENDE OFICIAL DO MP ATIVO IGARAPÉ - COMARCA; IGARAPE-PJ-01PJ 6.334,59 5.701,14 0,00 0,00 0,00 1.323,93 13.359,66 1.323,93 2.388,33 0,00 3.712,26 9.647,40 884,00 0,00 30/04/2017
429 202000 CARMEN LUCIA MARIZ DE MACEDO OFICIAL DO MP ATIVO BELO HORIZONTE - COMARCA; EXTINTA - DIVISÃO DE APOIO À LICITAÇÃO 10.755,28 5.377,64 0,00 0,00 0,00 0,00 16.132,92 1.774,62 2.974,90 0,00 4.749,52 11.383,40 884,00 0,00 30/04/2017
430 228500 CAROLINA CHIARELLA DOS SANTOS RIBEIRO OFICIAL DO MP ATIVO BELO HORIZONTE - COMARCA; GAECO - SECRETARIA 6.334,59 1.900,38 0,00 0,00 0,00 0,00 8.234,97 905,85 1.041,87 0,00 1.947,72 6.287,25 1.583,00 0,00 30/04/2017
431 446500 CAROLINA COSTA VAL RODRIGUES ANALISTA DO MP ATIVO CONTAGEM - COMARCA; CONTAGEM-PJ-05PJ 9.163,30 1.832,66 0,00 0,00 0,00 0,00 10.995,96 1.209,56 1.821,90 0,00 3.031,46 7.964,50 884,00 0,00 30/04/2017
432 603501 CAROLINA DOMINGOS BRANDAO ANALISTA DO MP ATIVO CARATINGA - COMARCA; CARATINGA-PJ-01PJ 6.334,59 380,08 0,00 0,00 0,00 0,00 6.714,67 738,61 774,06 0,00 1.512,67 5.202,00 884,00 0,00 30/04/2017
433 404300 CAROLINA DOS SANTOS VIEIRA ANALISTA DO MP ATIVO BELO HORIZONTE - COMARCA; BH-08PJ JUIZADO ESPECIAL-SECRETARIA 10.416,20 1.041,62 0,00 0,00 0,00 0,00 11.457,82 1.260,36 1.830,67 0,00 3.091,03 8.366,79 1.583,00 0,00 30/04/2017
434 551200 CAROLINA LOPES ARANTES MASCARENHAS ANALISTA DO MP ATIVO BELO HORIZONTE - COMARCA; EXTINTA - COORD DEFESA DO DIREITO DE FAMILIA 6.334,59 380,08 0,00 0,00 0,00 0,00 6.714,67 738,61 669,78 0,00 1.408,39 5.306,28 2.328,60 0,00 30/04/2017
435 622600 CAROLINA LOREDO LOPES OFICIAL DO MP ATIVO RIBEIRÃO DAS NEVES - COMARCA; RIBEIRAO DAS NEVES-PJ-12PJ 3.617,27 0,00 0,00 0,00 0,00 0,00 3.617,27 418,37 152,94 0,00 571,31 3.045,96 884,00 186,06 30/04/2017
436 382200 CAROLINA MENDES CHAVES LIN ANALISTA DO MP ATIVO BELO HORIZONTE - COMARCA; BH-12PJ JUIZO CRIMINAL-GAB 088PJ 8.061,11 806,11 0,00 0,00 0,00 0,00 8.867,22 975,39 1.248,76 0,00 2.224,15 6.643,07 1.583,00 0,00 30/04/2017
437 461900 CAROLINA MURTA TEIXEIRA DIAS ASSESSOR/ANALISTA ATIVO BELO HORIZONTE - COMARCA; PROCURADOR-GERAL DE JUSTICA- GABINETE 0,00 1.075,53 10.755,28 0,00 0,00 0,00 11.830,81 1.039,93 2.098,13 0,00 3.138,06 8.692,75 884,00 0,00 30/04/2017
438 509600 CAROLINA PINTO DE OLIVEIRA SOUZA ANALISTA DO MP ATIVO MURIAÉ - COMARCA; MURIAE-PJ-01PJ 7.806,95 780,70 0,00 0,00 0,00 0,00 8.587,65 944,64 1.180,33 0,00 2.124,97 6.462,68 2.631,00 0,00 30/04/2017
439 629100 CAROLINA RODRIGUES AMARAL ANALISTA DO MP ATIVO BELO HORIZONTE - COMARCA; PROC. JUSTICA DIR. DIFUSOS E COLETIVOS-SEC 6.134,81 0,00 0,00 0,00 0,00 0,00 6.134,81 674,83 632,13 0,00 1.306,96 4.827,85 884,00 0,00 30/04/2017
440 502600 CAROLINA RODRIGUES RUBEN ANALISTA DO MP ATIVO BELO HORIZONTE - COMARCA; EXTINTA-DEF DIREIT HUM-COMB A VIOL DOMEST-18 7.806,95 780,70 0,00 0,00 0,00 0,00 8.587,65 944,64 1.232,47 0,00 2.177,11 6.410,54 884,00 0,00 30/04/2017
441 529600 CAROLINA VAZ DE MELO MAMBRINI ANALISTA DO MP ATIVO MINAS NOVAS - COMARCA; MINAS NOVAS-PJ-UNPJ 6.334,59 380,08 0,00 0,00 0,00 0,00 6.714,67 738,61 774,06 0,00 1.512,67 5.202,00 884,00 0,00 30/04/2017
442 619100 CAROLINA ZAKHIA NARDELLI RODRIGUES ANALISTA DO MP ATIVO NEPOMUCENO - COMARCA; NEPOMUCENO-PJ-UNPJ 6.134,81 0,00 0,00 0,00 0,00 0,00 6.134,81 674,83 632,13 0,00 1.306,96 4.827,85 884,00 0,00 30/04/2017
443 517600 CAROLINE ALVES DE OLIVEIRA MULLER ANALISTA DO MP ATIVO VISCONDE DO RIO BRANCO - COMARCA; VISCONDE DO RIO BRANCO-PJ-01PJ 7.806,95 780,70 0,00 0,00 0,00 0,00 8.587,65 944,64 1.180,33 0,00 2.124,97 6.462,68 1.583,00 0,00 30/04/2017
444 373200 CAROLINE ANTUNES RIBEIRO OFICIAL DO MP ATIVO JACUI - COMARCA; JACUI-PJ-UNPJ 6.540,78 654,08 0,00 0,00 0,00 0,00 7.194,86 791,43 735,17 0,00 1.526,60 5.668,26 884,00 0,00 30/04/2017
445 556800 CAROLINE DE SOUZA CARDOSO OFICIAL DO MP ATIVO BRASÍLIA DE MINAS - COMARCA; BRASILIA DE MINAS-PJ-02PJ 3.735,01 224,10 0,00 0,00 0,00 0,00 3.959,11 435,50 173,74 0,00 609,24 3.349,87 884,00 0,00 30/04/2017
446 499400 CAROLINE MARQUES DE LOURDES MARZULLO OFICIAL DO MP ATIVO JUIZ DE FORA - COMARCA; JUIZ DE FORA-PJ-08PJ 5.572,67 557,27 0,00 0,00 0,00 0,00 6.129,94 674,29 630,94 0,00 1.305,23 4.824,71 2.631,00 0,00 30/04/2017
447 616800 CAROLINE MONTEIRO DE BARROS ANALISTA DO MP ATIVO CONTAGEM - COMARCA; CONTAGEM-PJ-11PJ 6.134,81 0,00 0,00 0,00 0,00 0,00 6.134,81 674,83 632,13 0,00 1.306,96 4.827,85 884,00 0,00 30/04/2017
448 618100 CAROLINE VASCONCELOS COSTA LANZA ANALISTA DO MP ATIVO PARAOPEBA - COMARCA; PARAOPEBA-PJ-UNPJ 6.134,81 0,00 0,00 0,00 0,00 0,00 6.134,81 674,83 632,13 0,00 1.306,96 4.827,85 2.375,20 0,00 30/04/2017
449 604000 CASSIA APARECIDA DA SILVA OFICIAL DO MP ATIVO CANÁPOLIS - COMARCA; CANAPOLIS-PJ-UNPJ 3.735,01 224,10 0,00 0,00 0,00 0,00 3.959,11 435,50 173,74 0,00 609,24 3.349,87 884,00 0,00 30/04/2017
450 268800 CASSIA BEATRIZ TEIXEIRA OFICIAL DO MP ATIVO BELO HORIZONTE - COMARCA; SECRETARIA PROCESSOS DISCIPES ADMINISTRATIVOS 9.163,30 1.832,66 0,00 0,00 0,00 0,00 10.995,96 1.209,56 1.821,90 0,00 3.031,46 7.964,50 884,00 0,00 30/04/2017
451 500000 CASSIA DE OLIVEIRA COSTA VIANA ANALISTA DO MP ATIVO SETE LAGOAS - COMARCA; SETE LAGOAS-PJ-09PJ 7.806,95 3.122,79 0,00 0,00 0,00 0,00 10.929,74 1.202,27 1.805,69 0,00 3.007,96 7.921,78 884,00 0,00 30/04/2017
452 368800 CASSIA LUISA BATISTA MENDONCA WEBER OFICIAL DO MP ATIVO BELO HORIZONTE - COMARCA; DIVISÃO DE EDUCAÇÃO PARA O CONSUMO 5.572,67 1.114,53 0,00 0,00 0,00 0,00 6.687,20 735,59 767,33 0,00 1.502,92 5.184,28 884,00 0,00 30/04/2017
453 622200 CASSIA VAZ DE AZEVEDO LISBOA MARZANO ASSESSOR ATIVO BELO HORIZONTE - COMARCA; CGMP-SECRETARIA DA CORREGEDORIA-GERAL DO MP 0,00 0,00 2.625,65 0,00 0,00 0,00 2.625,65 386,06 48,81 0,00 434,87 2.190,78 2.282,00 0,00 30/04/2017
454 121000 CASSIO HENRIQUE AFONSO DA SILVA OFICIAL DO MP ATIVO BELO HORIZONTE - COMARCA; ASSESS TECNICA DA CORREGEDORIA-GERAL DO MP 13.228,78 9.260,15 0,00 0,00 0,00 0,00 22.488,93 2.473,78 4.530,53 0,00 7.004,31 15.484,62 5.381,79 412,30 30/04/2017
455 121100 CASSIO MOREIRA DE MIRANDA AGENTE DO MP ATIVO BELO HORIZONTE - COMARCA; DIVISÃO DE FISCALIZAÇÃO DAS RELAÇÕES DE CONSU 3.735,01 2.988,00 0,00 0,00 0,00 0,00 6.723,01 739,53 362,68 0,00 1.102,21 5.620,80 884,00 1.233,56 30/04/2017
456 512001 CATARINA NATALINO CALIXTO ASSESSOR/ANALISTA ATIVO BELO HORIZONTE - COMARCA; EXTINTA - DIVISÃO DE APOIO À LICITAÇÃO 0,00 0,00 8.874,34 0,00 0,00 0,00 8.874,34 674,83 1.485,61 0,00 2.160,44 6.713,90 884,00 364,01 30/04/2017
457 606200 CATARINE DE SIQUEIRA DE QUADROS ANALISTA DO MP ATIVO RIBEIRÃO DAS NEVES - COMARCA; RIBEIRAO DAS NEVES-PJ-09PJ 5.754,07 345,24 0,00 0,00 0,00 0,00 6.099,31 670,92 571,31 0,00 1.242,23 4.857,08 1.583,00 0,00 30/04/2017
458 71800 CATIA EFIGENIA CARNEIRO DE FREITAS OFICIAL DO MP ATIVO BELO HORIZONTE - COMARCA; ASSESSORIA JURIDICO-ADMINISTRATIVA 23.365,79 16.356,06 0,00 0,00 0,00 3.351,82 43.073,67 3.351,82 7.458,06 9.250,74 20.060,62 23.013,05 884,00 0,00 30/04/2017
459 622300 CECILIA APARECIDA PEREIRA ASSUNCAO OFICIAL DO MP ATIVO TRÊS PONTAS - COMARCA; TRES PONTAS-PJ-SECRETARIA 3.982,20 0,00 0,00 0,00 0,00 0,00 3.982,20 438,04 148,39 0,00 586,43 3.395,77 1.583,00 0,00 30/04/2017
460 538000 CECILIA FONTES DE MATOS PIMENTEL ANALISTA DO MP ATIVO PALMA - COMARCA; PALMA-PJ-SECRETARIA 6.334,59 380,08 0,00 0,00 0,00 0,00 6.714,67 738,61 774,06 0,00 1.512,67 5.202,00 1.583,00 0,00 30/04/2017
461 261300 CECILIO ANTONIO CAMPOS DOS REIS ANALISTA DO MP ATIVO BELO HORIZONTE - COMARCA; AUDITORIA INTERNA 13.034,76 3.910,43 0,00 0,00 0,00 0,00 16.945,19 1.863,97 3.277,98 0,00 5.141,95 11.803,24 5.628,65 434,93 30/04/2017
462 386400 CEFAS AMORELI DE FIGUEIREDO OFICIAL DO MP ATIVO CABO VERDE - COMARCA; CABO VERDE-PJ-SECRETARIA 5.226,73 522,67 0,00 0,00 0,00 0,00 5.749,40 632,43 537,81 0,00 1.170,24 4.579,16 884,00 0,00 30/04/2017
463 149000 CELIA MAGALHAES CLAROS SOSSI OFICIAL DO MP ATIVO GOVERNADOR VALADARES - COMARCA; GOVERNADOR VALADARES-PJ-01PJ 12.225,81 6.112,90 0,00 0,00 0,00 0,00 18.338,71 2.017,26 3.619,04 0,00 5.636,30 12.702,41 5.285,29 403,45 30/04/2017
464 113100 CELIA MARIA ALVES PINTO OFICIAL DO MP ATIVO BELO HORIZONTE - COMARCA; DIVISÃO DE EDUCAÇÃO PARA O CONSUMO 8.323,51 5.826,45 0,00 0,00 0,00 1.556,50 15.706,46 1.556,50 3.021,88 0,00 4.578,38 11.128,08 884,00 0,00 30/04/2017
465 421000 CELINA BENEDITA DE SOUZA ALMEIDA OFICIAL DO MP ATIVO CAMBUÍ - COMARCA; CAMBUI-PJ-01PJ 6.334,59 3.167,30 0,00 0,00 0,00 0,00 9.501,89 1.045,21 1.404,09 0,00 2.449,30 7.052,59 884,00 0,00 30/04/2017
466 252900 CELIO DE MELO CASTOR ANALISTA DO MP ATIVO BELO HORIZONTE - COMARCA; BH-20PJ ORD ECON TRIBUTARIA-SECRETARIA 13.034,76 2.606,95 0,00 0,00 0,00 0,00 15.641,71 1.720,59 2.958,95 0,00 4.679,54 10.962,17 884,00 0,00 30/04/2017
467 395700 CELIO FERREIRA LIMA OFICIAL DO MP ATIVO CONTAGEM - COMARCA; CONTAGEM-PJ-07PJ 6.334,59 633,46 0,00 0,00 0,00 0,00 6.968,05 766,49 783,93 0,00 1.550,42 5.417,63 1.583,00 0,00 30/04/2017
468 281300 CELMA REGINA PEREIRA SANTOS ANALISTA DO MP ATIVO BELO HORIZONTE - COMARCA; DIVISAO DE DOCUMENTACAO JURIDICA 13.228,78 2.645,76 0,00 0,00 0,00 0,00 15.874,54 1.746,20 3.015,93 0,00 4.762,13 11.112,41 884,00 0,00 30/04/2017
469 535600 CELSO MEDEIROS DE PAIVA OFICIAL DO MP ATIVO RIO PRETO - COMARCA; RIO PRETO-PJ-SECRETARIA 3.735,01 224,10 0,00 0,00 0,00 0,00 3.959,11 435,50 145,30 0,00 580,80 3.378,31 884,00 0,00 30/04/2017
470 367000 CESAR NARVAES DE AVELAR COORDENADOR/OFICIAL ATIVO BELO HORIZONTE - COMARCA; DIVISAO DE MEMORIA INSTITUCIONAL 0,00 2.017,54 10.087,71 0,00 0,00 0,00 12.105,25 891,49 2.214,42 0,00 3.105,91 8.999,34 884,00 0,00 30/04/2017
471 226500 CESAR SILVEIRA BARROUIN OFICIAL DO MP ATIVO BELO HORIZONTE - COMARCA; DIRETORIA DE ADMINISTRACAO FINANCEIRA 9.163,30 2.748,99 0,00 0,00 0,00 0,00 11.912,29 1.310,35 2.046,17 0,00 3.356,52 8.555,77 884,00 0,00 30/04/2017
472 121400 CEZAR MORENO CONCEICAO TAVARES OFICIAL DO MP ATIVO BELO HORIZONTE - COMARCA; SUPERINTENDENCIA DE RECURSOS HUMANOS 12.225,81 8.558,06 0,00 0,00 0,00 0,00 20.783,87 2.286,23 4.217,49 0,00 6.503,72 14.280,15 4.209,42 304,83 30/04/2017
473 243800 CHARLES MARTINS MUNIZ OFICIAL DO MP ATIVO BELO HORIZONTE - COMARCA; LAB TECNOLOGIA CONTRA LAVAGEM DINHEIRO 9.163,30 2.748,99 0,00 0,00 0,00 0,00 11.912,29 1.310,35 2.046,17 0,00 3.356,52 8.555,77 884,00 0,00 30/04/2017
474 193500 CHARLIN CESAR KOURLY OFICIAL DO MP ATIVO ARAGUARI - COMARCA; ARAGUARI-PJ-07PJ 11.105,40 3.331,62 0,00 0,00 0,00 0,00 14.437,02 1.588,07 2.664,10 0,00 4.252,17 10.184,85 884,00 0,00 30/04/2017
475 385500 CHILLEN PEIXOTO DE MOURA OFICIAL DO MP ATIVO BELO HORIZONTE - COMARCA; DIVISÃO DE FISCALIZAÇÃO DAS RELAÇÕES DE CONSU 6.334,59 633,46 0,00 0,00 0,00 0,00 6.968,05 766,49 1.175,30 0,00 1.941,79 5.026,26 884,00 1.233,56 30/04/2017
476 534500 CHRISTIAN DOUGLAS BRITO RUAS OFICIAL DO MP ATIVO SÃO JOÃO DA PONTE - COMARCA; SAO JOAO DA PONTE-PJ-SECRETARIA 4.111,87 246,71 0,00 0,00 0,00 0,00 4.358,58 479,44 236,68 0,00 716,12 3.642,46 1.221,92 0,00 30/04/2017
477 370600 CHRISTIAN KARINE FELIX PRATES ASSESSOR ATIVO BELO HORIZONTE - COMARCA; ASSESS ESPECIAL DO PGJ ATUACAO JUNTO A PGJAI 0,00 0,00 8.874,34 0,00 0,00 0,00 8.874,34 608,44 1.646,86 0,00 2.255,30 6.619,04 884,00 0,00 30/04/2017
478 435800 CHRISTIANA BAHIA ANDRADE PINA ANALISTA DO MP ATIVO BELO HORIZONTE - COMARCA; LAB TECNOLOGIA CONTRA LAVAGEM DINHEIRO 9.461,59 946,16 0,00 0,00 0,00 0,00 10.407,75 1.144,85 1.677,94 0,00 2.822,79 7.584,96 2.282,00 0,00 30/04/2017
479 516800 CHRISTIANE FERREIRA DO NASCIMENTO ANALISTA DO MP ATIVO ESTRELA DO SUL - COMARCA; ESTRELA DO SUL-PJ-UNPJ 7.806,95 780,70 0,00 0,00 0,00 0,00 8.587,65 944,64 1.232,47 0,00 2.177,11 6.410,54 884,00 0,00 30/04/2017
480 176000 CHRISTIANE JUNQUEIRA PULITI ANDRADE DE BARROS ASSESSOR ATIVO BELO HORIZONTE - COMARCA; GABINETE DO PROCURADOR-GERAL DE JUSTICA 0,00 10.404,11 14.863,02 0,00 0,00 0,00 25.267,13 2.779,38 5.262,63 0,00 8.042,01 17.225,12 5.937,43 463,23 30/04/2017
481 319200 CHRISTIANE MARIA DE ASSIS RUSSO OFICIAL DO MP ATIVO BELO HORIZONTE - COMARCA; CAO-ORDEM ECONOMICA E TRIBUTARIA-SECRETARIA 7.560,72 1.512,14 0,00 0,00 0,00 0,00 9.072,86 998,01 1.299,09 0,00 2.297,10 6.775,76 1.583,00 0,00 30/04/2017
482 510300 CHRISTIANE MARY DE CARVALHO FERREIRA ANALISTA DO MP ATIVO BELO HORIZONTE - COMARCA; DIRETORIA DE SISTEMAS DE INFORMACAO 7.806,95 780,70 0,00 0,00 0,00 0,00 8.587,65 944,64 1.180,33 0,00 2.124,97 6.462,68 1.583,00 0,00 30/04/2017
483 424900 CHRISTIANE PEREIRA TURNER DE ARAUJO OFICIAL DO MP ATIVO BELO HORIZONTE - COMARCA; CAO-PATRIMONIO PUBLICO 6.334,59 633,46 0,00 0,00 0,00 0,00 6.968,05 766,49 783,93 0,00 1.550,42 5.417,63 1.583,00 0,00 30/04/2017
484 513700 CHRISTIANE VIEIRA SOARES PEDERSOLI ANALISTA DO MP ATIVO BELO HORIZONTE - COMARCA; ASSESSORIA JURIDICA DO PROCON-MG 7.806,95 780,70 0,00 0,00 0,00 0,00 8.587,65 944,64 1.232,47 0,00 2.177,11 6.410,54 1.583,00 0,00 30/04/2017
485 412300 CHRYSTIAN MACHADO RIBEIRO ANALISTA DO MP ATIVO VARGINHA - COMARCA; VARGINHA-PJ-04PJ 9.461,59 946,16 0,00 0,00 0,00 0,00 10.407,75 1.144,85 1.677,94 0,00 2.822,79 7.584,96 884,00 0,00 30/04/2017
486 513800 CHRYSTIANE DO NASCIMENTO DE MAGALHAES OFICIAL DO MP ATIVO UBERLÂNDIA - COMARCA; UBERLANDIA-PJ-10PJ 5.396,93 539,69 0,00 0,00 0,00 0,00 5.936,62 653,03 479,35 0,00 1.132,38 4.804,24 1.583,00 0,00 30/04/2017
487 497900 CIBELE DE FREITAS SANCHES DIAS ANALISTA DO MP ATIVO SABARÁ - COMARCA; SABARA-PJ-03PJ 7.200,69 720,07 0,00 0,00 0,00 0,00 7.920,76 871,28 1.069,25 0,00 1.940,53 5.980,23 884,00 0,00 30/04/2017
488 500900 CIBELLE SILVA PRADO ALVARENGA ANALISTA DO MP ATIVO ITANHANDU - COMARCA; ITANHANDU-PJ-UNPJ 7.806,95 780,70 0,00 0,00 0,00 0,00 8.587,65 944,64 1.232,47 0,00 2.177,11 6.410,54 1.583,00 0,00 30/04/2017
489 296400 CINTIA APARECIDA MOREIRA NAVES E RODRIGUES ANALISTA DO MP ATIVO CAMPO BELO - COMARCA; CAMPO BELO-PJ-02PJ 12.623,91 2.524,78 0,00 0,00 0,00 0,00 15.148,69 1.666,36 2.838,28 0,00 4.504,64 10.644,05 2.188,95 55,55 30/04/2017
490 407900 CINTIA NETO COMELLI ANALISTA DO MP ATIVO BELO HORIZONTE - COMARCA; CENTRAL DE APOIO TECNICO-SETOR CONTABIL 9.461,59 946,16 0,00 0,00 0,00 0,00 10.407,75 1.144,85 1.625,80 0,00 2.770,65 7.637,10 1.583,00 0,00 30/04/2017
491 304700 CINTIA QUEIROZ OFICIAL DO MP ATIVO BELO HORIZONTE - COMARCA; DIR GESTAO SISTEMAS ATIVIDADE-FIM 8.061,11 1.612,22 0,00 0,00 0,00 0,00 9.673,33 1.064,07 1.498,19 0,00 2.562,26 7.111,07 884,00 0,00 30/04/2017
492 286100 CIRO CANGUSSU CORDEIRO OFICIAL DO MP ATIVO IPATINGA - COMARCA; IPATINGA-PJ-09PJ 5.572,67 1.114,53 0,00 0,00 0,00 0,00 6.687,20 735,59 715,20 0,00 1.450,79 5.236,41 884,00 0,00 30/04/2017
493 412500 CLARICE GOMES MAROTTA ANALISTA DO MP ATIVO BELO HORIZONTE - COMARCA; ASSESS TECNICO-JUR JUNTO AS PROC. DE JUST 9.461,59 2.838,48 0,00 0,00 0,00 0,00 12.300,07 1.353,01 2.141,08 0,00 3.494,09 8.805,98 884,00 0,00 30/04/2017
494 605300 CLARISSA AZEVEDO ROCHA OFICIAL DO MP ATIVO BELO HORIZONTE - COMARCA; EXTINTA - DIVISÃO DE COMPRAS 4.111,87 246,71 0,00 0,00 0,00 0,00 4.358,58 479,44 236,68 0,00 716,12 3.642,46 884,00 0,00 30/04/2017
495 308100 CLARISSA DUARTE MARTINS DIRETOR/ANALISTA ATIVO BELO HORIZONTE - COMARCA; DIRETORIA-GERAL 0,00 4.215,99 21.079,94 0,00 0,00 0,00 25.295,93 1.666,36 5.576,63 0,00 7.242,99 18.052,94 5.943,19 463,76 30/04/2017
496 497100 CLARISSA ROCHA GUIDI ANALISTA DO MP ATIVO BELO HORIZONTE - COMARCA; EXTINTA - JUIZO DE FAMILIA-02 PJ-02 VARA 7.806,95 780,70 0,00 0,00 0,00 0,00 8.587,65 944,64 1.232,47 0,00 2.177,11 6.410,54 884,00 0,00 30/04/2017
497 641800 CLARISSE TAVARES GONCALVES OFICIAL DO MP ATIVO BELO HORIZONTE - COMARCA; BH-07PJ 01 TRIBUNAL DO JURI 3.285,74 0,00 0,00 0,00 1.095,25 0,00 4.380,99 361,43 268,27 0,00 629,70 3.751,29 884,00 0,00 30/04/2017
498 463700 CLAUDIA ADRIANA FERRAO DIAS ANALISTA DO MP ATIVO SETE LAGOAS - COMARCA; SETE LAGOAS-PJ-06PJ 8.594,48 859,45 0,00 0,00 0,00 0,00 9.453,93 1.039,93 1.340,22 0,00 2.380,15 7.073,78 884,00 0,00 30/04/2017
499 415400 CLAUDIA ALMEIDA DE VASCONCELLOS BARROS ASSESSOR/OFICIAL ATIVO BELO HORIZONTE - COMARCA; COORD DE GABINETE DO PGJ 0,00 887,43 8.874,34 0,00 0,00 0,00 9.761,77 1.073,79 1.519,83 0,00 2.593,62 7.168,15 884,00 0,00 30/04/2017
500 207000 CLAUDIA APARECIDA VILELA MACHADO ANALISTA DO MP ATIVO BELO HORIZONTE - COMARCA; CENTRAL DE APOIO TECNICO-SETOR CONTABIL 16.063,25 6.425,30 0,00 0,00 0,00 0,00 22.488,55 2.473,74 4.478,30 0,00 6.952,04 15.536,51 884,00 0,00 30/04/2017
501 365700 CLAUDIA BREGUEZ CUNHA ANALISTA DO MP ATIVO VARGINHA - COMARCA; VARGINHA-PJ-07PJ 10.755,28 2.151,06 0,00 0,00 0,00 0,00 12.906,34 1.419,70 2.289,47 0,00 3.709,17 9.197,17 1.583,00 0,00 30/04/2017
502 430500 CLAUDIA CECILIA SANTANA VENCESLAU COORDENADOR/OFICIAL ATIVO BELO HORIZONTE - COMARCA; DIRET DE DESENV DE RECURSOS HUMANOS-DDRH 0,00 1.146,70 11.466,98 0,00 0,00 0,00 12.613,68 766,49 2.336,48 0,00 3.102,97 9.510,71 1.583,00 0,00 30/04/2017
503 112400 CLAUDIA CRISTINA FIUZA DE AVELAR AGENTE DO MP ATIVO BELO HORIZONTE - COMARCA; SERVICO MEDICO-DEPTO PERIC MEDICA SAUDE OCUP 7.322,31 3.661,15 0,00 0,00 0,00 0,00 10.983,46 1.208,18 1.818,84 0,00 3.027,02 7.956,44 884,00 0,00 30/04/2017
504 480400 CLAUDIA GOULART DE SOUZA OFICIAL DO MP ATIVO PASSOS - COMARCA; PASSOS-PJ-06PJ 5.572,67 1.114,53 0,00 0,00 0,00 0,00 6.687,20 735,59 767,33 0,00 1.502,92 5.184,28 884,00 0,00 30/04/2017
505 519800 CLAUDIA HELENA CORREA DE ALMEIDA ANALISTA DO MP ATIVO BELO HORIZONTE - COMARCA; BH-12PJ JUIZO CRIMINAL-GAB 090PJ 7.560,72 756,07 0,00 0,00 0,00 0,00 8.316,79 914,85 1.166,17 0,00 2.081,02 6.235,77 884,00 0,00 30/04/2017
506 422100 CLAUDIA IACOMINI CABRAL ANALISTA DO MP ATIVO BELO HORIZONTE - COMARCA; CENT DE APOIO TEC-SETOR DEF,IDOSO E INFANC 9.461,59 4.730,80 0,00 0,00 4.730,80 0,00 18.923,19 1.561,16 3.905,20 0,00 5.466,36 13.456,83 884,00 0,00 30/04/2017
507 258200 CLAUDIA LAGE MICHALAROS ANALISTA DO MP ATIVO BELO HORIZONTE - COMARCA; CENTRAL DE APOIO TECN-SETOR DE MEIO AMBIENTE 13.034,76 6.517,38 0,00 0,00 0,00 0,00 19.552,14 2.150,74 3.863,89 0,00 6.014,63 13.537,51 884,00 0,00 30/04/2017
508 284600 CLAUDIA LENI DE ABREU OFICIAL DO MP ATIVO CONTAGEM - COMARCA; CONTAGEM-PJ-22PJ 5.226,73 1.568,02 0,00 0,00 0,00 0,00 6.794,75 747,42 793,66 0,00 1.541,08 5.253,67 884,00 0,00 30/04/2017
509 433600 CLAUDIA LUIZA SANTIAGO FELICIO ANALISTA DO MP ATIVO BELO HORIZONTE - COMARCA; CENT DE APOIO TEC-SETOR DEF,IDOSO E INFANC 9.461,59 946,16 0,00 0,00 0,00 0,00 10.407,75 1.144,85 1.573,66 0,00 2.718,51 7.689,24 1.583,00 0,00 30/04/2017
510 317000 CLAUDIA MACHADO ALVES OFICIAL DO MP ATIVO BELO HORIZONTE - COMARCA; GABINETE DE SEGURANCA E INTELIGENCIA 6.334,59 1.266,92 0,00 0,00 0,00 0,00 7.601,51 836,17 991,11 0,00 1.827,28 5.774,23 884,00 0,00 30/04/2017
511 155300 CLAUDIA MACIEL MIRANDA E BELO OFICIAL DO MP ATIVO CONGONHAS - COMARCA; CONGONHAS-PJ-02PJ 12.225,81 6.112,91 0,00 0,00 0,00 0,00 18.338,72 2.017,26 3.514,77 0,00 5.532,03 12.806,69 884,00 0,00 30/04/2017
512 242200 CLAUDIA MICHELLE DIAS MUNIZ BALEEIRO OFICIAL DO MP ATIVO MONTE AZUL - COMARCA; MONTE AZUL-PJ-SECRETARIA 9.163,30 3.665,32 0,00 0,00 0,00 0,00 12.828,62 1.411,15 2.218,31 0,00 3.629,46 9.199,16 884,00 0,00 30/04/2017
513 623000 CLAUDIA PATRICIA SILVA RODRIGUES RAPOSEIRAS OFICIAL DO MP ATIVO BELO HORIZONTE - COMARCA; DIVISÃO DE EDUCAÇÃO PARA O CONSUMO 3.617,27 0,00 0,00 0,00 0,00 0,00 3.617,27 397,90 99,67 0,00 497,57 3.119,70 884,00 0,00 30/04/2017
514 418400 CLAUDIA REGINA MARTINS BONIFACIO OFICIAL DO MP ATIVO ITUIUTABA - COMARCA; ITUIUTABA-PJ-06PJ 6.334,59 633,46 0,00 0,00 0,00 0,00 6.968,05 766,49 731,79 0,00 1.498,28 5.469,77 884,00 0,00 30/04/2017
515 498300 CLAUDIA SOUTO FARIAS BRAUN OFICIAL DO MP ATIVO TEÓFILO OTONI - COMARCA; TEOFILO OTONI-PJ-SECRETARIA 4.598,03 459,80 0,00 0,00 0,00 0,00 5.057,83 556,36 291,39 0,00 847,75 4.210,08 884,00 0,00 30/04/2017
516 206500 CLAUDIA VALERIA FONSECA ANDRADE ANALISTA DO MP ATIVO BELO HORIZONTE - COMARCA; BH-23PJ INF-FISC MED SOC FEC 16.063,25 6.425,31 0,00 0,00 0,00 0,00 22.488,56 2.473,74 4.634,72 0,00 7.108,46 15.380,10 5.381,71 412,29 30/04/2017
517 277500 CLAUDIO ANTONIO BORGES ALVARES OFICIAL DO MP ATIVO BELO HORIZONTE - COMARCA; EXTINTA - DIVISAO DE MATERIAL DE CONSUMO 7.806,95 1.561,39 0,00 0,00 0,00 0,00 9.368,34 1.030,52 1.423,54 0,00 2.454,06 6.914,28 884,00 0,00 30/04/2017
518 444800 CLAUDIO ARESIO DO CARMO ANALISTA DO MP ATIVO SETE LAGOAS - COMARCA; SETE LAGOAS-PJ-01PJ 8.594,48 2.578,34 0,00 0,00 0,00 0,00 11.172,82 1.229,01 1.813,05 0,00 3.042,06 8.130,76 884,00 0,00 30/04/2017
519 541600 CLAUDIO DE OLIVEIRA MELO OFICIAL DO MP ATIVO PARACATU - COMARCA; PARACATU-PJ-01PJ 3.617,27 0,00 0,00 0,00 0,00 0,00 3.617,27 397,90 71,23 0,00 469,13 3.148,14 1.583,00 0,00 30/04/2017
520 545100 CLAUDIO HENRIQUE MACEDO DE SOUZA FRANSOZO ANALISTA DO MP ATIVO OURO PRETO - COMARCA; OURO PRETO-PJ-01PJ 6.334,59 380,08 0,00 0,00 0,00 0,00 6.714,67 738,61 774,06 0,00 1.512,67 5.202,00 884,00 0,00 30/04/2017
521 353500 CLAUDIO HENRIQUE PEDRO DA ROCHA OFICIAL DO MP ATIVO BELO HORIZONTE - COMARCA; CAO-CRIMINAL-SECRETARIA 7.200,69 1.440,14 0,00 0,00 0,00 0,00 8.640,83 950,49 1.141,21 0,00 2.091,70 6.549,13 884,00 0,00 30/04/2017
522 265800 CLAUDIO KUPIDLOWSKY FERNANDES ASSESSOR/OFICIAL ATIVO BELO HORIZONTE - COMARCA; SECRETARIA DO PROCON-MG 0,00 2.930,88 9.769,61 0,00 0,00 0,00 12.700,49 1.116,39 1.495,23 0,00 2.611,62 10.088,87 884,00 0,00 30/04/2017
523 193600 CLAUDIO LEITE FONTES OFICIAL DO MP ATIVO ITUIUTABA - COMARCA; ITUIUTABA-PJ-02PJ 6.753,72 2.701,49 0,00 0,00 0,00 0,00 9.455,21 1.040,07 1.187,13 0,00 2.227,20 7.228,01 884,00 0,00 30/04/2017
524 329400 CLAUDIO MARCIO BERNARDES OFICIAL DO MP ATIVO ITAÚNA - COMARCA; ITAUNA-PJ-04PJ 7.560,72 5.292,50 0,00 0,00 0,00 0,00 12.853,22 1.413,85 2.224,33 0,00 3.638,18 9.215,04 884,00 0,00 30/04/2017
525 270200 CLAUDIO RABELO ALVES OFICIAL DO MP ATIVO FORMIGA - COMARCA; FORMIGA-PJ-03PJ 8.323,51 1.664,70 0,00 0,00 0,00 0,00 9.988,21 1.098,70 1.366,71 0,00 2.465,41 7.522,80 884,00 0,00 30/04/2017
526 264700 CLAUDIO ROBERTO KFURI DE ARAUJO ANALISTA DO MP ATIVO BELO HORIZONTE - COMARCA; CENTRAL DE APOIO TECNICO-SETOR DE INFORMATICA 13.034,76 2.606,95 0,00 0,00 0,00 0,00 15.641,71 1.720,59 2.854,67 0,00 4.575,26 11.066,45 884,00 0,00 30/04/2017
527 188600 CLAUDIO SALES OFICIAL DO MP ATIVO NEPOMUCENO - COMARCA; NEPOMUCENO-PJ-SECRETARIA 10.755,28 7.528,69 0,00 0,00 0,00 0,00 18.283,97 2.011,24 3.605,64 0,00 5.616,88 12.667,09 1.583,00 0,00 30/04/2017
528 543300 CLAUDIO SILVA DE CARVALHO ANALISTA DO MP ATIVO CAMPO BELO - COMARCA; CAMPO BELO-PJ-04PJ 5.754,07 345,24 0,00 0,00 0,00 0,00 6.099,31 708,90 655,81 0,00 1.364,71 4.734,60 884,00 345,24 30/04/2017
529 160700 CLAUDIO VICENTE HESS ASSESSOR ATIVO BELO HORIZONTE - COMARCA; CENTRAL DE APOIO TECNICO-SETOR DE INFORMATICA 0,00 4.586,79 11.466,98 0,00 0,00 0,00 16.053,77 608,44 3.464,79 0,00 4.073,23 11.980,54 3.452,60 235,46 30/04/2017
530 312900 CLAUDIO VIEIRA FIRPE OFICIAL DO MP ATIVO BELO HORIZONTE - COMARCA; SUPERINTENDENCIA DE COMUNICACAO INTEGRADA 7.322,31 1.464,46 0,00 0,00 0,00 0,00 8.786,77 966,54 1.281,20 0,00 2.247,74 6.539,03 1.583,00 0,00 30/04/2017
531 634100 CLEA CRISTINA GUERRA DE FREITAS COSTA OFICIAL DO MP ATIVO BELO HORIZONTE - COMARCA; BH-18PJ VIOLENCIA DOMESTICA 3.285,74 0,00 0,00 0,00 0,00 0,00 3.285,74 361,43 62,30 0,00 423,73 2.862,01 1.583,00 0,00 30/04/2017
532 653100 CLEBER SOUZA SCALIONI ASSESSOR ATIVO BELO HORIZONTE - COMARCA; CENTRAL DE APOIO TECNICO-SETOR CONTABIL 0,00 0,00 6.973,61 0,00 0,00 0,00 6.973,61 608,44 1.124,16 0,00 1.732,60 5.241,01 884,00 0,00 30/04/2017
533 459200 CLEIA ZILLE PEREIRA ANALISTA DO MP ATIVO BELO HORIZONTE - COMARCA; ASSESS TECNICO-JUR JUNTO AS PROC. DE JUST 8.594,48 859,45 0,00 0,00 0,00 0,00 9.453,93 1.039,93 1.444,49 0,00 2.484,42 6.969,51 1.583,00 0,00 30/04/2017
534 481800 CLEIDE CARDOSO DA SILVA ANALISTA DO MP ATIVO MANHUAÇU - COMARCA; MANHUACU-PJ-04PJ 7.806,95 780,70 0,00 0,00 0,00 0,00 8.587,65 944,64 1.128,19 0,00 2.072,83 6.514,82 1.583,00 0,00 30/04/2017
535 347600 CLEIDIMAR DE OLIVEIRA SILVA OFICIAL DO MP ATIVO PATOS DE MINAS - COMARCA; COORD REG BACIAS PARACATU,URUCUIA E ABAETE 6.973,61 2.092,08 0,00 0,00 0,00 0,00 9.065,69 1.073,94 1.311,60 0,00 2.385,54 6.680,15 884,00 697,36 30/04/2017
536 396500 CLEIDISON BATISTA DE ANDRADE OFICIAL DO MP ATIVO RESPLENDOR - COMARCA; RESPLENDOR-PJ-UNPJ 5.226,73 522,67 0,00 0,00 0,00 0,00 5.749,40 632,43 387,22 0,00 1.019,65 4.729,75 1.583,00 0,00 30/04/2017
537 535100 CLEISON ALVES DA SILVA ANALISTA DO MP ATIVO BOA ESPERANÇA - COMARCA; BOA ESPERANCA-PJ-01PJ 6.334,59 380,08 0,00 0,00 0,00 0,00 6.714,67 738,61 669,78 0,00 1.408,39 5.306,28 1.583,00 0,00 30/04/2017
538 298100 CLEONICE AUGUSTA BARROS DE OLIVEIRA ANALISTA DO MP ATIVO JUIZ DE FORA - COMARCA; JUIZ DE FORA-PJ-08PJ 13.228,78 2.645,76 0,00 0,00 0,00 0,00 15.874,54 1.746,20 3.015,93 0,00 4.762,13 11.112,41 884,00 0,00 30/04/2017
539 60200 CLERES DE ALMEIDA AGENTE DO MP ATIVO BELO HORIZONTE - COMARCA; EXTINTA - DIVISAO DE TRANSPORTES 4.902,32 3.921,86 0,00 0,00 0,00 1.121,93 9.946,11 1.121,93 1.831,20 0,00 2.953,13 6.992,98 884,00 1.375,21 30/04/2017
540 114300 CLERES PEREIRA DA SILVA JUNIOR ASSESSOR ATIVO BELO HORIZONTE - COMARCA; GAECO - SECRETARIA 0,00 1.753,57 4.383,93 0,00 0,00 0,00 6.137,50 608,44 737,82 0,00 1.346,26 4.791,24 1.583,00 0,00 30/04/2017
541 264100 CLETO HENRIQUE ANDRADE SILVA ANALISTA DO MP ATIVO BELO HORIZONTE - COMARCA; DIRETORIA DE SISTEMAS DE INFORMACAO 13.034,76 2.606,95 0,00 0,00 0,00 0,00 15.641,71 1.720,59 2.802,54 0,00 4.523,13 11.118,58 884,00 0,00 30/04/2017
542 334400 CLEUBA DE OLIVEIRA BARCELOS GONCALVES OFICIAL DO MP ATIVO DIVINÓPOLIS - COMARCA; COORD REG SAUDE MACRORREGIAO SANITARIA OESTE 7.560,72 1.512,14 0,00 0,00 0,00 0,00 9.072,86 998,01 1.246,95 0,00 2.244,96 6.827,90 884,00 0,00 30/04/2017
543 347500 CLEUSA CORDEIRO DA MATA PIMENTA OFICIAL DO MP ATIVO CAMPO BELO - COMARCA; CAMPO BELO-PJ-02PJ 7.322,31 5.125,61 0,00 0,00 0,00 1.369,27 13.817,19 1.369,27 2.713,13 0,00 4.082,40 9.734,79 884,00 958,49 30/04/2017
544 510200 CLEZIO SALES SILVA OFICIAL DO MP ATIVO BRASÓPOLIS - COMARCA; BRASOPOLIS-PJ-UNPJ 4.245,74 424,57 0,00 0,00 0,00 0,00 4.670,31 513,73 299,10 0,00 812,83 3.857,48 1.583,00 0,00 30/04/2017
545 323000 CLOTILDE DE PADUA VIEIRA OFICIAL DO MP ATIVO BELO HORIZONTE - COMARCA; CGMP-DIVISAO DE APOIO ADMINISTRATIVO 5.396,93 1.079,39 0,00 0,00 0,00 0,00 6.476,32 712,40 715,72 0,00 1.428,12 5.048,20 884,00 0,00 30/04/2017
546 285200 CLOVIS ANDRE LUDTKE OFICIAL DO MP ATIVO BELO HORIZONTE - COMARCA; DIVISAO DE MANUTENCAO PREDIAL 8.061,11 1.612,22 0,00 0,00 0,00 0,00 9.673,33 1.064,07 1.498,19 0,00 2.562,26 7.111,07 884,00 0,00 30/04/2017
547 381100 CONCEICAO APARECIDA TEIXEIRA ARANTES ANALISTA DO MP ATIVO BELO HORIZONTE - COMARCA; BH-23PJ INFRACIONAL-ASS JURIDICA 10.087,71 1.008,77 0,00 0,00 0,00 0,00 11.096,48 1.283,39 1.934,05 0,00 3.217,44 7.879,04 1.583,00 570,72 30/04/2017
548 249900 CONSTANTINO CEZAR GOMES MOTA OFICIAL DO MP ATIVO MONTES CLAROS - COMARCA; COORD REG BACIA RIOS VERDE GRANDE E PARDO 6.973,61 1.394,72 0,00 0,00 0,00 0,00 8.368,33 920,52 1.126,65 0,00 2.047,17 6.321,16 884,00 0,00 30/04/2017
549 481000 CRISHMA ANALIA LOMBELLO ANALISTA DO MP ATIVO JUIZ DE FORA - COMARCA; JUIZ DE FORA-PJ-13PJ 8.594,48 859,45 0,00 0,00 0,00 0,00 9.453,93 1.039,93 1.392,35 0,00 2.432,28 7.021,65 884,00 0,00 30/04/2017
550 187500 CRISLEY PATRICK TOSTES OFICIAL DO MP ATIVO JUIZ DE FORA - COMARCA; JUIZ DE FORA-PJ-17PJ 11.105,40 3.331,62 0,00 0,00 0,00 0,00 14.437,02 1.588,07 2.664,10 0,00 4.252,17 10.184,85 884,00 0,00 30/04/2017
551 523900 CRISTHYANE BAZOLI COSTA GUEDES OFICIAL DO MP ATIVO BELO HORIZONTE - COMARCA; EXTINTA-04ª PJ JUÍZO REG PÚBLICOS-SECRETARIA 5.396,93 539,69 0,00 0,00 0,00 0,00 5.936,62 686,61 658,34 0,00 1.344,95 4.591,67 884,00 305,28 30/04/2017
552 187000 CRISTIAN DAYVSON EVANGELISTA OFICIAL DO MP ATIVO JUIZ DE FORA - COMARCA; JUIZ DE FORA-PJ-09PJ 10.755,28 3.226,58 0,00 0,00 0,00 0,00 13.981,86 1.538,00 2.500,56 0,00 4.038,56 9.943,30 884,00 0,00 30/04/2017
553 319800 CRISTIANA GONCALVES DOS SANTOS GUSMAO OFICIAL DO MP ATIVO SETE LAGOAS - COMARCA; SETE LAGOAS-PJ-10PJ 7.322,31 1.464,46 0,00 0,00 2.928,92 0,00 11.715,69 966,54 2.086,66 0,00 3.053,20 8.662,49 884,00 0,00 30/04/2017
554 520600 CRISTIANA JANAINA BARBOZA JUVENCIO DOS SANTOS ANALISTA DO MP ATIVO BELO HORIZONTE - COMARCA; EXTINTA - JUIZO DE FAMILIA-02 PJ-02 VARA 7.560,72 756,07 0,00 0,00 0,00 0,00 8.316,79 914,85 1.166,17 0,00 2.081,02 6.235,77 884,00 0,00 30/04/2017
555 195600 CRISTIANA SOARES HALABI OFICIAL DO MP ATIVO UBERABA - COMARCA; UBERABA-PJ-11PJ 11.466,98 3.440,09 0,00 0,00 4.969,02 0,00 19.876,09 1.639,78 4.145,63 0,00 5.785,41 14.090,68 884,00 0,00 30/04/2017
556 218900 CRISTIANE ALVES BELLES OFICIAL DO MP ATIVO JUIZ DE FORA - COMARCA; JUIZ DE FORA-PJ-10PJ 5.226,73 1.568,02 0,00 0,00 0,00 0,00 6.794,75 747,42 689,38 0,00 1.436,80 5.357,95 1.932,00 0,00 30/04/2017
557 263600 CRISTIANE CARVALHO COUTINHO OFICIAL DO MP ATIVO BELO HORIZONTE - COMARCA; BH-23PJ INFRACIONAL-SEC EXP 8.061,11 2.418,33 0,00 0,00 0,00 0,00 10.479,44 1.241,41 1.840,64 0,00 3.082,05 7.397,39 884,00 806,11 30/04/2017
558 541000 CRISTIANE COELHO ALVES OFICIAL DO MP ATIVO ITABIRA - COMARCA; ITABIRA-PJ-03PJ 3.735,01 224,10 0,00 0,00 0,00 0,00 3.959,11 435,50 145,30 0,00 580,80 3.378,31 884,00 0,00 30/04/2017
559 441700 CRISTIANE CORRADO DE ANDRADE ANALISTA DO MP ATIVO BELO HORIZONTE - COMARCA; DIRETORIA DE SISTEMAS DE INFORMACAO 9.461,59 946,16 0,00 0,00 0,00 0,00 10.407,75 1.144,85 1.677,94 0,00 2.822,79 7.584,96 884,00 0,00 30/04/2017
560 375100 CRISTIANE DAS DORES ERCIO DE LIMA OFICIAL DO MP ATIVO GOVERNADOR VALADARES - COMARCA; COOR REG INCLUSAO MOBILIZ VALE DO RIO DOCE 6.134,81 613,48 0,00 0,00 0,00 0,00 6.748,29 742,31 782,28 0,00 1.524,59 5.223,70 884,00 0,00 30/04/2017
561 631600 CRISTIANE DE FREITAS NEVES OFICIAL DO MP ATIVO IPATINGA - COMARCA; IPATINGA-PJ-04PJ 3.617,27 0,00 0,00 0,00 0,00 0,00 3.617,27 397,90 128,11 0,00 526,01 3.091,26 884,00 0,00 30/04/2017
562 178800 CRISTIANE DE LIMA HOSKEN OFICIAL DO MP ATIVO BELO HORIZONTE - COMARCA; BH-14PJ DEFESA CONSUMIDOR-GAB 110PJ 11.105,40 3.331,62 0,00 0,00 0,00 0,00 14.437,02 1.588,07 2.507,69 0,00 4.095,76 10.341,26 1.461,48 52,94 30/04/2017
563 494000 CRISTIANE DE MELO MARQUEZ OLIVEIRA ANALISTA DO MP ATIVO UBERLÂNDIA - COMARCA; UBERLANDIA-PJ-06PJ 7.806,95 780,70 0,00 0,00 0,00 0,00 8.587,65 944,64 1.232,47 0,00 2.177,11 6.410,54 1.583,00 0,00 30/04/2017
564 266100 CRISTIANE DE OLIVEIRA CASTRO OFICIAL DO MP ATIVO BELO HORIZONTE - COMARCA; BH-14PJ DEFESA CONSUMIDOR-SECRETARIA 9.163,30 2.748,99 0,00 0,00 0,00 0,00 11.912,29 1.310,35 2.281,13 0,00 3.591,48 8.320,81 1.583,00 1.233,56 30/04/2017
565 329500 CRISTIANE DOS REIS SILVA OFICIAL DO MP ATIVO ARAXÁ - COMARCA; ARAXA-PJ-04PJ 6.973,61 1.394,72 0,00 0,00 0,00 0,00 8.368,33 920,52 1.074,51 0,00 1.995,03 6.373,30 977,20 0,00 30/04/2017
566 301600 CRISTIANE GODINHO PIRES ANALISTA DO MP ATIVO BETIM - COMARCA; BETIM-PJ-07PJ 12.225,81 2.445,16 0,00 0,00 0,00 0,00 14.670,97 1.613,81 2.721,36 0,00 4.335,17 10.335,80 1.470,84 53,79 30/04/2017
567 406100 CRISTIANE GONCALVES CHAVES ANALISTA DO MP ATIVO BELO HORIZONTE - COMARCA; BH-09PJ AUDITORIA MILITAR-SECRETARIA 10.416,20 2.083,24 0,00 0,00 0,00 0,00 12.499,44 1.374,94 2.189,88 0,00 3.564,82 8.934,62 884,00 0,00 30/04/2017
568 487600 CRISTIANE LOPES DE OLIVEIRA OFICIAL DO MP ATIVO CARMO DA MATA - COMARCA; CARMO DA MATA-PJ-SECRETARIA 4.598,03 459,80 0,00 0,00 1.685,94 0,00 6.743,77 556,36 780,04 0,00 1.336,40 5.407,37 884,00 0,00 30/04/2017
569 502500 CRISTIANE MACIEL DE OLIVEIRA GOMES ANALISTA DO MP ATIVO JUIZ DE FORA - COMARCA; JUIZ DE FORA-PJ-05PJ 7.806,95 780,70 0,00 0,00 0,00 0,00 8.587,65 944,64 1.232,47 0,00 2.177,11 6.410,54 884,00 0,00 30/04/2017
570 285500 CRISTIANE MAGALHAES LOURENCO ANALISTA DO MP ATIVO BELO HORIZONTE - COMARCA; CENTRAL DE APOIO TECNICO-SETOR CONTABIL 12.623,91 2.524,78 0,00 0,00 0,00 0,00 15.148,69 1.666,36 2.734,01 0,00 4.400,37 10.748,32 1.489,95 55,55 30/04/2017
571 536500 CRISTIANE MICHELE DE SOUZA ANALISTA DO MP ATIVO BARÃO DE COCAIS - COMARCA; BARAO DE COCAIS-PJ-UNPJ 6.334,59 380,08 0,00 0,00 0,00 0,00 6.714,67 738,61 669,78 0,00 1.408,39 5.306,28 1.583,00 0,00 30/04/2017
572 346600 CRISTIANE NOGUEIRA ANDRADE ANALISTA DO MP ATIVO BELO HORIZONTE - COMARCA; CENTRAL DE APOIO TECNICO-SETOR CONTABIL 11.105,40 2.221,08 0,00 0,00 0,00 0,00 13.326,48 1.465,91 2.392,30 0,00 3.858,21 9.468,27 884,00 0,00 30/04/2017
573 234000 CRISTIANE OLIVEIRA TOSTES OFICIAL DO MP ATIVO JUIZ DE FORA - COMARCA; JUIZ DE FORA-PJ-08PJ 10.416,20 3.124,86 0,00 0,00 0,00 0,00 13.541,06 1.489,52 2.444,81 0,00 3.934,33 9.606,73 884,00 0,00 30/04/2017
574 445800 CRISTIANE ORZIL COSTA OFICIAL DO MP ATIVO SANTA LUZIA - COMARCA; SANTA LUZIA-PJ-05PJ 4.747,79 474,78 0,00 0,00 0,00 0,00 5.222,57 574,48 409,69 0,00 984,17 4.238,40 884,00 0,00 30/04/2017
575 616100 CRISTIANE PAES RODRIGUES MARCICANO ANALISTA DO MP ATIVO CATAGUASES - COMARCA; CATAGUASES-PJ-05PJ 5.061,97 0,00 0,00 0,00 1.687,32 0,00 6.749,29 556,82 833,57 0,00 1.390,39 5.358,90 1.583,00 0,00 30/04/2017
576 612300 CRISTIANE RIBEIRO DOS REIS ARCANJO ASSESSOR/OFICIAL ATIVO BELO HORIZONTE - COMARCA; EXTINTA - DIRETORIA SERVIÇOS GERAIS E TRANS 0,00 418,42 6.973,61 0,00 0,00 0,00 7.392,03 464,32 983,62 0,00 1.447,94 5.944,09 884,00 0,00 30/04/2017
577 257700 CRISTIANE RODRIGUES PAES NUNES ANALISTA DO MP ATIVO BELO HORIZONTE - COMARCA; BH-22PJ PES COM DEF E IDOSOS-ORIENTACAO PSIC 13.228,78 2.645,76 0,00 0,00 0,00 0,00 15.874,54 1.746,20 2.963,80 0,00 4.710,00 11.164,54 1.518,98 58,21 30/04/2017
578 510800 CRISTIANE SANTOS FERNANDES ORNELES ANALISTA DO MP ATIVO BELO HORIZONTE - COMARCA; COORD ESTADUAL DAS PJS DE HAB. E URBANISMO 7.806,95 780,70 0,00 0,00 0,00 0,00 8.587,65 944,64 1.180,33 0,00 2.124,97 6.462,68 884,00 0,00 30/04/2017
579 535701 CRISTIANE SANTOS MIRANDA ANALISTA DO MP ATIVO BETIM - COMARCA; BETIM-PJ-02PJ 5.396,93 0,00 0,00 0,00 0,00 0,00 5.396,93 593,66 359,29 0,00 952,95 4.443,98 884,00 0,00 30/04/2017
580 536200 CRISTIANO DE OLIVEIRA ANALISTA DO MP ATIVO CONCEIÇÃO DO MATO DENTRO - COMARCA; CONCEICAO DO MATO DENTRO-PJ-UNPJ 6.973,61 418,42 0,00 0,00 0,00 0,00 7.392,03 813,12 939,84 0,00 1.752,96 5.639,07 884,00 0,00 30/04/2017
581 477400 CRISTIANO SOARES ELEUTERIO ANALISTA DO MP ATIVO BELO HORIZONTE - COMARCA; BH-17PJ PATRIMONIO PUBLICO 8.594,48 859,45 0,00 0,00 0,00 0,00 9.453,93 1.039,93 1.444,49 0,00 2.484,42 6.969,51 884,00 0,00 30/04/2017
582 449400 CRISTIANO TEIXEIRA RODRIGUES LANA ANALISTA DO MP ATIVO BELO HORIZONTE - COMARCA; ASSESS TECNICO-JUR JUNTO AS PROC. DE JUST 8.594,48 859,45 0,00 0,00 0,00 0,00 9.453,93 1.039,93 1.444,49 0,00 2.484,42 6.969,51 884,00 0,00 30/04/2017
583 239400 CRISTINA DE FATIMA CRUZ E SILVA OFICIAL DO MP ATIVO MONTE SANTO DE MINAS - COMARCA; MONTE SANTO DE MINAS-PJ-SECRETARIA 9.163,30 2.748,99 0,00 0,00 0,00 0,00 11.912,29 1.310,35 2.046,17 0,00 3.356,52 8.555,77 884,00 0,00 30/04/2017
584 544000 CRISTINA DE OLIVEIRA TERRA ANALISTA DO MP ATIVO MATOZINHOS - COMARCA; MATOZINHOS-PJ-01PJ 6.334,59 380,08 0,00 0,00 2.238,22 0,00 8.952,89 738,61 1.389,57 0,00 2.128,18 6.824,71 884,00 0,00 30/04/2017
585 356800 CRISTINA DE PINHO BARROSO OFICIAL DO MP ATIVO SABINÓPOLIS - COMARCA; SABINOPOLIS-PJ-UNPJ 5.396,93 1.619,08 0,00 0,00 0,00 0,00 7.016,01 831,13 925,09 0,00 1.756,22 5.259,79 884,00 719,59 30/04/2017
586 649500 CRISTINA DO DIVINO ESPIRITO SANTOS OFICIAL DO MP ATIVO DIVINÓPOLIS - COMARCA; DIVINOPOLIS-PJ-12PJ 3.503,19 0,00 0,00 0,00 0,00 0,00 3.503,19 385,35 84,44 0,00 469,79 3.033,40 884,00 0,00 30/04/2017
587 348201 CRISTINA MARIA DA SILVA ANALISTA DO MP ATIVO PATOS DE MINAS - COMARCA; PATOS DE MINAS-PJ-02PJ 8.323,51 832,35 0,00 0,00 0,00 0,00 9.155,86 1.007,14 1.371,54 0,00 2.378,68 6.777,18 884,00 0,00 30/04/2017
588 434900 CRISTINA MELO DE MADUREIRA ANALISTA DO MP ATIVO BELO HORIZONTE - COMARCA; PROCURADORIA-GERAL ADJUNTA ADMINISTRATIVA 9.461,59 946,16 0,00 0,00 0,00 0,00 10.407,75 1.144,85 1.677,94 0,00 2.822,79 7.584,96 884,00 0,00 30/04/2017
589 307700 CRISTINA TEIXEIRA MARQUES OFICIAL DO MP ATIVO BELO HORIZONTE - COMARCA; CENTRAL DE APOIO TECNICO-SETOR CONTABIL 6.540,78 1.308,16 0,00 0,00 0,00 0,00 7.848,94 863,38 1.051,67 0,00 1.915,05 5.933,89 884,00 0,00 30/04/2017
590 265300 CRISTOVAO SANCHES DE MEDEIROS ANALISTA DO MP ATIVO BELO HORIZONTE - COMARCA; DIRETORIA DE CONTABILIDADE 12.225,81 2.445,16 0,00 0,00 0,00 0,00 14.670,97 1.613,81 2.617,08 0,00 4.230,89 10.440,08 884,00 0,00 30/04/2017
591 349800 CROZEIR LUIZ DA SILVA OFICIAL DO MP ATIVO UNAÍ - COMARCA; UNAI-PJ-SECRETARIA 6.973,61 697,36 0,00 0,00 0,00 0,00 7.670,97 843,81 955,97 0,00 1.799,78 5.871,19 1.932,32 0,00 30/04/2017
592 490500 CYNTHIA CRISTINA DE SOUZA OLIVEIRA VALENTE ANALISTA DO MP ATIVO BELO HORIZONTE - COMARCA; BH-09PJ AUDITORIA MILITAR 7.806,95 780,70 0,00 0,00 0,00 0,00 8.587,65 944,64 1.232,47 0,00 2.177,11 6.410,54 884,00 0,00 30/04/2017
593 389800 CYNTHIA GARIGLIO DOS SANTOS OFICIAL DO MP ATIVO PERDIZES - COMARCA; PERDIZES-PJ-SECRETARIA 5.226,73 522,67 0,00 0,00 0,00 0,00 5.749,40 632,43 387,22 0,00 1.019,65 4.729,75 1.583,00 0,00 30/04/2017
594 335101 CYNTHIA GONTIJO D ASSUNCAO ANALISTA DO MP ATIVO BELO HORIZONTE - COMARCA; PROC. JUSTICA DIR. DIFUSOS E COLETIVOS-SEC 8.594,48 859,45 0,00 0,00 0,00 0,00 9.453,93 1.039,93 1.444,49 0,00 2.484,42 6.969,51 2.282,00 0,00 30/04/2017
595 154000 CYNTHIA LOPES DOS SANTOS LAGES ASSESSOR ATIVO BELO HORIZONTE - COMARCA; PROCURADOR-GERAL DE JUSTICA- GABINETE 0,00 5.733,49 11.466,98 0,00 0,00 0,00 17.200,47 1.892,05 3.340,46 0,00 5.232,51 11.967,96 884,00 0,00 30/04/2017
596 269700 CYNTIA ROCHA CAVALCANTI OFICIAL DO MP ATIVO UBERLÂNDIA - COMARCA; UBERLANDIA-PJ-06PJ 9.163,30 1.832,66 0,00 0,00 0,00 0,00 10.995,96 1.209,56 1.821,90 0,00 3.031,46 7.964,50 884,00 0,00 30/04/2017
597 278000 DAIRTON LOPES MARTINS FILHO COORDENADOR/ANALISTA ATIVO BELO HORIZONTE - COMARCA; DIRETORIA DE SISTEMAS DE INFORMACAO 0,00 2.293,40 11.466,98 0,00 0,00 0,00 13.760,38 1.134,47 2.602,77 0,00 3.737,24 10.023,14 884,00 0,00 30/04/2017
598 392700 DALIANA CHAVES SILVA OFICIAL DO MP ATIVO ITAÚNA - COMARCA; ITAUNA-PJ-SECRETARIA 5.754,07 575,41 0,00 0,00 0,00 0,00 6.329,48 696,24 679,78 0,00 1.376,02 4.953,46 884,00 0,00 30/04/2017
599 558101 DALLEY TASSIA SILVA ANALISTA DO MP ATIVO MORADA NOVA DE MINAS - COMARCA; MORADA NOVA DE MINAS-PJ-UNPJ 6.134,81 368,09 0,00 0,00 0,00 0,00 6.502,90 715,32 617,95 0,00 1.333,27 5.169,63 1.583,00 0,00 30/04/2017
600 476700 DALTON DAUD ANALISTA DO MP ATIVO ARAGUARI - COMARCA; ARAGUARI-PJ-05PJ 8.594,48 859,45 0,00 0,00 0,00 0,00 9.453,93 1.039,93 1.340,22 0,00 2.380,15 7.073,78 884,00 0,00 30/04/2017
601 548700 DALVA DE SOUZA ROCHA ALMEIDA OFICIAL DO MP ATIVO TIMÓTEO - COMARCA; TIMOTEO-PJ-02PJ 4.111,87 246,71 0,00 0,00 0,00 0,00 4.358,58 479,44 170,19 0,00 649,63 3.708,95 884,00 0,00 30/04/2017
602 426900 DANIEL ALVES DA SILVA OFICIAL DO MP ATIVO BELO HORIZONTE - COMARCA; EXTINTA - PROTOCOLO DA PGJ 4.747,79 474,78 0,00 0,00 0,00 0,00 5.222,57 574,48 324,37 0,00 898,85 4.323,72 1.092,90 15,67 30/04/2017
603 122000 DANIEL ANTONIO VIEIRA OFICIAL DO MP ATIVO ENTRE-RIOS DE MINAS - COMARCA; ENTRE RIOS DE MINAS-PJ-SECRETARIA 8.594,48 6.016,14 0,00 0,00 0,00 0,00 14.610,62 1.607,17 2.445,90 0,00 4.053,07 10.557,55 884,00 0,00 30/04/2017
604 272401 DANIEL AUGUSTO DOS REIS ANALISTA DO MP ATIVO BELO HORIZONTE - COMARCA; BH-22PJ PES COM DEF E IDOSOS-ASS JURIDICA 10.416,20 1.041,62 0,00 0,00 0,00 0,00 11.457,82 1.260,36 1.934,94 0,00 3.195,30 8.262,52 884,00 0,00 30/04/2017
605 536301 DANIEL BATISTA MARIANO ANALISTA DO MP ATIVO BETIM - COMARCA; BETIM-PJ-06PJ 6.134,81 0,00 0,00 0,00 0,00 0,00 6.134,81 674,83 632,13 0,00 1.306,96 4.827,85 884,00 0,00 30/04/2017
606 411000 DANIEL FERREIRA DA SILVA ANALISTA DO MP ATIVO GOVERNADOR VALADARES - COMARCA; GOVERNADOR VALADARES-PJ-15PJ 9.163,30 1.832,66 0,00 0,00 0,00 0,00 10.995,96 1.209,56 1.717,63 0,00 2.927,19 8.068,77 1.583,00 0,00 30/04/2017
607 309000 DANIEL GOMES DOS SANTOS ANALISTA DO MP ATIVO POÇOS DE CALDAS - COMARCA; POCOS DE CALDAS-PJ-03PJ 12.623,91 2.524,78 0,00 0,00 0,00 0,00 15.148,69 1.666,36 2.838,28 0,00 4.504,64 10.644,05 1.583,00 0,00 30/04/2017
608 554500 DANIEL GOMES PEREIRA OFICIAL DO MP ATIVO NANUQUE - COMARCA; NANUQUE-PJ-02PJ 4.111,87 246,71 0,00 0,00 0,00 0,00 4.358,58 479,44 236,68 0,00 716,12 3.642,46 884,00 0,00 30/04/2017
609 453000 DANIEL GONCALVES PEREIRA ANALISTA DO MP ATIVO UNAÍ - COMARCA; UNAI-PJ-04PJ 8.594,48 859,45 0,00 0,00 0,00 0,00 9.453,93 1.039,93 1.444,49 0,00 2.484,42 6.969,51 884,00 0,00 30/04/2017
610 495500 DANIEL GUIMARAES CABRAL OFICIAL DO MP ATIVO BELO HORIZONTE - COMARCA; BH-17PJ PATRIMONIO PUBLICO-SECRETARIA 4.245,74 424,57 0,00 0,00 0,00 0,00 4.670,31 513,73 299,10 0,00 812,83 3.857,48 884,00 0,00 30/04/2017
611 442900 DANIEL GUIMARAES GONCALVES ANALISTA DO MP ATIVO UBERLÂNDIA - COMARCA; UBERLANDIA-PJ-03PJ 9.163,30 916,33 0,00 0,00 0,00 0,00 10.079,63 1.108,76 1.597,63 0,00 2.706,39 7.373,24 884,00 0,00 30/04/2017
612 491200 DANIEL HENRIQUE SOUTO COSTA ANALISTA DO MP ATIVO CORAÇÃO DE JESUS - COMARCA; CORACAO DE JESUS-PJ-UNPJ 7.806,95 780,70 0,00 0,00 0,00 0,00 8.587,65 944,64 1.232,47 0,00 2.177,11 6.410,54 884,00 0,00 30/04/2017
613 464600 DANIEL PIACENTINI STIVANIN ANALISTA DO MP ATIVO ANDRADAS - COMARCA; ANDRADAS-PJ-02PJ 8.594,48 859,45 0,00 0,00 0,00 0,00 9.453,93 1.039,93 1.444,49 0,00 2.484,42 6.969,51 884,00 0,00 30/04/2017
614 417000 DANIEL QUEIROZ FERREIRA ANALISTA DO MP ATIVO SÃO SEBASTIÃO DO PARAÍSO - COMARCA; SAO SEBASTIAO DO PARAISO-PJ-05PJ 9.163,30 916,33 0,00 0,00 0,00 0,00 10.079,63 1.108,76 1.597,63 0,00 2.706,39 7.373,24 884,00 0,00 30/04/2017
615 396700 DANIEL SILVA CARNEVALLI ASSESSOR/ANALISTA ATIVO BELO HORIZONTE - COMARCA; SUPERINTENDENCIA DE TECNOLOGIA DA INFORMACAO 10.416,20 3.192,68 0,00 0,00 0,00 0,00 13.608,88 1.260,36 2.526,48 0,00 3.786,84 9.822,04 884,00 0,00 30/04/2017
616 489300 DANIEL TABOZA ROCHA ANALISTA DO MP ATIVO IPATINGA - COMARCA; IPATINGA-PJ-08PJ 7.806,95 780,70 0,00 0,00 0,00 0,00 8.587,65 944,64 1.232,47 0,00 2.177,11 6.410,54 884,00 0,00 30/04/2017
617 414100 DANIEL TARDELI VALADAO ANALISTA DO MP ATIVO TRÊS CORACOES - COMARCA; TRES CORACOES-PJ-02PJ 9.163,30 916,33 0,00 0,00 0,00 0,00 10.079,63 1.108,76 1.493,35 0,00 2.602,11 7.477,52 3.027,60 0,00 30/04/2017
618 446601 DANIEL VIEIRA BUENO ANALISTA DO MP ATIVO SÃO DOMINGOS DO PRATA - COMARCA; SAO DOMINGOS DO PRATA-PJ-UNPJ 6.134,81 0,00 0,00 0,00 0,00 0,00 6.134,81 674,83 632,13 0,00 1.306,96 4.827,85 884,00 0,00 30/04/2017
619 253200 DANIELA BATISTA LIMA BARBOSA ASSESSOR ATIVO BELO HORIZONTE - COMARCA; CENTRAL DE APOIO TECN-SETOR DE MEIO AMBIENTE 0,00 876,79 4.383,93 0,00 0,00 0,00 5.260,72 608,44 653,12 0,00 1.261,56 3.999,16 884,00 0,00 30/04/2017
620 505800 DANIELA BORGES DE MATTOS RESENDE ANALISTA DO MP ATIVO JUIZ DE FORA - COMARCA; JUIZ DE FORA-PJ-20PJ 7.806,95 780,70 0,00 0,00 0,00 0,00 8.587,65 944,64 1.232,47 0,00 2.177,11 6.410,54 2.282,00 0,00 30/04/2017
621 478000 DANIELA CARVALHO SOARES ANALISTA DO MP ATIVO SÃO JOÃO DEL REI - COMARCA; SAO JOAO DEL REI-PJ-01PJ 8.594,48 859,45 0,00 0,00 0,00 0,00 9.453,93 1.039,93 1.444,49 0,00 2.484,42 6.969,51 884,00 0,00 30/04/2017
622 275900 DANIELA CHAGAS SODRE ANALISTA DO MP ATIVO BELO HORIZONTE - COMARCA; CENTRAL DE APOIO TECNICO-SETOR CONTABIL 12.623,91 2.524,78 0,00 0,00 0,00 0,00 15.148,69 1.666,36 2.786,14 0,00 4.452,50 10.696,19 1.583,00 0,00 30/04/2017
623 234301 DANIELA CRUZ SOARES ANALISTA DO MP ATIVO BELO HORIZONTE - COMARCA; LAB TECNOLOGIA CONTRA LAVAGEM DINHEIRO 13.034,76 2.606,95 0,00 0,00 0,00 0,00 15.641,71 1.720,59 2.958,95 0,00 4.679,54 10.962,17 1.509,67 57,35 30/04/2017
624 638000 DANIELA DE ALMEIDA BATISTA ANALISTA DO MP ATIVO ANDRELÂNDIA - COMARCA; ANDRELANDIA-PJ-UNPJ 5.572,67 0,00 0,00 0,00 0,00 0,00 5.572,67 608,44 495,80 0,00 1.104,24 4.468,43 1.583,00 0,00 30/04/2017
625 301000 DANIELA DE ALMEIDA E OLIVEIRA ANALISTA DO MP ATIVO BELO HORIZONTE - COMARCA; DIRETORIA DE SISTEMAS DE INFORMACAO 12.623,91 2.524,78 0,00 0,00 5.049,56 0,00 20.198,25 1.666,36 4.226,91 0,00 5.893,27 14.304,98 884,00 0,00 30/04/2017
626 296000 DANIELA DE AZEVEDO SILVA ANALISTA DO MP ATIVO ITAJUBA - COMARCA; ITAJUBA-PJ-03PJ 12.225,81 3.667,74 0,00 0,00 0,00 0,00 15.893,55 1.748,29 3.020,59 0,00 4.768,88 11.124,67 884,00 0,00 30/04/2017
627 453500 DANIELA DE CASTRO SOUSA BARBOSA ANALISTA DO MP ATIVO BELO HORIZONTE - COMARCA; BH-08PJ JUIZADO ESPECIAL-SECRETARIA 8.594,48 859,45 0,00 0,00 0,00 0,00 9.453,93 1.039,93 1.444,49 0,00 2.484,42 6.969,51 884,00 0,00 30/04/2017
628 506000 DANIELA DE OLIVEIRA CAVALIERI ANALISTA DO MP ATIVO BELO HORIZONTE - COMARCA; BH-14PJ DEFESA CONSUMIDOR-GAB 005PJ 6.540,78 654,08 0,00 0,00 0,00 0,00 7.194,86 791,43 891,58 0,00 1.683,01 5.511,85 884,00 0,00 30/04/2017
629 546200 DANIELA DE VILHENA LEMES GONCALVES OFICIAL DO MP ATIVO TRÊS CORACOES - COMARCA; TRES CORACOES-PJ-05PJ 4.111,87 246,71 0,00 0,00 0,00 0,00 4.358,58 479,44 170,19 0,00 649,63 3.708,95 884,00 0,00 30/04/2017
630 356400 DANIELA LEAL FERRAZ ANALISTA DO MP ATIVO MONTES CLAROS - COMARCA; COORD REG PJ DEF EDUC DIR CRIANCA ADOL NORTE 10.755,28 2.151,06 0,00 0,00 0,00 0,00 12.906,34 1.419,70 2.289,47 0,00 3.709,17 9.197,17 884,00 0,00 30/04/2017
631 501000 DANIELA LOURENCO SANTOS DA SILVA GUIMARAES ANALISTA DO MP ATIVO BELO HORIZONTE - COMARCA; BH-12PJ JUIZO CRIMINAL-GAB 086PJ 7.806,95 780,70 0,00 0,00 0,00 0,00 8.587,65 944,64 1.180,33 0,00 2.124,97 6.462,68 1.583,00 0,00 30/04/2017
632 195801 DANIELA MARIA DE OLIVEIRA QUEIROZ ANALISTA DO MP ATIVO ARAGUARI - COMARCA; ARAGUARI-PJ-06PJ 9.461,59 2.838,48 0,00 0,00 0,00 0,00 12.300,07 1.353,01 2.141,08 0,00 3.494,09 8.805,98 884,00 0,00 30/04/2017
633 511400 DANIELA MARIA LARA DE OLIVEIRA ANALISTA DO MP ATIVO BOA ESPERANÇA - COMARCA; BOA ESPERANCA-PJ-02PJ 7.200,69 720,07 0,00 0,00 0,00 0,00 7.920,76 871,28 1.017,11 0,00 1.888,39 6.032,37 884,00 0,00 30/04/2017
634 252101 DANIELA PAULA ALVES PENA ANALISTA DO MP ATIVO CONTAGEM - COMARCA; CONTAGEM-PJ-APO TECNICO 10.416,20 3.124,86 0,00 0,00 0,00 0,00 13.541,06 1.489,52 2.444,81 0,00 3.934,33 9.606,73 4.675,50 347,55 30/04/2017
635 604700 DANIELA PEIXOTO NOGUEIRA COORDENADOR/OFICIAL ATIVO BELO HORIZONTE - COMARCA; DIRET DE FORMACAO, APERFEIC. E POS-GRADUACAO 0,00 605,26 10.087,71 0,00 0,00 0,00 10.692,97 479,44 1.939,36 0,00 2.418,80 8.274,17 884,00 0,00 30/04/2017
636 429600 DANIELA PIMENTA NUNES MACHADO ANALISTA DO MP ATIVO BELO HORIZONTE - COMARCA; BH-05PJ JUÍZO DE SUCESSÕES 9.461,59 946,16 0,00 0,00 0,00 0,00 10.407,75 1.144,85 1.677,94 0,00 2.822,79 7.584,96 884,00 0,00 30/04/2017
637 424300 DANIELA PORTO PINTO OFICIAL DO MP ATIVO BELO HORIZONTE - COMARCA; EXTINTA-DEFESA DA SAUDE-19 PJ-GABINETE 5.226,73 522,67 0,00 0,00 0,00 0,00 5.749,40 632,43 537,81 0,00 1.170,24 4.579,16 1.583,00 0,00 30/04/2017
638 462000 DANIELA SOUSA GOMES DO AMARAL ANALISTA DO MP ATIVO BETIM - COMARCA; BETIM-PJ-04PJ 8.594,48 859,45 0,00 0,00 0,00 0,00 9.453,93 1.039,93 1.444,49 0,00 2.484,42 6.969,51 884,00 0,00 30/04/2017
639 427000 DANIELA TEIXEIRA DINIZ ANDRADE ANALISTA DO MP ATIVO BELO HORIZONTE - COMARCA; DIRETORIA DE PROJETOS DE EDIFICACOES 8.061,11 806,11 0,00 0,00 2.955,74 0,00 11.822,96 975,39 2.061,58 0,00 3.036,97 8.785,99 884,00 0,00 30/04/2017
640 337200 DANIELA TOLEDO SENIUK ANALISTA DO MP ATIVO BELO HORIZONTE - COMARCA; GABINETE DE PROCURADOR DE JUSTIÇA - SALA 412 9.769,61 1.953,92 0,00 0,00 0,00 0,00 11.723,53 1.289,59 1.947,84 0,00 3.237,43 8.486,10 884,00 0,00 30/04/2017
641 605600 DANIELE ALZIRA SILVA CABRAL MOREIRA OFICIAL DO MP ATIVO BELO HORIZONTE - COMARCA; BH-10PJ EXECUÇÃO PENAL 4.111,87 246,71 0,00 0,00 0,00 0,00 4.358,58 479,44 236,68 0,00 716,12 3.642,46 1.583,00 0,00 30/04/2017
642 195500 DANIELE CHAVES FONSECA OFICIAL DO MP ATIVO BELO HORIZONTE - COMARCA; ASSESSORIA ESPECIAL DO PGJ 11.466,98 3.440,09 0,00 0,00 0,00 0,00 14.907,07 1.639,78 2.779,14 0,00 4.418,92 10.488,15 1.480,28 54,66 30/04/2017
643 323400 DANIELE MEGALE SANTINI OFICIAL DO MP ATIVO BELO HORIZONTE - COMARCA; ASSESS TECNICO-JUR JUNTO AS PROC. DE JUST 7.322,31 1.464,46 0,00 0,00 0,00 0,00 8.786,77 966,54 1.229,07 0,00 2.195,61 6.591,16 884,00 0,00 30/04/2017
644 357900 DANIELE REJANE PINTO VERSIEUX OFICIAL DO MP ATIVO PEDRO LEOPOLDO - COMARCA; PEDRO LEOPOLDO-PJ-03PJ 6.753,72 1.350,74 0,00 0,00 0,00 0,00 8.104,46 891,49 1.114,21 0,00 2.005,70 6.098,76 884,00 0,00 30/04/2017
645 389500 DANIELE VASCONCELOS AMORIM OFICIAL DO MP ATIVO SÃO SEBASTIÃO DO PARAÍSO - COMARCA; SAO SEBASTIAO DO PARAISO-PJ-04PJ 6.540,78 654,08 0,00 0,00 0,00 0,00 7.194,86 791,43 891,58 0,00 1.683,01 5.511,85 884,00 0,00 30/04/2017
646 629700 DANIELLA BASTOS MARTINS BICALHO OFICIAL DO MP ATIVO GOVERNADOR VALADARES - COMARCA; GOVERNADOR VALADARES-PJ-SECRETARIA 3.617,27 0,00 0,00 0,00 0,00 0,00 3.617,27 397,90 128,11 0,00 526,01 3.091,26 884,00 0,00 30/04/2017
647 265000 DANIELLE CASTANHEIRA SCALABRINI OFICIAL DO MP ATIVO BELO HORIZONTE - COMARCA; JUNTA RECURSAL DO PROCON ESTADUAL 7.322,31 1.464,46 0,00 0,00 0,00 0,00 8.786,77 966,54 1.124,79 0,00 2.091,33 6.695,44 3.344,30 225,53 30/04/2017
648 490100 DANIELLE DE AVILA SILVA LOPES ANALISTA DO MP ATIVO BELO HORIZONTE - COMARCA; PROC. JUSTICA DIR. DIFUSOS E COLETIVOS-SEC 7.806,95 1.561,39 0,00 0,00 0,00 0,00 9.368,34 1.030,52 1.423,54 0,00 2.454,06 6.914,28 1.583,00 0,00 30/04/2017
649 549600 DANIELLE GOMES LOPES RODRIGUES OFICIAL DO MP ATIVO VESPASIANO - COMARCA; VESPASIANO-PJ-02PJ 4.111,87 246,71 0,00 0,00 0,00 0,00 4.358,58 479,44 236,68 0,00 716,12 3.642,46 1.583,00 0,00 30/04/2017
650 613000 DANIELLE SILVA OLIVEIRA FRANKLIN OFICIAL DO MP ATIVO BELO HORIZONTE - COMARCA; DIRETORIA DE ADMINISTRACAO FINANCEIRA 3.982,20 238,93 0,00 0,00 1.407,04 0,00 5.628,17 464,32 550,70 0,00 1.015,02 4.613,15 1.583,00 0,00 30/04/2017
651 380800 DANILLO RIBEIRO ANTUNES ANALISTA DO MP ATIVO MONTES CLAROS - COMARCA; MONTES CLAROS-PJ-SECRETARIA 10.416,20 1.041,62 0,00 0,00 0,00 0,00 11.457,82 1.260,36 1.830,67 0,00 3.091,03 8.366,79 884,00 0,00 30/04/2017
652 453700 DANILO BOTELHO DE CARVALHO COORDENADOR/ANALISTA ATIVO BELO HORIZONTE - COMARCA; DIRETORIA DE ADMINISTRACAO FINANCEIRA 9.163,30 2.933,87 0,00 0,00 0,00 0,00 12.097,17 1.108,76 2.152,45 0,00 3.261,21 8.835,96 2.282,00 0,00 30/04/2017
653 391200 DANILO D'AVILA MENDES ANALISTA DO MP ATIVO SÃO ROMÃO - COMARCA; SAO ROMAO-PJ-UNPJ 10.416,20 1.041,62 0,00 0,00 0,00 0,00 11.457,82 1.260,36 1.934,94 0,00 3.195,30 8.262,52 884,00 0,00 30/04/2017
654 494900 DANILO GAVIAO AVELINO DE MELLO ANALISTA DO MP ATIVO POUSO ALEGRE - COMARCA; GAECO REGIONAL DE POUSO ALEGRE 7.806,95 780,70 0,00 0,00 0,00 0,00 8.587,65 944,64 1.232,47 0,00 2.177,11 6.410,54 1.583,00 0,00 30/04/2017
655 604300 DANILO NASCIMENTO SALGADO ANALISTA DO MP ATIVO JANAÚBA - COMARCA; JANAUBA-PJ-01PJ 6.334,59 380,08 0,00 0,00 0,00 0,00 6.714,67 738,61 774,06 0,00 1.512,67 5.202,00 884,00 0,00 30/04/2017
656 550800 DANTE MENDES BIANCHETTI FILHO ANALISTA DO MP ATIVO BARBACENA - COMARCA; BARBACENA-PJ-SECRETARIA 6.334,59 380,08 0,00 0,00 0,00 0,00 6.714,67 738,61 774,06 0,00 1.512,67 5.202,00 884,00 0,00 30/04/2017
657 298300 DANUZA MONICA DE SOUZA DINIZ ANALISTA DO MP ATIVO DIVINÓPOLIS - COMARCA; DIVINOPOLIS-PJ-12PJ 10.087,71 2.017,54 0,00 0,00 0,00 0,00 12.105,25 1.331,58 2.041,26 0,00 3.372,84 8.732,41 3.305,05 221,93 30/04/2017
658 398700 DARCY LUIZ MILEO GREGATTI OFICIAL DO MP ATIVO LAMBARI - COMARCA; LAMBARI-PJ-SECRETARIA 6.334,59 633,46 0,00 0,00 0,00 0,00 6.968,05 766,49 836,07 0,00 1.602,56 5.365,49 884,00 0,00 30/04/2017
659 406200 DARIANA AUGUSTA DE TOLEDO PATROCINIO COORDENADOR/OFICIAL ATIVO BELO HORIZONTE - COMARCA; EXTINTA - DIRETORIA DE COMPRAS E LICITAÇÕES 0,00 1.146,70 11.466,98 0,00 0,00 0,00 12.613,68 791,43 2.381,76 0,00 3.173,19 9.440,49 884,00 0,00 30/04/2017
660 305000 DARLI LEITE DE OLIVEIRA OFICIAL DO MP ATIVO ARAÇUAÍ - COMARCA; ARACUAI-PJ-01PJ 5.226,73 1.045,35 0,00 0,00 0,00 0,00 6.272,08 689,93 509,32 0,00 1.199,25 5.072,83 1.583,00 0,00 30/04/2017
661 122200 DAVID RIBEIRO DOS SANTOS ANALISTA DO MP ATIVO BORDA DA MATA - COMARCA; BORDA DA MATA-PJ-UNPJ 16.063,25 12.850,61 0,00 0,00 0,00 0,00 28.913,86 3.180,52 6.207,31 0,00 9.387,83 19.526,03 5.510,22 424,07 30/04/2017
662 389400 DAWSON CANEDO MARQUES OFICIAL DO MP ATIVO VARGINHA - COMARCA; VARGINHA-PJ-06PJ 6.540,78 654,08 0,00 0,00 0,00 0,00 7.194,86 791,43 298,66 0,00 1.090,09 6.104,77 1.583,00 0,00 30/04/2017
663 256100 DAYSE ROSALY PEREIRA BATISTA OFICIAL DO MP ATIVO BELO HORIZONTE - COMARCA; BH-08PJ JUIZADO ESPECIAL-SECRETARIA 7.806,95 2.342,09 0,00 0,00 0,00 0,00 10.149,04 1.116,39 1.614,62 0,00 2.731,01 7.418,03 884,00 0,00 30/04/2017
664 311901 DEBORA APARECIDA DA SILVA ASSESSOR ATIVO BELO HORIZONTE - COMARCA; BH-23PJ CIVEL-SETOR ATEND PUB 0,00 0,00 2.625,65 0,00 0,00 0,00 2.625,65 386,06 85,30 0,00 471,36 2.154,29 884,00 0,00 30/04/2017
665 194301 DEBORA APARECIDA DOS SANTOS ANALISTA DO MP ATIVO UBERLÂNDIA - COMARCA; UBERLANDIA-PJ-SEC FAMILIA 13.228,78 3.968,63 0,00 0,00 0,00 0,00 17.197,41 1.891,72 3.287,57 0,00 5.179,29 12.018,12 3.635,59 252,23 30/04/2017
666 518800 DEBORA CARVALHO FIORATTO ASSESSOR/OFICIAL ATIVO BELO HORIZONTE - COMARCA; EXTINTA - DIRETORIA SERVIÇOS GERAIS E TRANS 0,00 697,36 6.973,61 0,00 0,00 0,00 7.670,97 653,03 1.060,57 0,00 1.713,60 5.957,37 1.583,00 0,00 30/04/2017
667 444900 DEBORA CLAUDIA PEREIRA ALVES ANALISTA DO MP ATIVO BELO HORIZONTE - COMARCA; BH-08PJ JUIZADO ESPECIAL-SECRETARIA 8.594,48 859,45 0,00 0,00 0,00 0,00 9.453,93 1.039,93 1.444,49 0,00 2.484,42 6.969,51 1.583,00 0,00 30/04/2017
668 617700 DEBORA COMANDUCI SCHREIDER ANALISTA DO MP ATIVO BICAS - COMARCA; BICAS-PJ-UNPJ 5.572,67 0,00 0,00 0,00 0,00 0,00 5.572,67 612,99 442,41 0,00 1.055,40 4.517,27 1.583,00 0,00 30/04/2017
669 555700 DEBORA CRISTINA BUITRAGO PEREIRA ANALISTA DO MP ATIVO BELO HORIZONTE - COMARCA; EXTINTA - DIRETORIA DE CONTRATOS E CONVÊNIOS 6.334,59 380,08 0,00 0,00 0,00 0,00 6.714,67 738,61 774,06 0,00 1.512,67 5.202,00 1.583,00 0,00 30/04/2017
670 513100 DEBORA CRISTINA PEREIRA DE OLIVEIRA ANALISTA DO MP ATIVO BELO HORIZONTE - COMARCA; BH-23PJ CIVEL-SETOR JURIDICO 7.806,95 780,70 0,00 0,00 0,00 0,00 8.587,65 944,64 1.232,47 0,00 2.177,11 6.410,54 1.583,00 0,00 30/04/2017
671 612100 DEBORA DUARTE SILVA DE SOUZA OFICIAL DO MP ATIVO RIBEIRÃO DAS NEVES - COMARCA; RIBEIRAO DAS NEVES-PJ-06PJ 3.982,20 796,44 0,00 0,00 0,00 0,00 4.778,64 525,65 235,48 0,00 761,13 4.017,51 1.583,00 0,00 30/04/2017
672 539700 DEBORA SALES CARVALHO ANALISTA DO MP ATIVO PATOS DE MINAS - COMARCA; COORD REG PJ DEF EDU DIR CRI ADO AL PAR NOROE 6.334,59 380,08 0,00 0,00 0,00 0,00 6.714,67 738,61 774,06 0,00 1.512,67 5.202,00 884,00 0,00 30/04/2017
673 424100 DEBORA SANTOS E ALVES ANALISTA DO MP ATIVO JANUÁRIA - COMARCA; JANUARIA-PJ-01PJ 9.461,59 946,16 0,00 0,00 3.469,25 0,00 13.877,00 1.144,85 2.631,98 0,00 3.776,83 10.100,17 1.583,00 0,00 30/04/2017
674 426301 DEBORA SCUCATO MACHADO SOARES OFICIAL DO MP ATIVO ITABIRITO - COMARCA; ITABIRITO-PJ-01PJ 4.111,87 411,19 0,00 0,00 0,00 0,00 4.523,06 497,54 269,61 0,00 767,15 3.755,91 1.583,00 0,00 30/04/2017
675 550200 DEBORA TRINDADE LEITE ANALISTA DO MP ATIVO MANHUAÇU - COMARCA; MANHUACU-PJ-05PJ 6.334,59 380,08 0,00 0,00 0,00 0,00 6.714,67 738,61 669,78 0,00 1.408,39 5.306,28 884,00 0,00 30/04/2017
676 438000 DEBORAH COSTA LAGE ANALISTA DO MP ATIVO BELO HORIZONTE - COMARCA; ASSESS TECNICO-JUR JUNTO AS PROC. DE JUST 9.461,59 946,16 0,00 0,00 0,00 0,00 10.407,75 1.144,85 1.677,94 0,00 2.822,79 7.584,96 884,00 0,00 30/04/2017
677 475700 DEBORAH LOBAO LACERDA ASSESSOR/OFICIAL ATIVO BELO HORIZONTE - COMARCA; BH-17PJ PATRIMONIO PUBLICO-SECRETARIA 0,00 697,36 6.973,61 0,00 0,00 0,00 7.670,97 612,50 1.071,72 0,00 1.684,22 5.986,75 884,00 0,00 30/04/2017
678 613700 DEISER MARIA FERREIRA ROSCOE OFICIAL DO MP ATIVO BELO HORIZONTE - COMARCA; DIRETORIA DE PAGAMENTO DE PESSOAL-DPAG 3.982,20 238,93 0,00 0,00 0,00 0,00 4.221,13 490,61 257,00 0,00 747,61 3.473,52 884,00 238,93 30/04/2017
679 551900 DEISY ROCHA SILVA FREIRE ANALISTA DO MP ATIVO JOÃO PINHEIRO - COMARCA; JOAO PINHEIRO-PJ-01PJ 6.334,59 380,08 0,00 0,00 0,00 0,00 6.714,67 738,61 774,06 0,00 1.512,67 5.202,00 884,00 0,00 30/04/2017
680 501900 DELI RAQUEL RODRIGUES ANALISTA DO MP ATIVO ITUIUTABA - COMARCA; ITUIUTABA-PJ-04PJ 7.806,95 780,70 0,00 0,00 0,00 0,00 8.587,65 944,64 1.232,47 0,00 2.177,11 6.410,54 884,00 0,00 30/04/2017
681 378600 DELIANE LOPES VIEIRA BREIJAO NEVES ANALISTA DO MP ATIVO JUIZ DE FORA - COMARCA; JUIZ DE FORA-PJ-12PJ 10.416,20 1.041,62 0,00 0,00 0,00 0,00 11.457,82 1.260,36 1.882,80 0,00 3.143,16 8.314,66 1.583,00 0,00 30/04/2017
682 522500 DELMINDA MARIA LEAO E SILVA OFICIAL DO MP ATIVO ITAGUARA - COMARCA; ITAGUARA-PJ-UNPJ 4.111,87 3.289,50 0,00 0,00 0,00 814,15 8.215,52 814,15 1.166,02 0,00 1.980,17 6.235,35 884,00 0,00 30/04/2017
683 487700 DENIA FERREIRA MAIA SILVA OFICIAL DO MP ATIVO TRÊS CORACOES - COMARCA; TRES CORACOES-PJ-01PJ 4.598,03 459,80 0,00 0,00 0,00 0,00 5.057,83 556,36 248,73 0,00 805,09 4.252,74 1.583,00 0,00 30/04/2017
684 424800 DENIS APARECIDO CAMPOS DELFINO ANALISTA DO MP ATIVO LUZ - COMARCA; LUZ-PJ-UNPJ 9.163,30 916,33 0,00 0,00 0,00 0,00 10.079,63 1.108,76 1.389,08 0,00 2.497,84 7.581,79 1.583,00 0,00 30/04/2017
685 381400 DENISE ANGELICA MELLO DE PAULA OFICIAL DO MP ATIVO BELO HORIZONTE - COMARCA; BH-18PJ DIREITOS HUMANOS-SECRETARIA 6.540,78 654,08 0,00 0,00 0,00 0,00 7.194,86 791,43 891,58 0,00 1.683,01 5.511,85 884,00 0,00 30/04/2017
686 196300 DENISE DE ALMEIDA VILELA FURTADO OFICIAL DO MP ATIVO BELO HORIZONTE - COMARCA; CENTRAL DE APOIO TECNICO-SECRETARIA 8.874,34 2.662,30 0,00 0,00 0,00 0,00 11.536,64 1.269,03 1.902,10 0,00 3.171,13 8.365,51 884,00 0,00 30/04/2017
687 336900 DENISE DE SOUSA MORAES SILVA OFICIAL DO MP ATIVO MATEUS LEME - COMARCA; MATEUS LEME-PJ-02PJ 5.226,73 1.045,35 0,00 0,00 0,00 0,00 6.272,08 689,93 665,73 0,00 1.355,66 4.916,42 884,00 0,00 30/04/2017
688 271100 DENISE ELOY PEIXOTO OFICIAL DO MP ATIVO BELO HORIZONTE - COMARCA; DIRET DE DESENV DE RECURSOS HUMANOS-DDRH 9.163,30 1.832,66 0,00 0,00 0,00 0,00 10.995,96 1.209,56 1.821,90 0,00 3.031,46 7.964,50 884,00 0,00 30/04/2017
689 385400 DENISE FREITAS DE ASSIS OFICIAL DO MP ATIVO CARATINGA - COMARCA; CARATINGA-PJ-05PJ 6.334,59 633,46 0,00 0,00 0,00 0,00 6.968,05 766,49 783,93 0,00 1.550,42 5.417,63 884,00 0,00 30/04/2017
690 437100 DENISE NOGUEIRA MAGRI MENDES ANALISTA DO MP ATIVO BELO HORIZONTE - COMARCA; LAB TECNOLOGIA CONTRA LAVAGEM DINHEIRO 9.461,59 2.838,48 0,00 0,00 0,00 0,00 12.300,07 1.353,01 1.984,67 0,00 3.337,68 8.962,39 884,00 0,00 30/04/2017
691 524700 DENISE RAMOS GUIMARAES OFICIAL DO MP ATIVO BELO HORIZONTE - COMARCA; BH-07PJ 01 TRIBUNAL JURI-SECRETARIA 4.453,07 445,31 0,00 0,00 0,00 0,00 4.898,38 538,82 344,77 0,00 883,59 4.014,79 884,00 0,00 30/04/2017
692 239100 DENISE RIBEIRO DOS SANTOS CAETANO OFICIAL DO MP ATIVO ITANHANDU - COMARCA; ITANHANDU-PJ-SECRETARIA 9.163,30 2.748,99 0,00 0,00 0,00 0,00 11.912,29 1.310,35 1.994,04 0,00 3.304,39 8.607,90 884,00 0,00 30/04/2017
693 325500 DENISE ROSA TORRES ASSESSOR/OFICIAL ATIVO BELO HORIZONTE - COMARCA; DIRETORIA DE PESSOAL ADMINISTRATIVO - DPAD 0,00 1.953,92 9.769,61 0,00 0,00 0,00 11.723,53 998,01 2.080,16 0,00 3.078,17 8.645,36 884,00 0,00 30/04/2017
694 437200 DENISE VIVIANE DOS SANTOS ANALISTA DO MP ATIVO BELO HORIZONTE - COMARCA; ASSESS TECNICA DA CORREGEDORIA-GERAL DO MP 8.594,48 859,45 0,00 0,00 3.151,31 0,00 12.605,24 1.039,93 2.258,96 0,00 3.298,89 9.306,35 1.932,00 0,00 30/04/2017
695 267900 DENISIA DE ALMEIDA SALES OFICIAL DO MP ATIVO BELO HORIZONTE - COMARCA; CAO-CRIMINAL-SECRETARIA 6.973,61 1.394,72 0,00 0,00 0,00 0,00 8.368,33 920,52 1.126,65 0,00 2.047,17 6.321,16 884,00 0,00 30/04/2017
696 480300 DESIREE ARANTES FERREIRA GOUVEA OFICIAL DO MP ATIVO PRATÁPOLIS - COMARCA; PRATAPOLIS-PJ-UNPJ 4.598,03 459,80 0,00 0,00 0,00 0,00 5.057,83 556,36 376,70 0,00 933,06 4.124,77 884,00 0,00 30/04/2017
697 355300 DEYSE CRISTINA MORAIS OFICIAL DO MP ATIVO PASSOS - COMARCA; PASSOS-PJ-02PJ 6.973,61 1.394,72 0,00 0,00 0,00 0,00 8.368,33 920,52 1.178,79 0,00 2.099,31 6.269,02 884,00 0,00 30/04/2017
698 523700 DIANA CAMPOS RESENDE OFICIAL DO MP ATIVO SÃO JOÃO DEL REI - COMARCA; SAO JOAO DEL REI-PJ-04PJ 5.396,93 2.698,47 0,00 0,00 0,00 0,00 8.095,40 890,49 1.007,72 0,00 1.898,21 6.197,19 884,00 0,00 30/04/2017
699 241900 DIANA CARDOSO MARTINS OFICIAL DO MP ATIVO BELO HORIZONTE - COMARCA; CAO-DH APOIO COMUNITARIO-SEC ADM 6.753,72 2.026,12 0,00 0,00 0,00 0,00 8.779,84 965,78 1.279,51 0,00 2.245,29 6.534,55 884,00 0,00 30/04/2017
700 410100 DIANA GORDILHO SILVEIRA SENA ANALISTA DO MP ATIVO BELO HORIZONTE - COMARCA; ASSESS TECNICO-JUR JUNTO AS PROC. DE JUST 9.461,59 946,16 0,00 0,00 0,00 0,00 10.407,75 1.144,85 1.677,94 0,00 2.822,79 7.584,96 884,00 0,00 30/04/2017
701 553000 DIANA MARIA MARQUES ANALISTA DO MP ATIVO BETIM - COMARCA; BETIM-PJ-13PJ 5.754,07 345,24 0,00 0,00 0,00 0,00 6.099,31 670,92 571,31 0,00 1.242,23 4.857,08 884,00 0,00 30/04/2017
702 520000 DIARLE TOSTE DOS SANTOS ANALISTA DO MP ATIVO RIO POMBA - COMARCA; RIO POMBA-PJ-UNPJ 7.806,95 780,70 0,00 0,00 2.862,55 0,00 11.450,20 944,64 1.967,53 0,00 2.912,17 8.538,03 884,00 0,00 30/04/2017
703 539800 DIEGO CAMARGOS RODRIGUES OFICIAL DO MP ATIVO CONTAGEM - COMARCA; CONTAGEM-PJ-19PJ 3.735,01 224,10 0,00 0,00 0,00 0,00 3.959,11 435,50 173,74 0,00 609,24 3.349,87 884,00 0,00 30/04/2017
704 607300 DIEGO CERVEIRA DE SOUZA ANALISTA DO MP ATIVO PATOS DE MINAS - COMARCA; COORD REG BACIAS PARACATU,URUCUIA E ABAETE 6.334,59 380,08 0,00 0,00 0,00 0,00 6.714,67 738,61 774,06 0,00 1.512,67 5.202,00 884,00 0,00 30/04/2017
705 446900 DIEGO DE FREITAS OFICIAL DO MP ATIVO UBERABA - COMARCA; UBERABA-PJ-06PJ 5.396,93 539,69 0,00 0,00 0,00 0,00 5.936,62 653,03 583,63 0,00 1.236,66 4.699,96 884,00 0,00 30/04/2017
706 288800 DILENE NEPOMUCENO ALVES OFICIAL DO MP ATIVO BELO HORIZONTE - COMARCA; DIRETORIA DE PESSOAL ADMINISTRATIVO - DPAD 7.806,95 1.561,39 0,00 0,00 3.122,78 0,00 12.491,12 1.030,52 2.282,31 0,00 3.312,83 9.178,29 884,00 0,00 30/04/2017
707 270101 DILSON DO AMARAL ANALISTA DO MP ATIVO RIO CASCA - COMARCA; RIO CASCA-PJ-UNPJ 6.334,59 380,08 0,00 0,00 0,00 0,00 6.714,67 738,61 774,06 0,00 1.512,67 5.202,00 884,00 0,00 30/04/2017
708 466000 DIMITRI GUDE MARCIAL ANALISTA DO MP ATIVO NANUQUE - COMARCA; NANUQUE-PJ-02PJ 7.806,95 780,70 0,00 0,00 2.862,55 0,00 11.450,20 944,64 1.967,53 0,00 2.912,17 8.538,03 1.583,00 0,00 30/04/2017
709 516300 DINORA APARECIDA MACEDO BRANDAO ANALISTA DO MP ATIVO BELO HORIZONTE - COMARCA; ASSESS JUR DO CONS SUPERIOR DO MINISTERIO PUB 6.540,78 654,08 0,00 0,00 0,00 0,00 7.194,86 791,43 891,58 0,00 1.683,01 5.511,85 884,00 0,00 30/04/2017
710 511700 DIOGENES HENRIQUES PEREIRA LOURENCO ANALISTA DO MP ATIVO CONTAGEM - COMARCA; CONTAGEM-PJ-22PJ 7.806,95 780,70 0,00 0,00 2.862,55 0,00 11.450,20 944,64 2.019,67 0,00 2.964,31 8.485,89 884,00 0,00 30/04/2017
711 604100 DIOGO CESAR DE OLIVEIRA HONORIO ASSESSOR ATIVO PIUMHI - COMARCA; PIUMHI-PJ-02PJ 0,00 0,00 4.383,93 0,00 0,00 0,00 4.383,93 579,47 419,97 0,00 999,44 3.384,49 884,00 0,00 30/04/2017
712 387800 DIOGO FELIX DA SILVA OFICIAL DO MP ATIVO CONSELHEIRO PENA - COMARCA; CONSELHEIRO PENA-PJ-01PJ 5.396,93 539,69 0,00 0,00 0,00 0,00 5.936,62 653,03 583,63 0,00 1.236,66 4.699,96 884,00 0,00 30/04/2017
713 259600 DIOGO MESQUITA MAIA ANALISTA DO MP ATIVO BELO HORIZONTE - COMARCA; DIRET DE APOIO AS PROCURADORIAS DE JUSTICA 12.225,81 9.780,64 0,00 0,00 0,00 0,00 22.006,45 2.420,71 4.412,44 0,00 6.833,15 15.173,30 5.285,29 403,45 30/04/2017
714 386700 DIRCIMAR FERNANDES CARNEIRO OFICIAL DO MP ATIVO VISCONDE DO RIO BRANCO - COMARCA; VISCONDE DO RIO BRANCO-PJ-03PJ 6.540,78 3.270,39 0,00 0,00 0,00 0,00 9.811,17 1.079,23 1.531,92 0,00 2.611,15 7.200,02 912,24 0,00 30/04/2017
715 113800 DIRSON APARECIDO GUIMARAES ASSESSOR ATIVO BELO HORIZONTE - COMARCA; DIVISAO DE MANUTENCAO PREDIAL 0,00 3.945,53 4.383,93 0,00 0,00 0,00 8.329,46 608,44 963,48 0,00 1.571,92 6.757,54 884,00 0,00 30/04/2017
716 216700 DOMICIO VALDETE PEREIRA OFICIAL DO MP ATIVO TEÓFILO OTONI - COMARCA; COORD REG PJ DEF EDU DIR CRIAN ADOL JEQUI MUC 10.755,28 3.226,58 0,00 0,00 0,00 0,00 13.981,86 1.538,00 2.344,15 0,00 3.882,15 10.099,71 884,00 0,00 30/04/2017
717 85700 DONIZETTE PEREIRA DOS SANTOS OFICIAL DO MP ATIVO BELO HORIZONTE - COMARCA; EXTINTA - PROTOCOLO DA PGJ 18.047,65 14.438,13 0,00 0,00 0,00 3.351,82 35.837,60 3.351,82 7.510,20 2.014,67 12.876,69 22.960,91 5.759,37 446,91 30/04/2017
718 192701 DONIZETTI APARECIDO AMORIM ANALISTA DO MP ATIVO PRATÁPOLIS - COMARCA; PRATAPOLIS-PJ-UNPJ 7.200,69 2.160,21 0,00 0,00 0,00 0,00 9.360,90 1.029,70 1.369,58 0,00 2.399,28 6.961,62 884,00 0,00 30/04/2017
719 558700 DORCILIA FATIMA DE OLIVEIRA OFICIAL DO MP ATIVO DIVINÓPOLIS - COMARCA; DIVINOPOLIS-PJ-02PJ 4.111,87 246,71 0,00 0,00 0,00 0,00 4.358,58 479,44 198,63 0,00 678,07 3.680,51 884,00 0,00 30/04/2017
720 555300 DOUGLAS CUNHA DE SOUZA ANALISTA DO MP ATIVO VARZEA DA PALMA - COMARCA; VARZEA DA PALMA-PJ-01PJ 6.334,59 380,08 0,00 0,00 0,00 0,00 6.714,67 738,61 774,06 0,00 1.512,67 5.202,00 884,00 0,00 30/04/2017
721 265900 DOUGLAS GOMES MOREIRA ANALISTA DO MP ATIVO BELO HORIZONTE - COMARCA; CENTRAL DE APOIO TECNICO-SETOR DE ENGENHARIA 13.228,78 2.645,76 0,00 0,00 0,00 0,00 15.874,54 1.746,20 3.015,93 0,00 4.762,13 11.112,41 884,00 0,00 30/04/2017
722 241000 DOUGLAS MEIRELLES DE CASTRO OFICIAL DO MP ATIVO CONCEIÇÃO DO RIO VERDE - COMARCA; CONCEICAO DO RIO VERDE-PJ-UNPJ 9.163,30 2.748,99 0,00 0,00 0,00 0,00 11.912,29 1.310,35 1.941,90 0,00 3.252,25 8.660,04 884,00 0,00 30/04/2017
723 534900 DOUGLAS SILVA E SOUZA ANALISTA DO MP ATIVO CAMPOS GERAIS - COMARCA; CAMPOS GERAIS-PJ-SECRETARIA 6.334,59 380,08 0,00 0,00 0,00 0,00 6.714,67 738,61 721,92 0,00 1.460,53 5.254,14 884,00 0,00 30/04/2017
724 630700 DOUGLAS TAVEIRA LEMOS DE OLIVEIRA ANALISTA DO MP ATIVO BELO HORIZONTE - COMARCA; BH-18PJ VIOLENCIA DOMESTICA 6.134,81 0,00 0,00 0,00 0,00 0,00 6.134,81 674,83 632,13 0,00 1.306,96 4.827,85 884,00 0,00 30/04/2017
725 638900 DOUGLAS WALLAS CONCEICAO NEVES OFICIAL DO MP ATIVO RIBEIRÃO DAS NEVES - COMARCA; RIBEIRAO DAS NEVES-PJ-SEC CIVEL 3.285,74 0,00 0,00 0,00 0,00 0,00 3.285,74 361,43 83,85 0,00 445,28 2.840,46 884,00 0,00 30/04/2017
726 146800 DUCINALVA AMARAL LOPES REIS OFICIAL DO MP ATIVO PARAISÓPOLIS - COMARCA; PARAISOPOLIS-PJ-UNPJ 13.228,78 9.260,15 0,00 0,00 0,00 0,00 22.488,93 2.473,78 4.530,53 0,00 7.004,31 15.484,62 5.381,79 412,30 30/04/2017
727 122500 DUILIO CARLOS FERREIRA UTSCH OFICIAL DO MP ATIVO CONCEIÇÃO DO MATO DENTRO - COMARCA; CONCEICAO DO MATO DENTRO-PJ-UNPJ 10.755,28 8.604,22 0,00 0,00 0,00 0,00 19.359,50 2.129,55 3.868,88 0,00 5.998,43 13.361,07 5.530,28 425,91 30/04/2017
728 201800 DULCINEIA ANDRE DE SOUZA OFICIAL DO MP ATIVO JEQUITINHONHA - COMARCA; JEQUITINHONHA-PJ-SECRETARIA 10.755,28 3.226,58 0,00 0,00 0,00 0,00 13.981,86 1.538,00 2.344,15 0,00 3.882,15 10.099,71 884,00 0,00 30/04/2017
729 395800 DUVIDIER MEDIRCIO JUNIOR ANALISTA DO MP ATIVO BELO HORIZONTE - COMARCA; CENTRAL DE APOIO TECNICO-SETOR DE ENGENHARIA 10.416,20 1.041,62 0,00 0,00 0,00 0,00 11.457,82 1.260,36 1.934,94 0,00 3.195,30 8.262,52 884,00 0,00 30/04/2017
730 604800 ECIA RAMILIS ISSA DE ABREU ANALISTA DO MP ATIVO MANGA - COMARCA; MANGA-PJ-01PJ 5.754,07 345,24 0,00 0,00 0,00 0,00 6.099,31 670,92 623,45 0,00 1.294,37 4.804,94 884,00 0,00 30/04/2017
731 273000 EDELFINA APARECIDA GUIMARAES OFICIAL DO MP ATIVO CACHOEIRA DE MINAS - COMARCA; CACHOEIRA DE MINAS-PJ-UNPJ 8.061,11 4.030,55 0,00 0,00 0,00 0,00 12.091,66 1.330,08 2.037,94 0,00 3.368,02 8.723,64 884,00 0,00 30/04/2017
732 523300 EDER DOS SANTOS PATRICIO ANALISTA DO MP ATIVO NOVA SERRANA - COMARCA; NOVA SERRANA-PJ-03PJ 7.560,72 756,07 0,00 0,00 0,00 0,00 8.316,79 914,85 1.166,17 0,00 2.081,02 6.235,77 884,00 0,00 30/04/2017
733 356700 EDER JOSE PACHECO OFICIAL DO MP ATIVO CAMPO BELO - COMARCA; CAMPO BELO-PJ-SECRETARIA 6.753,72 1.350,74 0,00 0,00 0,00 0,00 8.104,46 891,49 1.009,93 0,00 1.901,42 6.203,04 1.910,30 0,00 30/04/2017
734 507900 EDERSON SILVA LOPES OFICIAL DO MP ATIVO BELO HORIZONTE - COMARCA; DIR ANALISES TECNOLOGIA INTELIGENCIA 4.598,03 459,80 0,00 0,00 0,00 0,00 5.057,83 556,36 291,39 0,00 847,75 4.210,08 1.583,00 0,00 30/04/2017
735 296200 EDGARD GOULART MATOSINHO DE LAET JUNIOR ANALISTA DO MP ATIVO GOVERNADOR VALADARES - COMARCA; GOVERNADOR VALADARES-PJ-11PJ 12.225,81 2.445,16 0,00 0,00 0,00 0,00 14.670,97 1.613,81 2.564,95 0,00 4.178,76 10.492,21 884,00 0,00 30/04/2017
736 295000 EDILA MARIA DA SILVEIRA OFICIAL DO MP ATIVO FORMIGA - COMARCA; FORMIGA-PJ-04PJ 6.540,78 1.308,16 0,00 0,00 0,00 0,00 7.848,94 863,38 1.051,67 0,00 1.915,05 5.933,89 884,00 0,00 30/04/2017
737 332300 EDILA MARILAC MIRANDA PRADO OFICIAL DO MP ATIVO DIAMANTINA - COMARCA; COORD REG BACIAS RIOS JEQUITINHONHA E MUCURI 7.322,31 2.928,92 0,00 0,00 0,00 0,00 10.251,23 1.127,64 1.535,35 0,00 2.662,99 7.588,24 2.282,00 0,00 30/04/2017
738 376600 EDILANE CONSOLACAO ROSA NAZARETH ANALISTA DO MP ATIVO BETIM - COMARCA; BETIM-PJ-10PJ 10.416,20 1.041,62 0,00 0,00 0,00 0,00 11.457,82 1.260,36 1.934,94 0,00 3.195,30 8.262,52 884,00 0,00 30/04/2017
739 301500 EDILENE APARECIDA DE CARVALHO ANALISTA DO MP ATIVO BELO HORIZONTE - COMARCA; DIRETORIA DE ADMINISTRACAO FINANCEIRA 12.225,81 2.445,16 0,00 0,00 0,00 0,00 14.670,97 1.613,81 2.669,22 0,00 4.283,03 10.387,94 1.470,84 53,79 30/04/2017
740 309800 EDILZA DOS REIS OFICIAL DO MP ATIVO UBERLÂNDIA - COMARCA; UBERLANDIA-PJ-03PJ 8.061,11 1.612,22 0,00 0,00 0,00 0,00 9.673,33 1.064,07 1.498,19 0,00 2.562,26 7.111,07 884,00 0,00 30/04/2017
741 200500 EDINEIA MARIA DE OLIVEIRA ANTUNES OFICIAL DO MP ATIVO MONTES CLAROS - COMARCA; MONTES CLAROS-PJ-10PJ 10.755,28 4.302,11 0,00 0,00 0,00 0,00 15.057,39 1.656,31 2.815,94 0,00 4.472,25 10.585,14 2.185,30 55,21 30/04/2017
742 427700 EDISANGELA SOARES LOPES OFICIAL DO MP ATIVO PIRAPORA - COMARCA; PIRAPORA-PJ-02PJ 5.226,73 522,67 0,00 0,00 0,00 0,00 5.749,40 632,43 537,81 0,00 1.170,24 4.579,16 884,00 0,00 30/04/2017
743 555400 EDISON MONTEIRO SAMPAIO NETO ANALISTA DO MP ATIVO BELO HORIZONTE - COMARCA; BH-12PJ JUIZO CRIMINAL-GAB 094PJ 6.334,59 380,08 0,00 0,00 0,00 0,00 6.714,67 738,61 774,06 0,00 1.512,67 5.202,00 884,00 0,00 30/04/2017
744 517700 EDMILSON TADEU FERNANDES OFICIAL DO MP ATIVO POUSO ALEGRE - COMARCA; POUSO ALEGRE-PJ-SECRETARIA 5.061,97 506,20 0,00 0,00 0,00 0,00 5.568,17 612,50 493,45 0,00 1.105,95 4.462,22 884,00 0,00 30/04/2017
745 358400 EDNA APARECIDA SILVA FERREIRA OFICIAL DO MP ATIVO CORONEL FABRICIANO - COMARCA; CORONEL FABRICIANO-PJ-02PJ 6.753,72 1.350,74 0,00 0,00 0,00 0,00 8.104,46 891,49 1.114,21 0,00 2.005,70 6.098,76 884,00 0,00 30/04/2017
746 331800 EDNA MARCIA CAMILO DA SILVA OFICIAL DO MP ATIVO SETE LAGOAS - COMARCA; SETE LAGOAS-PJ-07PJ 7.560,72 1.512,14 0,00 0,00 0,00 0,00 9.072,86 998,01 1.299,09 0,00 2.297,10 6.775,76 884,00 0,00 30/04/2017
747 422800 EDNILSON DE SOUZA FERREIRA ASSESSOR ATIVO BELO HORIZONTE - COMARCA; DIRET DE INFORMACAO E EXPEDICAO DE PROCESSOS 0,00 0,00 2.625,65 0,00 0,00 0,00 2.625,65 386,06 63,03 0,00 449,09 2.176,56 884,00 0,00 30/04/2017
748 327900 EDRIEL SANTANA PEREIRA OFICIAL DO MP ATIVO TUPACIGUARA - COMARCA; TUPACIGUARA-PJ-UNPJ 7.560,72 1.512,14 0,00 0,00 0,00 0,00 9.072,86 998,01 1.351,22 0,00 2.349,23 6.723,63 1.583,00 0,00 30/04/2017
749 482400 EDSON GARCIA OFICIAL DO MP ATIVO MACHADO - COMARCA; MACHADO-PJ-02PJ 4.245,74 424,57 0,00 0,00 0,00 0,00 4.670,31 513,73 213,79 0,00 727,52 3.942,79 1.583,00 0,00 30/04/2017
750 225601 EDSON LABRE FILHO ANALISTA DO MP ATIVO VARGINHA - COMARCA; VARGINHA-PJ-01PJ 12.225,81 3.667,74 0,00 0,00 0,00 0,00 15.893,55 1.748,29 2.968,45 0,00 4.716,74 11.176,81 1.519,74 58,28 30/04/2017
751 602700 EDSON NOGUEIRA BUENO OFICIAL DO MP ATIVO PITANGUI - COMARCA; PITANGUI-PJ-02PJ 3.735,01 224,10 0,00 0,00 0,00 0,00 3.959,11 435,50 173,74 0,00 609,24 3.349,87 884,00 0,00 30/04/2017
752 414400 EDUARDO ABRANTES CAMPOS ANALISTA DO MP ATIVO SÃO JOÃO DEL REI - COMARCA; SAO JOAO DEL REI-PJ-02PJ 9.461,59 946,16 0,00 0,00 0,00 0,00 10.407,75 1.144,85 1.677,94 0,00 2.822,79 7.584,96 884,00 0,00 30/04/2017
753 476800 EDUARDO ALVES DE MOURA ANALISTA DO MP ATIVO UBERLÂNDIA - COMARCA; UBERLANDIA-PJ-19PJ 8.594,48 859,45 0,00 0,00 0,00 0,00 9.453,93 1.039,93 1.340,22 0,00 2.380,15 7.073,78 1.583,00 0,00 30/04/2017
754 390800 EDUARDO AMORIM PETTERSEN OFICIAL DO MP ATIVO CARANGOLA - COMARCA; CARANGOLA-PJ-03PJ 6.334,59 633,46 0,00 0,00 0,00 0,00 6.968,05 766,49 836,07 0,00 1.602,56 5.365,49 2.009,24 0,00 30/04/2017
755 633200 EDUARDO ANTONIO CODO SANTOS ASSESSOR ATIVO BELO HORIZONTE - COMARCA; ASSESSORIA ESPECIAL FINANCEIRA DO PGJAA 0,00 14.755,95 21.079,94 0,00 10.157,04 0,00 45.992,93 1.560,80 9.874,16 5.364,78 16.799,74 29.193,19 3.321,69 223,46 30/04/2017
756 461600 EDUARDO ANTONIO DE ASSIS FARIA ASSESSOR ATIVO BELO HORIZONTE - COMARCA; ASSESS EXECUTIVA DO CONSELHO SUPERIOR DO MP 0,00 0,00 4.383,93 0,00 0,00 0,00 4.383,93 579,47 333,46 0,00 912,93 3.471,00 1.583,00 0,00 30/04/2017
757 248800 EDUARDO DE CASTRO AMORIM ANALISTA DO MP ATIVO BELO HORIZONTE - COMARCA; EXTINTA - DIRETORIA DE CONTRATOS E CONVÊNIOS 14.297,05 2.859,41 0,00 0,00 0,00 0,00 17.156,46 1.887,21 3.329,68 0,00 5.216,89 11.939,57 3.629,03 251,63 30/04/2017
758 209100 EDUARDO DE SOUZA MAIA ANALISTA DO MP ATIVO BELO HORIZONTE - COMARCA; SUPERINTENDENCIA DE RECURSOS HUMANOS 15.451,48 4.635,44 0,00 0,00 0,00 0,00 20.086,92 2.209,56 3.890,50 0,00 6.100,06 13.986,86 884,00 0,00 30/04/2017
759 633900 EDUARDO GONCALVES PIRES OFICIAL DO MP ATIVO BELO HORIZONTE - COMARCA; BH-19PJ SAUDE-SECRETARIA 150PJ 3.982,20 1.194,66 0,00 0,00 0,00 0,00 5.176,86 613,26 495,14 0,00 1.108,40 4.068,46 884,00 398,22 30/04/2017
760 350500 EDUARDO GONCALVES RIBEIRO OFICIAL DO MP ATIVO VESPASIANO - COMARCA; VESPASIANO-PJ-04PJ 6.540,78 1.308,16 0,00 0,00 0,00 0,00 7.848,94 863,38 1.051,67 0,00 1.915,05 5.933,89 884,00 0,00 30/04/2017
761 115800 EDUARDO HENRIQUE DE CAMPOS MAIA OFICIAL DO MP ATIVO BELO HORIZONTE - COMARCA; EXTINTA - DIVISAO DE SERVICOS GERAIS 12.225,81 4.890,32 0,00 0,00 5.705,38 0,00 22.821,51 1.882,77 4.784,52 0,00 6.667,29 16.154,22 884,00 0,00 30/04/2017
762 392600 EDUARDO HENRIQUE DOS SANTOS COSTA ELIAZAR OFICIAL DO MP ATIVO MATOZINHOS - COMARCA; MATOZINHOS-PJ-01PJ 5.754,07 575,41 0,00 0,00 0,00 0,00 6.329,48 696,24 523,37 0,00 1.219,61 5.109,87 1.583,00 0,00 30/04/2017
763 122900 EDUARDO JOSE COSTA SILVA OFICIAL DO MP ATIVO SETE LAGOAS - COMARCA; SETE LAGOAS-PJ-04PJ 16.063,25 12.850,61 0,00 0,00 0,00 0,00 28.913,86 3.180,52 6.207,31 0,00 9.387,83 19.526,03 5.510,22 424,07 30/04/2017
764 418700 EDUARDO LEMOS SIMOES OFICIAL DO MP ATIVO LAVRAS - COMARCA; COORD REG DO MA DA BACIA DO RIO GRANDE 5.754,07 575,41 0,00 0,00 0,00 0,00 6.329,48 696,24 679,78 0,00 1.376,02 4.953,46 884,00 0,00 30/04/2017
765 407500 EDUARDO MASCARENHAS CURI AZEVEDO ANALISTA DO MP ATIVO BELO HORIZONTE - COMARCA; DIRETORIA DE IMPRENSA 8.594,48 859,45 0,00 0,00 0,00 0,00 9.453,93 1.039,93 1.444,49 0,00 2.484,42 6.969,51 884,00 0,00 30/04/2017
766 601300 EDUARDO TRAD VIEIRA OFICIAL DO MP ATIVO IBIRITÉ - COMARCA; IBIRITE-PJ-04PJ 3.617,27 0,00 0,00 0,00 0,00 0,00 3.617,27 397,90 128,11 0,00 526,01 3.091,26 884,00 0,00 30/04/2017
767 257600 EDUARDO VALADARES CABRAL ANALISTA DO MP ATIVO BELO HORIZONTE - COMARCA; ASSESSORIA JURIDICA DO PROCON-MG 10.755,28 2.151,06 0,00 0,00 4.302,11 0,00 17.208,45 1.419,70 3.472,55 0,00 4.892,25 12.316,20 884,00 0,00 30/04/2017
768 545700 EDVAIR FERREIRA DE CARVALHO OFICIAL DO MP ATIVO ARAGUARI - COMARCA; ARAGUARI-PJ-06PJ 3.735,01 224,10 0,00 0,00 0,00 0,00 3.959,11 435,50 116,86 0,00 552,36 3.406,75 884,00 0,00 30/04/2017
769 401700 EDWANIA AMORIM DO CARMO OFICIAL DO MP ATIVO RIBEIRÃO DAS NEVES - COMARCA; RIBEIRAO DAS NEVES-PJ-03PJ 6.540,78 654,08 0,00 0,00 0,00 0,00 7.194,86 791,43 891,58 0,00 1.683,01 5.511,85 884,00 0,00 30/04/2017
770 303600 EFIGENIO SARAIVA LOPES ANALISTA DO MP ATIVO BELO HORIZONTE - COMARCA; DIRETORIA DE PAGAMENTO DE PESSOAL-DPAG 13.228,78 2.645,76 0,00 0,00 0,00 0,00 15.874,54 1.746,20 2.911,66 0,00 4.657,86 11.216,68 884,00 0,00 30/04/2017
771 312000 ELAINE APARECIDA DE ARAUJO RODRIGUES OFICIAL DO MP ATIVO DIVINÓPOLIS - COMARCA; DIVINOPOLIS-PJ-02PJ 7.322,31 5.125,61 0,00 0,00 0,00 1.369,27 13.817,19 1.369,27 2.553,82 0,00 3.923,09 9.894,10 884,00 0,00 30/04/2017
772 286000 ELAINE APARECIDA SILVA BERZOINI OFICIAL DO MP ATIVO JUIZ DE FORA - COMARCA; JUIZ DE FORA-PJ-07PJ 7.806,95 1.561,39 0,00 0,00 0,00 0,00 9.368,34 1.030,52 1.423,54 0,00 2.454,06 6.914,28 884,00 0,00 30/04/2017
773 509000 ELAINE CANDIDA PONTES OFICIAL DO MP ATIVO BELO HORIZONTE - COMARCA; BH-02PJ FAMILIA-SECRETARIA 4.598,03 459,80 0,00 0,00 0,00 0,00 5.057,83 556,36 376,70 0,00 933,06 4.124,77 884,00 0,00 30/04/2017
774 283601 ELAINE CRISTINA MEQUELINO DUARTE ANALISTA DO MP ATIVO ALFENAS - COMARCA; ALFENAS-PJ-04PJ 10.416,20 1.041,62 0,00 0,00 0,00 0,00 11.457,82 1.260,36 1.830,67 0,00 3.091,03 8.366,79 1.583,00 0,00 30/04/2017
775 535500 ELAINE DE OLIVEIRA CAMPOS REIS OFICIAL DO MP ATIVO RIBEIRÃO DAS NEVES - COMARCA; RIBEIRAO DAS NEVES-PJ-11PJ 4.111,87 246,71 0,00 0,00 0,00 0,00 4.358,58 479,44 236,68 0,00 716,12 3.642,46 884,00 0,00 30/04/2017
776 455700 ELAINE DE OLIVEIRA CASTRO ANALISTA DO MP ATIVO POMPÉU - COMARCA; POMPEU-PJ-UNPJ 7.806,95 780,70 0,00 0,00 0,00 0,00 8.587,65 944,64 1.180,33 0,00 2.124,97 6.462,68 1.583,00 0,00 30/04/2017
777 367200 ELAINE MUNIZ BARBOSA ANALISTA DO MP ATIVO BELO HORIZONTE - COMARCA; DIRETORIA DE REDES E BANCOS DE DADOS 10.755,28 2.151,06 0,00 0,00 0,00 0,00 12.906,34 1.419,70 2.289,47 0,00 3.709,17 9.197,17 884,00 0,00 30/04/2017
778 176900 ELAINE RIBEIRO TAVEIRA OFICIAL DO MP ATIVO BELO HORIZONTE - COMARCA; DIRETORIA DE PESSOAL ADMINISTRATIVO - DPAD 9.461,59 2.838,48 0,00 0,00 0,00 0,00 12.300,07 1.353,01 2.141,08 0,00 3.494,09 8.805,98 884,00 0,00 30/04/2017
779 496200 ELAINE SABRINA DIAS MOREIRA ANALISTA DO MP ATIVO CORONEL FABRICIANO - COMARCA; CORONEL FABRICIANO-PJ-03PJ 7.806,95 780,70 0,00 0,00 0,00 0,00 8.587,65 944,64 1.232,47 0,00 2.177,11 6.410,54 884,00 0,00 30/04/2017
780 489200 ELAINE VICENTINO GARCIA ANALISTA DO MP ATIVO BELO HORIZONTE - COMARCA; CENTRAL DE APOIO TECNICO-SETOR CONTABIL 7.806,95 1.561,39 0,00 0,00 0,00 0,00 9.368,34 1.030,52 1.319,27 0,00 2.349,79 7.018,55 1.583,00 0,00 30/04/2017
781 244500 ELCI ALVES DE SOUZA ASSESSOR ATIVO BELO HORIZONTE - COMARCA; CAO-CONFLITOS AGRARIOS-SECRETARIA 0,00 876,79 4.383,93 0,00 0,00 0,00 5.260,72 608,44 600,98 0,00 1.209,42 4.051,30 884,00 0,00 30/04/2017
782 472500 ELCI VAZ DE OLIVEIRA FILHO ANALISTA DO MP ATIVO PIUMHI - COMARCA; PIUMHI-PJ-02PJ 8.594,48 3.437,79 0,00 0,00 0,00 0,00 12.032,27 1.323,55 2.075,54 0,00 3.399,09 8.633,18 884,00 0,00 30/04/2017
783 385200 ELCI VIANA REIS OFICIAL DO MP ATIVO RIO PARDO DE MINAS - COMARCA; RIO PARDO DE MINAS-PJ-SECRETARIA 6.540,78 2.616,31 0,00 0,00 0,00 0,00 9.157,09 1.007,28 1.371,84 0,00 2.379,12 6.777,97 884,00 0,00 30/04/2017
784 289801 ELCIO JOSE DOS SANTOS ASSESSOR/ANALISTA ATIVO BELO HORIZONTE - COMARCA; EXTINTA - DIRETORIA SERVIÇOS GERAIS E TRANS 0,00 1.075,53 10.755,28 0,00 0,00 0,00 11.830,81 1.039,93 2.098,13 0,00 3.138,06 8.692,75 884,00 0,00 30/04/2017
785 319600 ELEN TULER DE ALBERGARIA ANALISTA DO MP ATIVO BELO HORIZONTE - COMARCA; BH-19PJ SAUDE 10.087,71 3.026,31 0,00 0,00 0,00 0,00 13.114,02 1.442,54 2.340,30 0,00 3.782,84 9.331,18 2.282,00 0,00 30/04/2017
786 333100 ELENILDA ROCHA DE MORAES MELO OFICIAL DO MP ATIVO MAR DE ESPANHA - COMARCA; MAR DE ESPANHA-PJ-SECRETARIA 5.226,73 1.045,35 0,00 0,00 0,00 0,00 6.272,08 689,93 613,59 0,00 1.303,52 4.968,56 884,00 0,00 30/04/2017
787 151000 ELI LOURENCO RIBEIRO AGENTE DO MP ATIVO BELO HORIZONTE - COMARCA; BH-17PJ PATRIMONIO PUBLICO-SECRETARIA 8.594,48 3.437,79 0,00 0,00 0,00 0,00 12.032,27 1.323,55 1.600,71 0,00 2.924,26 9.108,01 884,00 0,00 30/04/2017
788 205500 ELIANA ALVES DE SOUSA OFICIAL DO MP ATIVO GOVERNADOR VALADARES - COMARCA; GOVERNADOR VALADARES-PJ-07PJ 7.322,31 2.196,69 0,00 0,00 0,00 0,00 9.519,00 1.047,09 1.460,42 0,00 2.507,51 7.011,49 884,00 0,00 30/04/2017
789 628800 ELIANA APARECIDA PEREIRA ANALISTA DO MP ATIVO CAMBUÍ - COMARCA; CAMBUI-PJ-02PJ 5.572,67 0,00 0,00 0,00 0,00 0,00 5.572,67 612,99 442,41 0,00 1.055,40 4.517,27 884,00 0,00 30/04/2017
790 301700 ELIANA DA SILVEIRA ANALISTA DO MP ATIVO BELO HORIZONTE - COMARCA; ASSESS TECNICO-JUR JUNTO AS PROC. DE JUST 11.105,40 2.221,08 0,00 0,00 0,00 0,00 13.326,48 1.465,91 2.392,30 0,00 3.858,21 9.468,27 5.681,53 439,77 30/04/2017
791 103400 ELIANA DE FARIA MORAIS JOTTA OFICIAL DO MP ATIVO BELO HORIZONTE - COMARCA; DIRET DE PESSOAL DO MINISTERIO PUBLICO - DPMP 21.079,94 10.539,97 0,00 0,00 0,00 0,00 31.619,91 3.351,82 6.484,17 1.148,80 10.984,79 20.635,12 5.759,38 446,91 30/04/2017
792 251500 ELIANA DE LIMA MILAGRES FONSECA ANALISTA DO MP ATIVO CONTAGEM - COMARCA; CONTAGEM-PJ-25PJ 11.840,34 2.368,07 0,00 0,00 0,00 0,00 14.208,41 1.562,93 2.503,87 0,00 4.066,80 10.141,61 884,00 0,00 30/04/2017
793 503900 ELIANA DIAS DUTRA FERREIRA OFICIAL DO MP ATIVO GOVERNADOR VALADARES - COMARCA; GOVERNADOR VALADARES-PJ-10PJ 5.572,67 557,27 0,00 0,00 0,00 0,00 6.129,94 674,29 526,67 0,00 1.200,96 4.928,98 0,00 0,00 30/04/2017
794 413900 ELIANA PINTO DE OLIVEIRA NEVES ANALISTA DO MP ATIVO CAMPO BELO - COMARCA; CAMPO BELO-PJ-03PJ 9.163,30 916,33 0,00 0,00 0,00 0,00 10.079,63 1.108,76 1.597,63 0,00 2.706,39 7.373,24 1.583,00 0,00 30/04/2017
795 228200 ELIANA RODRIGUES DA CUNHA PINHEIRO OFICIAL DO MP ATIVO BELO HORIZONTE - COMARCA; DIVISAO DE CONTROLE IMOBILIARIO 7.833,37 2.350,01 0,00 0,00 0,00 1.120,17 11.303,55 1.120,17 1.931,07 0,00 3.051,24 8.252,31 2.313,47 131,03 30/04/2017
796 386600 ELIANA SABINO CHAVES ANALISTA DO MP ATIVO CARATINGA - COMARCA; CARATINGA-PJ-06PJ 9.461,59 4.730,80 0,00 0,00 0,00 0,00 14.192,39 1.561,16 2.552,09 0,00 4.113,25 10.079,14 5.425,56 416,31 30/04/2017
797 297400 ELIANE AUGUSTA RIBEIRO COSTA ANALISTA DO MP ATIVO CONSELHEIRO LAFAIETE - COMARCA; CONSELHEIRO LAFAIETE-PJ-05PJ 12.623,91 2.524,78 0,00 0,00 0,00 0,00 15.148,69 1.666,36 2.681,87 0,00 4.348,23 10.800,46 884,00 0,00 30/04/2017
798 510600 ELIANE CAROLINA MAIA ANALISTA DO MP ATIVO IGARAPÉ - COMARCA; IGARAPE-PJ-02PJ 7.806,95 780,70 0,00 0,00 0,00 0,00 8.587,65 944,64 1.023,92 0,00 1.968,56 6.619,09 1.583,00 0,00 30/04/2017
799 269300 ELIANE EDLAMAR ROCHA OFICIAL DO MP ATIVO PEDRO LEOPOLDO - COMARCA; PEDRO LEOPOLDO-PJ-02PJ 7.560,72 1.512,14 0,00 0,00 0,00 0,00 9.072,86 998,01 1.299,09 0,00 2.297,10 6.775,76 1.583,00 0,00 30/04/2017
800 359100 ELIANE FARIAS DE OLIVEIRA ASSESSOR ATIVO BELO HORIZONTE - COMARCA; EXTINTA-TUTELA DAS FUNDACOES-21 PJ- GABINETE 0,00 0,00 2.625,65 0,00 0,00 0,00 2.625,65 386,06 113,74 0,00 499,80 2.125,85 884,00 0,00 30/04/2017
801 262600 ELIANE FERREIRA SOARES ASSESSOR ATIVO BELO HORIZONTE - COMARCA; BH-18PJ DIREITOS HUMANOS-SECRETARIA 0,00 1.315,18 4.383,93 0,00 0,00 0,00 5.699,11 608,44 721,54 0,00 1.329,98 4.369,13 884,00 0,00 30/04/2017
802 204400 ELIANE GLAUCE DE QUEIROS MAIA OFICIAL DO MP ATIVO GUANHÃES - COMARCA; GUANHAES-PJ-01PJ 10.755,28 3.226,58 0,00 0,00 4.660,62 0,00 18.642,48 1.538,00 3.834,37 0,00 5.372,37 13.270,11 1.583,00 0,00 30/04/2017
803 91800 ELIANE KAPLER COORDENADOR/OFICIAL ATIVO BELO HORIZONTE - COMARCA; DIRET DE CONTROLE E DE MANUTENCAO DE IMOVEIS 14.863,02 9.954,26 0,00 0,00 0,00 0,00 24.817,28 2.452,40 5.176,71 0,00 7.629,11 17.188,17 5.847,46 454,98 30/04/2017
804 334200 ELIANE MARCIA DE OLIVEIRA BRITO OFICIAL DO MP ATIVO BELO HORIZONTE - COMARCA; BH-08PJ JUIZADO ESPECIAL-SECRETARIA 5.226,73 1.045,35 0,00 0,00 0,00 0,00 6.272,08 689,93 665,73 0,00 1.355,66 4.916,42 884,00 0,00 30/04/2017
805 365900 ELIANE MARIA DE OLIVEIRA FERREIRA OFICIAL DO MP ATIVO SETE LAGOAS - COMARCA; SETE LAGOAS-PJ-11PJ 7.322,31 2.928,92 0,00 0,00 0,00 0,00 10.251,23 1.127,64 1.639,63 0,00 2.767,27 7.483,96 1.294,05 37,59 30/04/2017
806 320600 ELIANE STADLER DE SOUZA OFICIAL DO MP ATIVO FRANCISCO SÁ - COMARCA; FRANCISCO SA-PJ-SECRETARIA 6.753,72 1.350,74 0,00 0,00 0,00 0,00 8.104,46 891,49 1.062,07 0,00 1.953,56 6.150,90 884,00 0,00 30/04/2017
807 448900 ELIAS PEREIRA OTONI ASSESSOR ATIVO BELO HORIZONTE - COMARCA; BH-18PJ DIREITOS HUMANOS 0,00 0,00 4.383,93 0,00 0,00 0,00 4.383,93 579,47 333,46 0,00 912,93 3.471,00 884,00 0,00 30/04/2017
808 495400 ELICA SOUZA GASPARONI MATTOS OFICIAL DO MP ATIVO UBÁ - COMARCA; UBA-PJ-06PJ 5.572,67 557,27 0,00 0,00 0,00 0,00 6.129,94 674,29 630,94 0,00 1.305,23 4.824,71 1.583,00 0,00 30/04/2017
809 86600 ELIENE FERREIRA DA SILVA OFICIAL DO MP ATIVO BELO HORIZONTE - COMARCA; BH-22PJ PES COM DEF E IDOSOS 18.047,65 12.633,36 0,00 0,00 0,00 0,00 30.681,01 3.351,82 6.432,03 209,90 9.993,75 20.687,26 6.458,38 446,91 30/04/2017
810 183800 ELIENE MARIA CUNHA OFICIAL DO MP ATIVO BELO HORIZONTE - COMARCA; DIRETORIA DE PESSOAL ADMINISTRATIVO - DPAD 11.105,40 3.331,62 0,00 0,00 0,00 0,00 14.437,02 1.588,07 2.611,96 0,00 4.200,03 10.236,99 1.461,48 52,94 30/04/2017
811 172300 ELINA APARECIDA SILVA ASSESSOR ATIVO BELO HORIZONTE - COMARCA; BH-19PJ SAUDE-SECRETARIA 130PJ 0,00 787,70 2.625,65 0,00 0,00 0,00 3.413,35 472,71 162,02 0,00 634,73 2.778,62 884,00 0,00 30/04/2017
812 492501 ELINE CAMPOS DA FONSECA CUNHA ANALISTA DO MP ATIVO JEQUERI - COMARCA; JEQUERI-PJ-UNPJ 6.134,81 613,48 0,00 0,00 0,00 0,00 6.748,29 742,31 782,28 0,00 1.524,59 5.223,70 884,00 0,00 30/04/2017
813 618900 ELISA MOURA VIEIRA MARCATTI OFICIAL DO MP ATIVO BELO HORIZONTE - COMARCA; BH-23PJ CIVEL-SEC EXP CIVEIS 3.982,20 0,00 0,00 0,00 0,00 0,00 3.982,20 438,04 176,82 0,00 614,86 3.367,34 884,00 0,00 30/04/2017
814 256500 ELISABETE NOGUEIRA ANALISTA DO MP ATIVO RIBEIRÃO DAS NEVES - COMARCA; RIBEIRAO DAS NEVES-PJ-10PJ 10.755,28 4.302,11 0,00 0,00 0,00 0,00 15.057,39 1.656,31 2.659,53 0,00 4.315,84 10.741,55 1.583,00 0,00 30/04/2017
815 355000 ELISANGELA DARLANTONI RIBEIRO OFICIAL DO MP ATIVO ARAXÁ - COMARCA; ARAXA-PJ-05PJ 6.334,59 1.266,92 0,00 0,00 0,00 0,00 7.601,51 836,17 938,97 0,00 1.775,14 5.826,37 1.583,00 0,00 30/04/2017
816 604400 ELISANGELA DEMASI FERREIRA MOREIRA ANALISTA DO MP ATIVO CAXAMBU - COMARCA; CAXAMBU-PJ-UNPJ 6.334,59 380,08 0,00 0,00 0,00 0,00 6.714,67 738,61 774,06 0,00 1.512,67 5.202,00 1.583,00 0,00 30/04/2017
817 323800 ELISANGELA GONCALVES DE JESUS OFICIAL DO MP ATIVO BELO HORIZONTE - COMARCA; BH-09PJ AUDITORIA MILITAR-SECRETARIA 6.334,59 1.266,92 0,00 0,00 0,00 0,00 7.601,51 836,17 938,97 0,00 1.775,14 5.826,37 1.583,00 0,00 30/04/2017
818 261400 ELISANGELA MENDES OFICIAL DO MP ATIVO POUSO ALEGRE - COMARCA; POUSO ALEGRE-PJ-05PJ 7.322,31 1.464,46 0,00 0,00 0,00 0,00 8.786,77 966,54 1.281,20 0,00 2.247,74 6.539,03 884,00 0,00 30/04/2017
819 507400 ELISANGELA MIGUEL DA ROCHA SILVA ASSESSOR ATIVO BELO HORIZONTE - COMARCA; CGMP-DIVIS DE APOIO FISC ORIENTACAO FUNCIONAL 0,00 0,00 2.625,65 0,00 0,00 0,00 2.625,65 386,06 85,30 0,00 471,36 2.154,29 1.583,00 0,00 30/04/2017
820 534100 ELISANGELA ROSINE SILVA OFICIAL DO MP ATIVO UBERABA - COMARCA; UBERABA-PJ-06PJ 3.735,01 224,10 0,00 0,00 0,00 0,00 3.959,11 435,50 173,74 0,00 609,24 3.349,87 884,00 0,00 30/04/2017
821 634300 ELIUDE GRACA DAMASIO ROSARIO FRANCELINO OFICIAL DO MP ATIVO BELO HORIZONTE - COMARCA; EXTINTA-DEF DIREIT HUM-COMB A VIOL DOMEST-18 3.285,74 0,00 0,00 0,00 0,00 0,00 3.285,74 361,43 83,85 0,00 445,28 2.840,46 884,00 0,00 30/04/2017
822 461700 ELIZABETH ALEIXO DA PAZ ANALISTA DO MP ATIVO JUIZ DE FORA - COMARCA; JUIZ DE FORA-PJ-24PJ 8.594,48 859,45 0,00 0,00 0,00 0,00 9.453,93 1.039,93 1.444,49 0,00 2.484,42 6.969,51 884,00 0,00 30/04/2017
823 227300 ELIZABETH COIMBRA FELIX ASSESSOR/OFICIAL ATIVO BELO HORIZONTE - COMARCA; DIRETORIA DE PAGAMENTO DE PESSOAL-DPAG 9.461,59 4.989,55 0,00 0,00 0,00 0,00 14.451,14 1.353,01 2.628,35 0,00 3.981,36 10.469,78 1.462,05 52,99 30/04/2017
824 354800 ELIZABETH DOS REIS OFICIAL DO MP ATIVO BELO HORIZONTE - COMARCA; EXTINTA - DIVISÃO DE MATERIAL PERMANENTE 7.322,31 1.464,46 0,00 0,00 0,00 0,00 8.786,77 966,54 1.229,07 0,00 2.195,61 6.591,16 884,00 0,00 30/04/2017
825 612000 ELIZABETH MARIA DE QUEIROZ TANIGUCHI OFICIAL DO MP ATIVO BELO HORIZONTE - COMARCA; SUPERINTENDENCIA DE RECURSOS HUMANOS 3.617,27 217,04 0,00 0,00 0,00 0,00 3.834,31 421,77 157,08 0,00 578,85 3.255,46 884,00 0,00 30/04/2017
826 452800 ELIZANGELA MARIA DAVI OFICIAL DO MP ATIVO ARCOS - COMARCA; ARCOS-PJ-01PJ 4.598,03 459,80 0,00 0,00 0,00 0,00 5.057,83 556,36 334,04 0,00 890,40 4.167,43 1.583,00 0,00 30/04/2017
827 496300 ELIZANGELA MARQUES PINTO COELHO OFICIAL DO MP ATIVO BELO HORIZONTE - COMARCA; DIRETORIA DE PESSOAL ADMINISTRATIVO - DPAD 5.572,67 557,27 0,00 0,00 0,00 0,00 6.129,94 674,29 630,94 0,00 1.305,23 4.824,71 1.583,00 0,00 30/04/2017
828 422500 ELIZETE FORTES DA CUNHA ANALISTA DO MP ATIVO RIBEIRÃO DAS NEVES - COMARCA; RIBEIRAO DAS NEVES-PJ-07PJ 9.461,59 946,16 0,00 0,00 0,00 0,00 10.407,75 1.144,85 1.625,80 0,00 2.770,65 7.637,10 1.583,00 0,00 30/04/2017
829 506100 ELLEM CRISTINA ROCHA FONSECA BOWEN ANALISTA DO MP ATIVO GOVERNADOR VALADARES - COMARCA; COORD REG PJ DEF EDU DIR CRIANCA ADOL RIODOCE 7.806,95 780,70 0,00 0,00 0,00 0,00 8.587,65 944,64 1.232,47 0,00 2.177,11 6.410,54 1.583,00 0,00 30/04/2017
830 468200 ELLEN CRISTINA BERNARDES DARE ANALISTA DO MP ATIVO TRÊS PONTAS - COMARCA; TRES PONTAS-PJ-02PJ 8.594,48 859,45 0,00 0,00 0,00 0,00 9.453,93 1.039,93 1.392,35 0,00 2.432,28 7.021,65 1.583,00 0,00 30/04/2017
831 418800 ELLEN CRISTINA DE QUEIROZ FERREIRA ANALISTA DO MP ATIVO BELO HORIZONTE - COMARCA; CENTRAL DE APOIO TECNICO-SETOR CONTABIL 9.163,30 916,33 0,00 0,00 0,00 0,00 10.079,63 1.108,76 1.597,63 0,00 2.706,39 7.373,24 1.583,00 0,00 30/04/2017
832 328401 ELLEN CRISTINA FERREIRA MORAIS MONTEIRO ANALISTA DO MP ATIVO CAMANDUCAIA - COMARCA; CAMANDUCAIA-PJ-UNPJ 9.163,30 916,33 0,00 0,00 0,00 0,00 10.079,63 1.108,76 1.493,35 0,00 2.602,11 7.477,52 1.583,00 0,00 30/04/2017
833 556100 ELLEN CRISTINE BIANCHIN DA SILVA OFICIAL DO MP ATIVO SÃO GONÇALO DO SAPUCAÍ - COMARCA; SAO GONCALO DO SAPUCAI-PJ-02PJ 3.735,01 224,10 0,00 0,00 0,00 0,00 3.959,11 435,50 145,30 0,00 580,80 3.378,31 944,16 0,00 30/04/2017
834 447100 ELLEN ROSANA DE MACEDO BORGES OFICIAL DO MP ATIVO UBERLÂNDIA - COMARCA; UBERLANDIA-PJ-17PJ 5.754,07 575,41 0,00 0,00 0,00 0,00 6.329,48 696,24 679,78 0,00 1.376,02 4.953,46 884,00 0,00 30/04/2017
835 477700 ELMA JACOB OFICIAL DO MP ATIVO BELO HORIZONTE - COMARCA; COORD DE GABINETE DO PGJ 5.572,67 3.900,87 0,00 0,00 0,00 1.042,09 10.515,63 1.042,09 1.735,86 0,00 2.777,95 7.737,68 884,00 0,00 30/04/2017
836 123300 ELMA PAULA DOS SANTOS COELHO OFICIAL DO MP ATIVO BELO HORIZONTE - COMARCA; BH-19PJ SAUDE-SECRETARIA 130PJ 13.228,78 11.905,90 0,00 0,00 0,00 2.764,81 27.899,49 2.764,81 6.042,68 0,00 8.807,49 19.092,00 884,00 0,00 30/04/2017
837 356500 ELOISA CARDOSO SILVA FRANCA OFICIAL DO MP ATIVO PEÇANHA - COMARCA; PECANHA-PJ-SECRETARIA 5.226,73 1.045,35 0,00 0,00 0,00 0,00 6.272,08 689,93 509,32 0,00 1.199,25 5.072,83 884,00 0,00 30/04/2017
838 251901 ELOISA COSTA E SILVA ANALISTA DO MP ATIVO SANTOS DUMONT - COMARCA; SANTOS DUMONT-PJ-02PJ 7.806,95 1.561,39 0,00 0,00 0,00 0,00 9.368,34 1.030,52 1.371,40 0,00 2.401,92 6.966,42 1.583,00 0,00 30/04/2017
839 400400 ELOIZA MARIA FERRI PIRES DA SILVA OFICIAL DO MP ATIVO BELO HORIZONTE - COMARCA; ASSESSORIA TECNICA DO PROCON-MG 5.754,07 575,41 0,00 0,00 0,00 0,00 6.329,48 696,24 627,64 0,00 1.323,88 5.005,60 884,00 0,00 30/04/2017
840 258000 ELSO CECIANO PALMEIRA OFICIAL DO MP ATIVO BELO HORIZONTE - COMARCA; DIRET DE PESSOAL DO MINISTERIO PUBLICO - DPMP 8.874,34 4.437,17 0,00 0,00 0,00 0,00 13.311,51 1.464,27 2.336,49 0,00 3.800,76 9.510,75 884,00 0,00 30/04/2017
841 206900 ELVIRA RITA DOS SANTOS ANALISTA DO MP ATIVO BELO HORIZONTE - COMARCA; CENTRAL DE APOIO TECNICO-SETOR CONTABIL 16.063,25 4.818,98 0,00 0,00 0,00 2.297,05 23.179,28 2.297,05 4.873,25 0,00 7.170,30 16.008,98 884,00 0,00 30/04/2017
842 506800 ELVIS FERREIRA DA SILVA ANALISTA DO MP ATIVO BELO HORIZONTE - COMARCA; DIRETORIA DE SISTEMAS DE INFORMACAO 7.806,95 780,70 0,00 0,00 2.862,55 0,00 11.450,20 944,64 1.967,53 0,00 2.912,17 8.538,03 884,00 0,00 30/04/2017
843 602400 ELZA MARIA MOREIRA MUNIZ ANALISTA DO MP ATIVO CARMO DO PARANAÍBA - COMARCA; CARMO DO PARANAIBA-PJ-02PJ 6.334,59 380,08 0,00 0,00 0,00 0,00 6.714,67 738,61 774,06 0,00 1.512,67 5.202,00 884,00 0,00 30/04/2017
844 368401 ELZIRA SIMOES DOS SANTOS ASSESSOR ATIVO BELO HORIZONTE - COMARCA; SUPERINTENDENCIA DE COMUNICACAO INTEGRADA 0,00 1.953,92 9.769,61 0,00 0,00 0,00 11.723,53 608,44 2.430,39 0,00 3.038,83 8.684,70 884,00 0,00 30/04/2017
845 437400 EMANOELLE DA SILVA RODRIGUES OFICIAL DO MP ATIVO UNAÍ - COMARCA; UNAI-PJ-03PJ 5.572,67 557,27 0,00 0,00 0,00 0,00 6.129,94 674,29 578,81 0,00 1.253,10 4.876,84 1.583,00 0,00 30/04/2017
846 458900 EMANUELLE CONRAD SILVA FREDERICO ANALISTA DO MP ATIVO ALFENAS - COMARCA; ALFENAS-PJ-05PJ 9.163,30 916,33 0,00 0,00 0,00 0,00 10.079,63 1.108,76 1.597,63 0,00 2.706,39 7.373,24 884,00 0,00 30/04/2017
847 284100 EMERSON MAGNO ALMEIDA PEDROSA DA FONSECA ANALISTA DO MP ATIVO BELO HORIZONTE - COMARCA; CENTRAL DE APOIO TECNICO-SETOR CONTABIL 12.623,91 2.524,78 0,00 0,00 0,00 0,00 15.148,69 1.666,36 1.790,83 0,00 3.457,19 11.691,50 5.731,58 444,36 30/04/2017
848 179900 EMERSON MORAIS DIAS OFICIAL DO MP ATIVO BELO HORIZONTE - COMARCA; EXTINTA - DIVISÃO DE APOIO À LICITAÇÃO 11.105,40 3.331,62 0,00 0,00 0,00 0,00 14.437,02 1.588,07 2.664,10 0,00 4.252,17 10.184,85 1.461,48 52,94 30/04/2017
849 488700 EMERSON SIQUEIRA DE SOUSA TEIXEIRA ANALISTA DO MP ATIVO TARUMIRIM - COMARCA; TARUMIRIM-PJ-UNPJ 7.806,95 780,70 0,00 0,00 0,00 0,00 8.587,65 944,64 1.076,06 0,00 2.020,70 6.566,95 1.583,00 0,00 30/04/2017
850 194200 EMILIA ALVES FERREIRA RAMOS OFICIAL DO MP ATIVO UBERLÂNDIA - COMARCA; UBERLANDIA-PJ-SEC FAMILIA 5.754,07 1.726,22 0,00 0,00 0,00 0,00 7.480,29 822,83 857,17 0,00 1.680,00 5.800,29 884,00 0,00 30/04/2017
851 123400 EMILIO CARLOS MARTINS OFICIAL DO MP ATIVO AREADO - COMARCA; AREADO-PJ-UNPJ 13.034,76 10.427,81 0,00 0,00 0,00 0,00 23.462,57 2.580,88 4.820,97 0,00 7.401,85 16.060,72 884,00 0,00 30/04/2017
852 620700 EMILY FONTANA DE SIQUEIRA ANALISTA DO MP ATIVO BELO HORIZONTE - COMARCA; BH-18PJ VIOLENCIA DOMESTICA 6.134,81 0,00 0,00 0,00 0,00 0,00 6.134,81 674,83 632,13 0,00 1.306,96 4.827,85 884,00 0,00 30/04/2017
853 297000 ENEIDA SOARES COSTA MELO ANALISTA DO MP ATIVO PIUMHI - COMARCA; PIUMHI-PJ-01PJ 12.623,91 2.524,78 0,00 0,00 0,00 0,00 15.148,69 1.666,36 2.838,28 0,00 4.504,64 10.644,05 1.489,95 55,55 30/04/2017
854 276000 ENEZIO RODRIGUES DE SOUZA FILHO OFICIAL DO MP ATIVO UBERLÂNDIA - COMARCA; UBERLANDIA-PJ-02PJ 7.560,72 1.512,14 0,00 0,00 0,00 0,00 9.072,86 998,01 1.351,22 0,00 2.349,23 6.723,63 884,00 0,00 30/04/2017
855 387700 ENI MARIA DOS REIS OFICIAL DO MP ATIVO POUSO ALEGRE - COMARCA; POUSO ALEGRE-PJ-04PJ 6.540,78 654,08 0,00 0,00 0,00 0,00 7.194,86 791,43 891,58 0,00 1.683,01 5.511,85 884,00 0,00 30/04/2017
856 605100 ENIA MAIA ASSESSOR/OFICIAL ATIVO BELO HORIZONTE - COMARCA; DIRETORIA DE ORCAMENTO-DIOR/SPC 0,00 532,46 8.874,34 0,00 0,00 0,00 9.406,80 479,44 1.585,66 0,00 2.065,10 7.341,70 884,00 0,00 30/04/2017
857 612200 ENILDO GOMES MEIRA FILHO ANALISTA DO MP ATIVO BUENÓPOLIS - COMARCA; BUENOPOLIS-PJ-UNPJ 6.134,81 368,09 0,00 0,00 0,00 0,00 6.502,90 715,32 617,95 0,00 1.333,27 5.169,63 1.583,00 0,00 30/04/2017
858 553700 ENIVALDO NOVATO PUBLIO ANALISTA DO MP ATIVO DIVINÓPOLIS - COMARCA; DIVINOPOLIS-PJ-09PJ 6.334,59 380,08 0,00 0,00 0,00 0,00 6.714,67 738,61 721,92 0,00 1.460,53 5.254,14 884,00 0,00 30/04/2017
859 417300 ERIC BARATTI DA SILVA ANALISTA DO MP ATIVO PRATA - COMARCA; PRATA-PJ-UNPJ 8.594,48 859,45 0,00 0,00 0,00 0,00 9.453,93 1.039,93 1.444,49 0,00 2.484,42 6.969,51 884,00 0,00 30/04/2017
860 637600 ERIC DA ROCHA CHEHUEN ANALISTA DO MP ATIVO LIMA DUARTE - COMARCA; LIMA DUARTE-PJ-UNPJ 5.572,67 0,00 0,00 0,00 0,00 0,00 5.572,67 608,44 495,80 0,00 1.104,24 4.468,43 884,00 0,00 30/04/2017
861 398900 ERIC TEIXEIRA SILVA OFICIAL DO MP ATIVO UBERLÂNDIA - COMARCA; UBERLANDIA-PJ-08PJ 6.334,59 633,46 0,00 0,00 2.322,68 0,00 9.290,73 766,49 1.474,81 0,00 2.241,30 7.049,43 884,00 0,00 30/04/2017
862 274200 ERICA DE SOUZA ANDRADE OFICIAL DO MP ATIVO CURVELO - COMARCA; CURVELO-PJ-05PJ 8.061,11 1.612,22 0,00 0,00 0,00 0,00 9.673,33 1.064,07 1.446,05 0,00 2.510,12 7.163,21 884,00 0,00 30/04/2017
863 225700 ERICA GOMES DO COUTO OFICIAL DO MP ATIVO BELO HORIZONTE - COMARCA; CAO-TS-TERCEIRO SETOR-SECRETARIA 10.416,20 3.124,86 0,00 0,00 0,00 0,00 13.541,06 1.489,52 2.444,81 0,00 3.934,33 9.606,73 884,00 0,00 30/04/2017
864 632600 ERICA LEONOR MARTINS OFICIAL DO MP ATIVO RESENDE COSTA - COMARCA; RESENDE COSTA-PJ-UNPJ 3.285,74 0,00 0,00 0,00 0,00 0,00 3.285,74 361,43 83,85 0,00 445,28 2.840,46 884,00 0,00 30/04/2017
865 524800 ERICA MACHADO DA COSTA E SOUZA ANALISTA DO MP ATIVO BELO HORIZONTE - COMARCA; PROC JUST RECURSOS ESP E EXTRAORD CRIMINAIS 7.560,72 756,07 0,00 0,00 0,00 0,00 8.316,79 914,85 1.166,17 0,00 2.081,02 6.235,77 884,00 0,00 30/04/2017
866 249500 ERICA RODRIGUES ANDRADE OFICIAL DO MP ATIVO SÃO FRANCISCO - COMARCA; SAO FRANCISCO-PJ-02PJ 6.753,72 1.350,74 0,00 0,00 0,00 0,00 8.104,46 891,49 1.062,07 0,00 1.953,56 6.150,90 1.583,00 0,00 30/04/2017
867 260800 ERICA VIANA GIARDINI DE OLIVEIRA OFICIAL DO MP ATIVO BELO HORIZONTE - COMARCA; EXTINTA - DIVISÃO DE COMPRAS 8.323,51 1.664,70 0,00 0,00 0,00 0,00 9.988,21 1.098,70 1.575,26 0,00 2.673,96 7.314,25 884,00 0,00 30/04/2017
868 299800 ERICH DOUGLAS RIBEIRO GARCIA ANALISTA DO MP ATIVO BELO HORIZONTE - COMARCA; CENTRAL DE APOIO TECNICO-SETOR CONTABIL 12.225,81 2.445,16 0,00 0,00 0,00 0,00 14.670,97 1.613,81 2.721,36 0,00 4.335,17 10.335,80 5.578,71 430,35 30/04/2017
869 365000 ERICK EDUARDO JOSE DA SILVA OFICIAL DO MP ATIVO SANTOS DUMONT - COMARCA; SANTOS DUMONT-PJ-02PJ 5.226,73 1.045,35 0,00 0,00 0,00 0,00 6.272,08 689,93 665,73 0,00 1.355,66 4.916,42 884,00 0,00 30/04/2017
870 227400 ERIKA DE LAET GOULART BOECHAT ASSESSOR/OFICIAL ATIVO BELO HORIZONTE - COMARCA; ASSESSORIA ESPECIAL DO PGJ 10.416,20 5.275,93 0,00 0,00 0,00 0,00 15.692,13 1.489,52 2.984,22 0,00 4.473,74 11.218,39 6.604,48 460,30 30/04/2017
871 285100 ERIKA FERREIRA DA SILVA OFICIAL DO MP ATIVO JUIZ DE FORA - COMARCA; JUIZ DE FORA-PJ-14PJ 8.061,11 1.612,22 0,00 0,00 0,00 0,00 9.673,33 1.064,07 1.498,19 0,00 2.562,26 7.111,07 884,00 0,00 30/04/2017
872 420100 ERIKA JEANINE VERSIANI DE CASTRO ANALISTA DO MP ATIVO MONTES CLAROS - COMARCA; COORD REG PJ DEF EDUC DIR CRIANCA ADOL NORTE 9.461,59 946,16 0,00 0,00 0,00 0,00 10.407,75 1.144,85 1.677,94 0,00 2.822,79 7.584,96 884,00 0,00 30/04/2017
873 606900 ERIKA MARIA BARBOSA ANALISTA DO MP ATIVO BELO HORIZONTE - COMARCA; CAO-SAUDE 5.754,07 0,00 0,00 0,00 0,00 0,00 5.754,07 632,95 486,81 0,00 1.119,76 4.634,31 884,00 0,00 30/04/2017
874 491000 ERIKA ROCHA BARRETO ASSESSOR/ANALISTA ATIVO BELO HORIZONTE - COMARCA; DIRETORIA DE SISTEMAS DE INFORMACAO 0,00 887,43 8.874,34 0,00 0,00 0,00 9.761,77 944,64 1.555,35 0,00 2.499,99 7.261,78 884,00 0,00 30/04/2017
875 283201 ERIKA STEHLING COORDENADOR/ANALISTA ATIVO BELO HORIZONTE - COMARCA; CENTRAL DE APOIO TECNICO-SETOR DE ENGENHARIA 0,00 1.008,77 10.087,71 0,00 0,00 0,00 11.096,48 944,64 1.870,26 0,00 2.814,90 8.281,58 884,00 0,00 30/04/2017
876 254000 ERLANDIA DA SILVA MENDES OFICIAL DO MP ATIVO IPATINGA - COMARCA; IPATINGA-PJ-03PJ 9.163,30 3.665,32 0,00 0,00 0,00 0,00 12.828,62 1.411,15 2.114,03 0,00 3.525,18 9.303,44 884,00 0,00 30/04/2017
877 208600 ERNANE JOSE DA COSTA ANALISTA DO MP ATIVO BELO HORIZONTE - COMARCA; CENTRAL DE APOIO TECNICO-SETOR MEDICO 16.063,25 11.244,28 0,00 0,00 0,00 0,00 27.307,53 3.003,83 5.814,16 0,00 8.817,99 18.489,54 884,00 0,00 30/04/2017
878 260600 ERNANI CALDEIRA DE ANDRADE ANALISTA DO MP ATIVO BELO HORIZONTE - COMARCA; CENTRAL DE APOIO TECNICO-SETOR CONTABIL 13.752,51 4.125,75 0,00 0,00 0,00 0,00 17.878,26 2.117,89 3.969,00 0,00 6.086,89 11.791,37 884,00 1.833,67 30/04/2017
879 348500 ERNILANDIA OLIVEIRA DIAS OFICIAL DO MP ATIVO MONTES CLAROS - COMARCA; MONTES CLAROS-PJ-SECRETARIA 6.540,78 1.308,16 0,00 0,00 0,00 0,00 7.848,94 863,38 1.051,67 0,00 1.915,05 5.933,89 884,00 0,00 30/04/2017
880 199300 ERTON PORTINARI DE ANDRADE OFICIAL DO MP ATIVO SETE LAGOAS - COMARCA; SETE LAGOAS-PJ-01PJ 10.755,28 4.302,11 0,00 0,00 0,00 0,00 15.057,39 1.656,31 2.711,66 0,00 4.367,97 10.689,42 1.486,30 55,21 30/04/2017
881 618800 ESLY DE CARLA AYALLA BARBOSA MENDES OFICIAL DO MP ATIVO NOVA LIMA - COMARCA; NOVA LIMA-PJ-01PJ 3.617,27 0,00 0,00 0,00 0,00 0,00 3.617,27 397,90 128,11 0,00 526,01 3.091,26 884,00 0,00 30/04/2017
882 537000 ESTANISLAU CORREIA ALMEIDA JUNIOR OFICIAL DO MP ATIVO UBERLÂNDIA - COMARCA; UBERLANDIA-PJ-25PJ 3.735,01 224,10 0,00 0,00 0,00 0,00 3.959,11 435,50 173,74 0,00 609,24 3.349,87 884,00 0,00 30/04/2017
883 326900 ESTER ALICE PIMENTA OFICIAL DO MP ATIVO BELO HORIZONTE - COMARCA; COORD DE INCLUSAO E MOBILIZACAO SOCIAIS 7.560,72 1.512,14 0,00 0,00 0,00 0,00 9.072,86 1.049,34 1.413,27 0,00 2.462,61 6.610,25 884,00 466,56 30/04/2017
884 503700 ESTHER GONCALVES FONSECA ANALISTA DO MP ATIVO BELO HORIZONTE - COMARCA; DIRETORIA DE PUBLICIDADE INSTITUCIONAL 6.540,78 654,08 0,00 0,00 0,00 0,00 7.194,86 791,43 891,58 0,00 1.683,01 5.511,85 884,00 0,00 30/04/2017
885 475600 ETIENE DE FATIMA OLIVEIRA PEREIRA ANALISTA DO MP ATIVO PATROCÍNIO - COMARCA; PATROCINIO-PJ-04PJ 8.594,48 859,45 0,00 0,00 0,00 0,00 9.453,93 1.039,93 1.340,22 0,00 2.380,15 7.073,78 1.583,00 0,00 30/04/2017
886 428800 EUGENIA RODRIGUES TRAJANO BORGES ANALISTA DO MP ATIVO UBERABA - COMARCA; UBERABA-PJ-08PJ 9.163,30 916,33 0,00 0,00 3.359,88 0,00 13.439,51 1.108,76 2.521,60 0,00 3.630,36 9.809,15 884,00 0,00 30/04/2017
887 272700 EUGENIO DE BARCELOS FILHO OFICIAL DO MP ATIVO FRUTAL - COMARCA; FRUTAL-PJ-02PJ 6.540,78 1.308,16 0,00 0,00 0,00 0,00 7.848,94 863,38 999,53 0,00 1.862,91 5.986,03 884,00 0,00 30/04/2017
888 254100 EULALIA ALVES MIRANDA LUCAS OFICIAL DO MP ATIVO ALMENARA - COMARCA; ALMENARA-PJ-SECRETARIA 8.874,34 2.662,30 0,00 0,00 0,00 0,00 11.536,64 1.366,65 2.067,16 0,00 3.433,81 8.102,83 884,00 887,43 30/04/2017
889 615500 EUNICE BARBOSA PINTO OFICIAL DO MP ATIVO RIBEIRÃO DAS NEVES - COMARCA; RIBEIRAO DAS NEVES-PJ-SEC CRIMINAL 3.982,20 0,00 0,00 0,00 0,00 0,00 3.982,20 438,04 176,82 0,00 614,86 3.367,34 884,00 0,00 30/04/2017
890 641200 EUNICE ELVIRA DA SILVA MATOS OFICIAL DO MP ATIVO BELO HORIZONTE - COMARCA; BH-14PJ DEFESA CONSUMIDOR-SECRETARIA 3.285,74 0,00 0,00 0,00 0,00 0,00 3.285,74 361,43 83,85 0,00 445,28 2.840,46 884,00 0,00 30/04/2017
891 557900 EURIPEDES JUSUE PERES OFICIAL DO MP ATIVO IBIÁ - COMARCA; IBIA-PJ-UNPJ 3.735,01 224,10 0,00 0,00 1.319,70 0,00 5.278,81 435,50 462,55 0,00 898,05 4.380,76 884,00 0,00 30/04/2017
892 225800 EURO CESAR VIEIRA BARBOSA ANALISTA DO MP ATIVO BELO HORIZONTE - COMARCA; BH-17PJ PATRIMONIO PUBLICO 16.063,25 4.818,98 0,00 0,00 0,00 0,00 20.882,23 2.297,05 4.137,29 0,00 6.434,34 14.447,89 5.895,74 459,41 30/04/2017
893 199400 EUSTAQUIO ADAILTON LIMA E SILVA OFICIAL DO MP ATIVO MANGA - COMARCA; MANGA-PJ-01PJ 10.755,28 5.377,64 0,00 0,00 0,00 0,00 16.132,92 1.774,62 2.870,62 0,00 4.645,24 11.487,68 884,00 0,00 30/04/2017
894 249000 EUSTAQUIO GOMES DE OLIVEIRA OFICIAL DO MP ATIVO BELO HORIZONTE - COMARCA; CAO-TS-CONTROLADORIA E APOIO AS ENTIDADES  8.323,51 3.329,40 0,00 0,00 0,00 1.281,82 12.934,73 1.281,82 2.335,19 0,00 3.617,01 9.317,72 884,00 0,00 30/04/2017
895 548000 EVA VILMA LEAO DOS REIS JULIO OFICIAL DO MP ATIVO BELO HORIZONTE - COMARCA; BH-07PJ 01 TRIBUNAL JURI-SECRETARIA 4.111,87 1.233,56 0,00 0,00 0,00 0,00 5.345,43 588,00 438,93 0,00 1.026,93 4.318,50 884,00 0,00 30/04/2017
896 517000 EVALDO SENA COSTA FILHO ANALISTA DO MP ATIVO CONTAGEM - COMARCA; CONTAGEM-PJ-15PJ 7.806,95 2.342,09 0,00 0,00 0,00 0,00 10.149,04 1.116,39 1.458,21 0,00 2.574,60 7.574,44 884,00 0,00 30/04/2017
897 217500 EVELANGE LEAO RABELO ASSESSOR ATIVO BELO HORIZONTE - COMARCA; COORD EST DEF DIR FAMILIA PESSOA DEFICI IDOSO 0,00 787,70 2.625,65 0,00 0,00 0,00 3.413,35 597,86 200,12 0,00 797,98 2.615,37 884,00 0,00 30/04/2017
898 540400 EVIE SARAMELLA DE RESENDE OFICIAL DO MP ATIVO BARBACENA - COMARCA; BARBACENA-PJ-05PJ 4.111,87 246,71 0,00 0,00 1.452,86 0,00 5.811,44 479,44 596,94 0,00 1.076,38 4.735,06 884,00 0,00 30/04/2017
899 469000 EWERTON CARDOSO DE SA RODRIGUES ANALISTA DO MP ATIVO CAMPO BELO - COMARCA; CAMPO BELO-PJ-01PJ 8.594,48 859,45 0,00 0,00 0,00 0,00 9.453,93 1.039,93 1.340,22 0,00 2.380,15 7.073,78 1.583,00 0,00 30/04/2017
900 368900 FABIANA BARBOSA SIQUEIRA OFICIAL DO MP ATIVO BELO HORIZONTE - COMARCA; CAO-ORDEM ECONOMICA E TRIBUTARIA-SECRETARIA 6.753,72 1.350,74 0,00 0,00 0,00 0,00 8.104,46 891,49 1.062,07 0,00 1.953,56 6.150,90 884,00 0,00 30/04/2017
901 273800 FABIANA CARNEIRO AMORIM COORDENADOR/OFICIAL ATIVO BELO HORIZONTE - COMARCA; BH-23PJ CIVEL-COORD ADM CIVEL 0,00 2.017,54 10.087,71 0,00 0,00 0,00 12.105,25 1.064,07 2.062,69 0,00 3.126,76 8.978,49 884,00 0,00 30/04/2017
902 519300 FABIANA DE OLIVEIRA LOUREIRO ANALISTA DO MP ATIVO BELO HORIZONTE - COMARCA; BH-09PJ AUDITORIA MILITAR 7.806,95 780,70 0,00 0,00 0,00 0,00 8.587,65 944,64 1.232,47 0,00 2.177,11 6.410,54 1.583,00 0,00 30/04/2017
903 363400 FABIANA DOURADO DUPIN VIEGAS ANALISTA DO MP ATIVO BELO HORIZONTE - COMARCA; GABINETE DE PROCURADOR DE JUSTIÇA - SALA 705 11.105,40 2.221,08 0,00 0,00 0,00 0,00 13.326,48 1.465,91 2.340,16 0,00 3.806,07 9.520,41 1.583,00 0,00 30/04/2017
904 410800 FABIANA DUARTE QUITITE ANALISTA DO MP ATIVO BELO HORIZONTE - COMARCA; BH-15PJ M AMB PAT HIST CULT-GAB 116PJ 9.461,59 946,16 0,00 0,00 0,00 0,00 10.407,75 1.203,73 1.808,94 0,00 3.012,67 7.395,08 2.132,93 649,75 30/04/2017
905 419500 FABIANA EULALIA DOS SANTOS ANALISTA DO MP ATIVO SÃO JOÃO DEL REI - COMARCA; SAO JOAO DEL REI-PJ-01PJ 9.461,59 946,16 0,00 0,00 0,00 0,00 10.407,75 1.144,85 1.677,94 0,00 2.822,79 7.584,96 884,00 0,00 30/04/2017
906 376300 FABIANA MATTOSO LEMOS ANALISTA DO MP ATIVO BELO HORIZONTE - COMARCA; COORD-GERAL DAS PJS POR BACIA HIDRO. DE MG 10.416,20 1.041,62 0,00 0,00 0,00 0,00 11.457,82 1.260,36 1.934,94 0,00 3.195,30 8.262,52 884,00 0,00 30/04/2017
907 331500 FABIANA PACHECO OFICIAL DO MP ATIVO GUAXUPÉ - COMARCA; GUAXUPE-PJ-01PJ 7.322,31 1.464,46 0,00 0,00 0,00 0,00 8.786,77 966,54 1.176,93 0,00 2.143,47 6.643,30 2.002,40 0,00 30/04/2017
908 510700 FABIANA PEREIRA SANTOS BORGES ANALISTA DO MP ATIVO BELO HORIZONTE - COMARCA; DIRETORIA DE SISTEMAS DE INFORMACAO 7.806,95 780,70 0,00 0,00 0,00 0,00 8.587,65 944,64 1.180,33 0,00 2.124,97 6.462,68 1.583,00 0,00 30/04/2017
909 181700 FABIANA SOUZA FERREIRA OFICIAL DO MP ATIVO BELO HORIZONTE - COMARCA; BH-19PJ SAUDE-SECRETARIA 150PJ 5.226,73 1.568,02 0,00 0,00 0,00 0,00 6.794,75 747,42 689,38 0,00 1.436,80 5.357,95 1.583,00 0,00 30/04/2017
910 272900 FABIANA STOCKLER LEITE OFICIAL DO MP ATIVO LAJINHA - COMARCA; LAJINHA-PJ-SECRETARIA 8.061,11 3.224,44 0,00 0,00 0,00 0,00 11.285,55 1.241,41 1.788,50 0,00 3.029,91 8.255,64 2.937,27 124,14 30/04/2017
911 225500 FABIANE DE FATIMA PORTELLA ANALISTA DO MP ATIVO BELO HORIZONTE - COMARCA; COORD ESTADUAL DE DEFESA DA EDUCACAO 14.297,05 4.289,12 0,00 0,00 0,00 0,00 18.586,17 2.044,48 3.679,60 0,00 5.724,08 12.862,09 884,00 0,00 30/04/2017
912 433800 FABIANE DINIZ MATTOS ANALISTA DO MP ATIVO BELO HORIZONTE - COMARCA; BH-23PJ INFRACIONAL-ASS JURIDICA 9.461,59 946,16 0,00 0,00 0,00 0,00 10.407,75 1.144,85 1.677,94 0,00 2.822,79 7.584,96 884,00 0,00 30/04/2017
913 455000 FABIANO CARVALHO DA SILVA ANALISTA DO MP ATIVO LAVRAS - COMARCA; COORD REG DO MA DA BACIA DO RIO GRANDE 8.594,48 859,45 0,00 0,00 0,00 0,00 9.453,93 1.039,93 1.444,49 0,00 2.484,42 6.969,51 884,00 0,00 30/04/2017
914 498800 FABIANO FURTADO PESSOA COELHO ANALISTA DO MP ATIVO BELO HORIZONTE - COMARCA; DIRETORIA DE REDES E BANCOS DE DADOS 7.806,95 780,70 0,00 0,00 0,00 0,00 8.587,65 944,64 1.180,33 0,00 2.124,97 6.462,68 1.583,00 0,00 30/04/2017
915 394600 FABIANO PALHARES SILVA ANALISTA DO MP ATIVO BELO HORIZONTE - COMARCA; CENTRAL DE APOIO TECN-SETOR DE MEIO AMBIENTE 10.416,20 1.041,62 0,00 0,00 0,00 0,00 11.457,82 1.260,36 1.882,80 0,00 3.143,16 8.314,66 1.583,00 0,00 30/04/2017
916 444400 FABIANO SARAIVA MEDEIROS ANALISTA DO MP ATIVO BETIM - COMARCA; BETIM-PJ-11PJ 9.163,30 916,33 0,00 0,00 0,00 0,00 10.079,63 1.108,76 1.493,35 0,00 2.602,11 7.477,52 1.583,00 0,00 30/04/2017
917 408700 FABIANO SOARES PORTILHO ANALISTA DO MP ATIVO VIÇOSA - COMARCA; VICOSA-PJ-02PJ 9.461,59 946,16 0,00 0,00 0,00 0,00 10.407,75 1.144,85 1.677,94 0,00 2.822,79 7.584,96 884,00 0,00 30/04/2017
918 442600 FABIO CARVALHO VIEIRA ANALISTA DO MP ATIVO MONTES CLAROS - COMARCA; MONTES CLAROS-PJ-06PJ 7.200,69 720,07 0,00 0,00 0,00 0,00 7.920,76 871,28 1.069,25 0,00 1.940,53 5.980,23 884,00 0,00 30/04/2017
919 123700 FABIO JOSE ANDRADE NOGUEIRA OFICIAL DO MP ATIVO FORMIGA - COMARCA; FORMIGA-PJ-SECRETARIA 8.594,48 6.875,58 0,00 0,00 0,00 0,00 15.470,06 1.701,71 1.723,28 0,00 3.424,99 12.045,07 884,00 0,00 30/04/2017
920 240101 FABIO JUNQUEIRA DE ASSIS FONSECA OFICIAL DO MP ATIVO BELO HORIZONTE - COMARCA; DIRET DE DESENV DE RECURSOS HUMANOS-DDRH 5.941,34 1.188,27 0,00 0,00 0,00 0,00 7.129,61 784,26 875,61 0,00 1.659,87 5.469,74 884,00 0,00 30/04/2017
921 271500 FABIO LUIZ VIEIRA OFICIAL DO MP ATIVO SANTA VITÓRIA - COMARCA; SANTA VITORIA-PJ-UNPJ 7.806,95 1.561,39 0,00 0,00 0,00 0,00 9.368,34 1.030,52 1.319,27 0,00 2.349,79 7.018,55 1.028,24 0,00 30/04/2017
922 213100 FABIO PRATES GONCALVES ASSESSOR ATIVO BELO HORIZONTE - COMARCA; DIRETORIA DE RELACOES PUBLICAS E CERIMONIAL 0,00 2.662,30 8.874,34 0,00 0,00 0,00 11.536,64 608,44 2.222,58 0,00 2.831,02 8.705,62 1.583,00 0,00 30/04/2017
923 436700 FABIO SANTIAGO DE CARVALHO OFICIAL DO MP ATIVO POÇO FUNDO - COMARCA; POCO FUNDO-PJ-UNPJ 6.334,59 633,46 0,00 0,00 0,00 0,00 6.968,05 766,49 836,07 0,00 1.602,56 5.365,49 884,00 0,00 30/04/2017
924 208400 FABIOLA DE SOUSA CARDOSO ASSESSOR/ANALISTA ATIVO BELO HORIZONTE - COMARCA; ASSESS TECNICA DA CORREGEDORIA-GERAL DO MP 16.063,25 6.970,05 0,00 0,00 0,00 0,00 23.033,30 2.297,05 4.833,11 0,00 7.130,16 15.903,14 5.490,66 422,28 30/04/2017
925 392200 FABIOLA LEROY COSTA ANALISTA DO MP ATIVO ESMERALDAS - COMARCA; ESMERALDAS-PJ-01PJ 8.594,48 859,45 0,00 0,00 0,00 0,00 9.453,93 1.039,93 1.444,49 0,00 2.484,42 6.969,51 884,00 0,00 30/04/2017
926 409000 FABIOLA MONTEIRO DE CARVALHO CASTRO ANALISTA DO MP ATIVO BOM SUCESSO - COMARCA; BOM SUCESSO-PJ-UNPJ 8.594,48 859,45 0,00 0,00 0,00 0,00 9.453,93 1.039,93 1.444,49 0,00 2.484,42 6.969,51 884,00 0,00 30/04/2017
927 227900 FABIOLA PIMENTA DE CARVALHO OFICIAL DO MP ATIVO MONTES CLAROS - COMARCA; COORD REG BACIA RIOS VERDE GRANDE E PARDO 8.061,11 2.418,33 0,00 0,00 0,00 0,00 10.479,44 1.152,74 1.695,48 0,00 2.848,22 7.631,22 884,00 0,00 30/04/2017
928 525800 FABRICIA ALVES DANTAS OFICIAL DO MP ATIVO MONTES CLAROS - COMARCA; MONTES CLAROS-PJ-01PJ 5.396,93 539,69 0,00 0,00 0,00 0,00 5.936,62 676,78 532,19 0,00 1.208,97 4.727,65 884,00 215,88 30/04/2017
929 263400 FABRICIA PINTO TEIXEIRA SANTIAGO OFICIAL DO MP ATIVO BELO HORIZONTE - COMARCA; CAO-TS-TERCEIRO SETOR-SECRETARIA 9.163,30 1.832,66 0,00 0,00 0,00 0,00 10.995,96 1.209,56 1.717,63 0,00 2.927,19 8.068,77 2.203,52 120,96 30/04/2017
930 420800 FABRICIO BERNARDES DE OLIVEIRA OFICIAL DO MP ATIVO ITURAMA - COMARCA; ITURAMA-PJ-02PJ 6.334,59 633,46 0,00 0,00 0,00 0,00 6.968,05 766,49 783,93 0,00 1.550,42 5.417,63 938,03 0,00 30/04/2017
931 474000 FABRICIO DE FREITAS SALES ANALISTA DO MP ATIVO MONTES CLAROS - COMARCA; COORD REG PATRI PUB ORD TRIB-NORTE MINAS 8.594,48 859,45 0,00 0,00 0,00 0,00 9.453,93 1.039,93 1.444,49 0,00 2.484,42 6.969,51 1.583,00 0,00 30/04/2017
932 510100 FABRICIO FURTADO ASSIS DO CARMO ANALISTA DO MP ATIVO BELO HORIZONTE - COMARCA; SERVICO MEDICO-DEPTO PERIC MEDICA SAUDE OCUP 7.806,95 780,70 0,00 0,00 0,00 0,00 8.587,65 944,64 1.458,62 0,00 2.403,26 6.184,39 884,00 822,37 30/04/2017
933 519600 FABRICIO GONTIJO SALVATI ANALISTA DO MP ATIVO JUIZ DE FORA - COMARCA; JUIZ DE FORA-CAO ESPECIALIZADO-SECRETARIA 7.806,95 780,70 0,00 0,00 0,00 0,00 8.587,65 944,64 1.232,47 0,00 2.177,11 6.410,54 884,00 0,00 30/04/2017
934 637400 FABRICIO HENRIQUE DA SILVA PASSOS ANALISTA DO MP ATIVO BELO HORIZONTE - COMARCA; DIRETORIA DE PUBLICIDADE INSTITUCIONAL 6.134,81 0,00 0,00 0,00 0,00 0,00 6.134,81 674,83 632,13 0,00 1.306,96 4.827,85 884,00 0,00 30/04/2017
935 428200 FABRICIO ORZIL VIANA ANALISTA DO MP ATIVO SANTA LUZIA - COMARCA; SANTA LUZIA-PJ-04PJ 8.061,11 806,11 0,00 0,00 2.955,74 0,00 11.822,96 975,39 2.113,72 0,00 3.089,11 8.733,85 884,00 0,00 30/04/2017
936 455600 FABRICIO PAIVA DA ROCHA ANALISTA DO MP ATIVO SÃO JOÃO DEL REI - COMARCA; SAO JOAO DEL REI-PJ-06PJ 8.594,48 859,45 0,00 0,00 0,00 0,00 9.453,93 1.039,93 1.392,35 0,00 2.432,28 7.021,65 884,00 0,00 30/04/2017
937 511500 FABRICIO RENE CARDOSO DE PADUA ANALISTA DO MP ATIVO SÃO SEBASTIÃO DO PARAÍSO - COMARCA; SAO SEBASTIAO DO PARAISO-PJ-03PJ 7.806,95 780,70 0,00 0,00 0,00 0,00 8.587,65 944,64 1.232,47 0,00 2.177,11 6.410,54 884,00 0,00 30/04/2017
938 496100 FABRICIO RESENDE GONCALVES OFICIAL DO MP ATIVO ENTRE-RIOS DE MINAS - COMARCA; ENTRE RIOS DE MINAS-PJ-UNPJ 5.396,93 539,69 0,00 0,00 0,00 0,00 5.936,62 653,03 583,63 0,00 1.236,66 4.699,96 1.583,00 0,00 30/04/2017
939 650300 FABRICIO ROBERTO AZEVEDO OFICIAL DO MP ATIVO NOVA SERRANA - COMARCA; NOVA SERRANA-PJ-SECRETARIA 3.182,15 0,00 0,00 0,00 0,00 0,00 3.182,15 350,04 70,02 0,00 420,06 2.762,09 884,00 0,00 30/04/2017
940 514900 FADUA MARIA DRUMOND CHEQUER FIGUEIREDO ANALISTA DO MP ATIVO ALMENARA - COMARCA; COORD REG INCLUSAO MOBILIZ VALE JEQUITINHONHA 7.806,95 780,70 0,00 0,00 0,00 0,00 8.587,65 944,64 1.128,19 0,00 2.072,83 6.514,82 2.282,00 0,00 30/04/2017
941 282500 FANNY FERREIRA MELO FAVERO DE FRAVET OFICIAL DO MP ATIVO ARAXÁ - COMARCA; ARAXA-PJ-03PJ 6.540,78 1.308,16 0,00 0,00 0,00 0,00 7.848,94 863,38 1.051,67 0,00 1.915,05 5.933,89 884,00 0,00 30/04/2017
942 540100 FATIMA CRISTINA POVOA DA COSTA ASSESSOR/OFICIAL ATIVO BELO HORIZONTE - COMARCA; BH-18PJ VIOLENCIA DOMESTICA-SECRETARIA 0,00 2.662,30 8.874,34 0,00 0,00 0,00 11.536,64 588,00 2.141,52 0,00 2.729,52 8.807,12 884,00 0,00 30/04/2017
943 382800 FATIMA DE OLIVEIRA COELHO E SILVA OFICIAL DO MP ATIVO BELO HORIZONTE - COMARCA; DIRETORIA DE ADMINISTRACAO FINANCEIRA 5.226,73 1.045,35 0,00 0,00 0,00 0,00 6.272,08 689,93 613,59 0,00 1.303,52 4.968,56 884,00 0,00 30/04/2017
944 398601 FELIPE ANTONIO HORTA DE PAULA ANALISTA DO MP ATIVO BELO HORIZONTE - COMARCA; PROC. JUSTICA DIR. DIFUSOS E COLETIVOS-SEC 6.334,59 380,08 0,00 0,00 0,00 0,00 6.714,67 738,61 774,06 0,00 1.512,67 5.202,00 884,00 0,00 30/04/2017
945 430900 FELIPE BOY VIEIRA COORDENADOR/ANALISTA ATIVO BELO HORIZONTE - COMARCA; EXTINTA - DIVISAO DE TRANSPORTES 8.874,34 2.904,97 0,00 0,00 0,00 0,00 11.779,31 1.073,79 2.074,66 0,00 3.148,45 8.630,86 884,00 0,00 30/04/2017
946 631700 FELIPE DE MORAIS SIMOES COELHO ANALISTA DO MP ATIVO BELO HORIZONTE - COMARCA; BH-18PJ VIOLENCIA DOMESTICA 5.572,67 0,00 0,00 0,00 0,00 0,00 5.572,67 612,99 494,55 0,00 1.107,54 4.465,13 884,00 0,00 30/04/2017
947 549100 FELIPE FERNANDES ALVIM ANALISTA DO MP ATIVO LAJINHA - COMARCA; LAJINHA-PJ-UNPJ 6.334,59 380,08 0,00 0,00 0,00 0,00 6.714,67 738,61 774,06 0,00 1.512,67 5.202,00 884,00 0,00 30/04/2017
948 487300 FELIPE FERNANDES SILVEIRA ASSESSOR ATIVO BELO HORIZONTE - COMARCA; DIVISAO DE MANUTENCAO PREDIAL 0,00 0,00 2.625,65 0,00 0,00 0,00 2.625,65 386,06 113,74 0,00 499,80 2.125,85 884,00 0,00 30/04/2017
949 620100 FELIPE GOMES DE AZEVEDO OFICIAL DO MP ATIVO BELO HORIZONTE - COMARCA; BH-18PJ VIOLENCIA DOMESTICA-SECRETARIA 3.617,27 0,00 0,00 0,00 0,00 0,00 3.617,27 397,90 128,11 0,00 526,01 3.091,26 884,00 0,00 30/04/2017
950 601600 FELIPE RODRIGUES DE SIQUEIRA ANALISTA DO MP ATIVO BELO HORIZONTE - COMARCA; BH-02PJ FAMILIA-SECRETARIA 6.334,59 380,08 0,00 0,00 0,00 0,00 6.714,67 738,61 774,06 0,00 1.512,67 5.202,00 884,00 0,00 30/04/2017
951 628900 FELIX FERNANDO JUNIO VIEIRA ANALISTA DO MP ATIVO CAETÉ - COMARCA; CAETE-PJ-02PJ 6.134,81 0,00 0,00 0,00 0,00 0,00 6.134,81 674,83 580,00 0,00 1.254,83 4.879,98 884,00 0,00 30/04/2017
952 544500 FELLIPE LEMOS MARCONDES BUENO ANALISTA DO MP ATIVO SÃO SEBASTIÃO DO PARAÍSO - COMARCA; SAO SEBASTIAO DO PARAISO-PJ-04PJ 6.334,59 380,08 0,00 0,00 0,00 0,00 6.714,67 738,61 774,06 0,00 1.512,67 5.202,00 884,00 0,00 30/04/2017
953 612600 FERNANDA ADRIANA DE PAULA GUIDO ANALISTA DO MP ATIVO PARACATU - COMARCA; PARACATU-PJ-02PJ 6.134,81 368,09 0,00 0,00 0,00 0,00 6.502,90 715,32 722,22 0,00 1.437,54 5.065,36 884,00 0,00 30/04/2017
954 508400 FERNANDA AGANETTI MATTOS DE OLIVEIRA ANALISTA DO MP ATIVO BELO HORIZONTE - COMARCA; BH-07PJ 02 TRIBUNAL DO JURI 7.806,95 780,70 0,00 0,00 0,00 0,00 8.587,65 944,64 1.232,47 0,00 2.177,11 6.410,54 884,00 0,00 30/04/2017
955 453600 FERNANDA ALBERNAZ RABELO ANALISTA DO MP ATIVO BELO HORIZONTE - COMARCA; GABINETE DE PROCURADOR DE JUSTIÇA - SALA 616 8.594,48 859,45 0,00 0,00 3.151,31 0,00 12.605,24 1.039,93 2.311,10 0,00 3.351,03 9.254,21 884,00 0,00 30/04/2017
956 255600 FERNANDA ALINA DE ALMEIDA ANDRADE OFICIAL DO MP ATIVO BELO HORIZONTE - COMARCA; NUCLEO DE INFORMACOES E INTELIGENCIA 7.322,31 1.464,46 0,00 0,00 0,00 0,00 8.786,77 966,54 1.281,20 0,00 2.247,74 6.539,03 884,00 0,00 30/04/2017
957 443200 FERNANDA ALMEIDA LOPES ANALISTA DO MP ATIVO CONTAGEM - COMARCA; CONTAGEM-PJ-23PJ 9.163,30 916,33 0,00 0,00 0,00 0,00 10.079,63 1.108,76 1.545,49 0,00 2.654,25 7.425,38 6.421,22 443,50 30/04/2017
958 281100 FERNANDA ANANIAS MEIRA ANALISTA DO MP ATIVO BELO HORIZONTE - COMARCA; BH-23PJ INFRACIONAL-ASS JURIDICA 12.225,81 2.445,16 0,00 0,00 0,00 0,00 14.670,97 1.613,81 2.721,36 0,00 4.335,17 10.335,80 884,00 0,00 30/04/2017
959 539000 FERNANDA BARBOSA ALVES ANALISTA DO MP ATIVO CANÁPOLIS - COMARCA; CANAPOLIS-PJ-SECRETARIA 6.334,59 380,08 0,00 0,00 0,00 0,00 6.714,67 738,61 774,06 0,00 1.512,67 5.202,00 884,00 0,00 30/04/2017
960 451200 FERNANDA BLOISE PRADO OFICIAL DO MP ATIVO BELO HORIZONTE - COMARCA; NUCLEO DE NEGOCIACAO DE CONFLITOS AMBIENTAIS 5.941,34 594,13 0,00 0,00 0,00 0,00 6.535,47 718,90 730,20 0,00 1.449,10 5.086,37 884,00 0,00 30/04/2017
961 427900 FERNANDA BRAGA CARNEIRO BICALHO ANALISTA DO MP ATIVO PEÇANHA - COMARCA; PECANHA-PJ-SECRETARIA 8.594,48 859,45 0,00 0,00 0,00 0,00 9.453,93 1.039,93 1.340,22 0,00 2.380,15 7.073,78 1.583,00 0,00 30/04/2017
962 507100 FERNANDA CABRINI VAZ MOTA ANALISTA DO MP ATIVO BELO HORIZONTE - COMARCA; BH-14PJ DEFESA CONSUMIDOR-GAB 005PJ 7.806,95 780,70 0,00 0,00 0,00 0,00 8.587,65 944,64 1.232,47 0,00 2.177,11 6.410,54 884,00 0,00 30/04/2017
963 259800 FERNANDA CALZAVARA DE SOUSA COORDENADOR/OFICIAL ATIVO BELO HORIZONTE - COMARCA; DIRET DE FORMACAO, APERFEIC. E POS-GRADUACAO 0,00 2.293,40 11.466,98 0,00 0,00 0,00 13.760,38 1.209,56 2.582,12 0,00 3.791,68 9.968,70 884,00 0,00 30/04/2017
964 494400 FERNANDA CAMPOS BARATA OFICIAL DO MP ATIVO JUIZ DE FORA - COMARCA; JUIZ DE FORA-PJ-08PJ 4.245,74 424,57 0,00 0,00 0,00 0,00 4.670,31 513,73 299,10 0,00 812,83 3.857,48 1.583,00 0,00 30/04/2017
965 555600 FERNANDA CAROLINE RIBEIRO ANALISTA DO MP ATIVO BELO HORIZONTE - COMARCA; EXTINTA - DIRETORIA DE CONTRATOS E CONVÊNIOS 6.334,59 380,08 0,00 0,00 0,00 0,00 6.714,67 738,61 774,06 0,00 1.512,67 5.202,00 884,00 0,00 30/04/2017
966 294500 FERNANDA COSTA FLORES OFICIAL DO MP ATIVO PARÁ DE MINAS - COMARCA; PARA DE MINAS-PJ-04PJ 8.061,11 1.612,22 0,00 0,00 0,00 0,00 9.673,33 1.064,07 1.498,19 0,00 2.562,26 7.111,07 884,00 0,00 30/04/2017
967 344500 FERNANDA CRISTINA DE SOUZA PAZ ASSESSOR ATIVO BELO HORIZONTE - COMARCA; CENTRAL DE APOIO TECN-SETOR DE MEIO AMBIENTE 0,00 0,00 4.383,93 0,00 0,00 0,00 4.383,93 579,47 333,46 0,00 912,93 3.471,00 1.583,00 0,00 30/04/2017
968 538100 FERNANDA CRISTINA DOS SANTOS ROSA MOREIRA OFICIAL DO MP ATIVO RIBEIRÃO DAS NEVES - COMARCA; RIBEIRAO DAS NEVES-PJ-09PJ 4.111,87 1.233,56 0,00 0,00 0,00 0,00 5.345,43 633,23 539,57 0,00 1.172,80 4.172,63 4.091,26 705,19 30/04/2017
969 337800 FERNANDA CRISTINA ROLAND CLIMACO MENDES ASSESSOR/OFICIAL ATIVO BELO HORIZONTE - COMARCA; DIRETORIA-GERAL 0,00 1.953,92 9.769,61 0,00 0,00 0,00 11.723,53 966,54 2.088,81 0,00 3.055,35 8.668,18 884,00 0,00 30/04/2017
970 545400 FERNANDA CUNHA GUIMARAES ANALISTA DO MP ATIVO BELO HORIZONTE - COMARCA; EXTINTA - COORD DEFESA DO DIREITO DE FAMILIA 6.334,59 380,08 0,00 0,00 0,00 0,00 6.714,67 738,61 774,06 0,00 1.512,67 5.202,00 884,00 0,00 30/04/2017
971 429801 FERNANDA CUNHA PINHEIRO DA SILVA ANALISTA DO MP ATIVO BELO HORIZONTE - COMARCA; SUPERINTENDENCIA DE COMUNICACAO INTEGRADA 7.806,95 780,70 0,00 0,00 0,00 0,00 8.587,65 944,64 1.232,47 0,00 2.177,11 6.410,54 884,00 0,00 30/04/2017
972 408000 FERNANDA DAS NEVES RAMOS ANALISTA DO MP ATIVO BELO HORIZONTE - COMARCA; CENTRAL DE APOIO TECNICO-SETOR CONTABIL 9.461,59 946,16 0,00 0,00 0,00 0,00 10.407,75 1.144,85 1.677,94 0,00 2.822,79 7.584,96 1.583,00 0,00 30/04/2017
973 496000 FERNANDA DE ALMEIDA VIANA ASSESSOR/ANALISTA ATIVO BELO HORIZONTE - COMARCA; PROC JUST RECURSOS ESP E EXTRAORD CRIMINAIS 0,00 887,43 8.874,34 0,00 0,00 0,00 9.761,77 944,64 1.555,35 0,00 2.499,99 7.261,78 884,00 0,00 30/04/2017
974 266700 FERNANDA DE CASTRO LUCAS ASSESSOR/OFICIAL ATIVO BELO HORIZONTE - COMARCA; COPLI-GABINETE DO COORDENADOR 0,00 1.953,92 9.769,61 0,00 0,00 0,00 11.723,53 1.209,56 2.021,98 0,00 3.231,54 8.491,99 884,00 0,00 30/04/2017
975 433200 FERNANDA DE FIGUEIREDO NORTE ANALISTA DO MP ATIVO BELO HORIZONTE - COMARCA; ASSESS JUR DO CONS SUPERIOR DO MINISTERIO PUB 9.461,59 946,16 0,00 0,00 3.469,25 0,00 13.877,00 1.144,85 2.527,71 0,00 3.672,56 10.204,44 2.698,31 38,16 30/04/2017
976 419200 FERNANDA DE MIRANDA MARTINS SIMOES ANALISTA DO MP ATIVO UBERLÂNDIA - COMARCA; UBERLANDIA-PJ-19PJ 9.461,59 946,16 0,00 0,00 0,00 0,00 10.407,75 1.144,85 1.677,94 0,00 2.822,79 7.584,96 884,00 0,00 30/04/2017
977 441400 FERNANDA DE MORAIS PINTO ANALISTA DO MP ATIVO BELO HORIZONTE - COMARCA; PROC. JUSTICA DIR. DIFUSOS E COLETIVOS-SEC 9.163,30 916,33 0,00 0,00 3.359,88 0,00 13.439,51 1.108,76 2.521,60 0,00 3.630,36 9.809,15 884,00 0,00 30/04/2017
978 432200 FERNANDA DE MOURA GUIMARAES ANALISTA DO MP ATIVO BELO HORIZONTE - COMARCA; ASSESS TECNICO-JUR JUNTO AS PROC. DE JUST 9.163,30 916,33 0,00 0,00 0,00 0,00 10.079,63 1.108,76 1.597,63 0,00 2.706,39 7.373,24 1.583,00 0,00 30/04/2017
979 461800 FERNANDA DE OLIVEIRA SANTOS ANALISTA DO MP ATIVO JUIZ DE FORA - COMARCA; JUIZ DE FORA-PJ-21PJ 8.594,48 859,45 0,00 0,00 0,00 0,00 9.453,93 1.039,93 1.444,49 0,00 2.484,42 6.969,51 1.583,00 0,00 30/04/2017
980 432500 FERNANDA DE PAULA ABRANTES ANALISTA DO MP ATIVO BELO HORIZONTE - COMARCA; PROC JUST RECURSOS ESP E EXTRAORD CRIMINAIS 9.163,30 916,33 0,00 0,00 3.359,88 0,00 13.439,51 1.108,76 2.521,60 0,00 3.630,36 9.809,15 884,00 0,00 30/04/2017
981 431600 FERNANDA DIAS BARBOSA PEREIRA ANALISTA DO MP ATIVO OURO BRANCO - COMARCA; OURO BRANCO-PJ-UNPJ 9.163,30 916,33 0,00 0,00 0,00 0,00 10.079,63 1.108,76 1.493,35 0,00 2.602,11 7.477,52 1.986,19 36,96 30/04/2017
982 162200 FERNANDA FERNANDES MONTEIRO ASSESSOR ATIVO BELO HORIZONTE - COMARCA; CAO-DH APOIO COMUNITARIO-SEC ADM 0,00 1.753,57 4.383,93 0,00 0,00 0,00 6.137,50 608,44 842,09 0,00 1.450,53 4.686,97 884,00 0,00 30/04/2017
983 512800 FERNANDA FERREIRA BARBOSA MOREIRA ANALISTA DO MP ATIVO IPATINGA - COMARCA; IPATINGA-PJ-05PJ 7.806,95 780,70 0,00 0,00 0,00 0,00 8.587,65 944,64 1.232,47 0,00 2.177,11 6.410,54 1.583,00 0,00 30/04/2017
984 329200 FERNANDA GABRIEL GUZELLA OFICIAL DO MP ATIVO BELO HORIZONTE - COMARCA; DIRET DE PLANOS PROJETOS E PROGRAMAS INST 7.200,69 1.440,14 0,00 0,00 0,00 0,00 8.640,83 950,49 1.245,48 0,00 2.195,97 6.444,86 884,00 0,00 30/04/2017
985 324200 FERNANDA GEORGIA NEVES ZAHAN OFICIAL DO MP ATIVO IPANEMA - COMARCA; IPANEMA-PJ-UNPJ 6.334,59 4.434,22 0,00 0,00 0,00 0,00 10.768,81 1.184,57 1.766,31 0,00 2.950,88 7.817,93 884,00 0,00 30/04/2017
986 548200 FERNANDA GONCALVES DE CARVALHO ZUZA OFICIAL DO MP ATIVO TUPACIGUARA - COMARCA; TUPACIGUARA-PJ-UNPJ 3.735,01 224,10 0,00 0,00 0,00 0,00 3.959,11 435,50 173,74 0,00 609,24 3.349,87 884,00 0,00 30/04/2017
987 355400 FERNANDA HELENA BASQUES OFICIAL DO MP ATIVO SABARÁ - COMARCA; SABARA-PJ-01PJ 6.753,72 1.350,74 0,00 0,00 0,00 0,00 8.104,46 891,49 1.114,21 0,00 2.005,70 6.098,76 884,00 0,00 30/04/2017
988 454800 FERNANDA IATAROLA BARBOSA DIAS ANALISTA DO MP ATIVO BARBACENA - COMARCA; BARBACENA-PJ-05PJ 8.594,48 859,45 0,00 0,00 0,00 0,00 9.453,93 1.039,93 1.392,35 0,00 2.432,28 7.021,65 884,00 0,00 30/04/2017
989 515500 FERNANDA LILIANE MARUGEIRO ANALISTA DO MP ATIVO BELO HORIZONTE - COMARCA; BH-18PJ VIOLENCIA DOMESTICA-SECRETARIA 7.806,95 780,70 0,00 0,00 0,00 0,00 8.587,65 944,64 1.180,33 0,00 2.124,97 6.462,68 1.583,00 0,00 30/04/2017
990 392900 FERNANDA MAGALHAES SILVA COORDENADOR/ANALISTA ATIVO BELO HORIZONTE - COMARCA; DIRETORIA DE IMPRENSA 10.416,20 3.335,03 0,00 0,00 0,00 0,00 13.751,23 1.260,36 2.565,63 0,00 3.825,99 9.925,24 884,00 0,00 30/04/2017
991 409200 FERNANDA MAIA SANTIAGO ANALISTA DO MP ATIVO PIRAPORA - COMARCA; PIRAPORA-PJ-02PJ 8.061,11 806,11 0,00 0,00 0,00 0,00 8.867,22 975,39 1.300,89 0,00 2.276,28 6.590,94 1.583,00 0,00 30/04/2017
992 556500 FERNANDA OTERO COSTA ANALISTA DO MP ATIVO BELO HORIZONTE - COMARCA; ASSESS TECNICO-JUR JUNTO AS PROC. DE JUST 6.973,61 418,42 0,00 0,00 0,00 0,00 7.392,03 813,12 939,84 0,00 1.752,96 5.639,07 884,00 0,00 30/04/2017
993 615300 FERNANDA PATRICIA RIBEIRO MOTA OFICIAL DO MP ATIVO UBERABA - COMARCA; UBERABA-PJ-05PJ 3.617,27 0,00 0,00 0,00 0,00 0,00 3.617,27 397,90 128,11 0,00 526,01 3.091,26 884,00 0,00 30/04/2017
994 619800 FERNANDA PINTO PEREIRA ANALISTA DO MP ATIVO UBERLÂNDIA - COMARCA; UBERLANDIA-PJ-20PJ 6.134,81 0,00 0,00 0,00 0,00 0,00 6.134,81 674,83 632,13 0,00 1.306,96 4.827,85 884,00 0,00 30/04/2017
995 412900 FERNANDA PORTELA ROSA ANALISTA DO MP ATIVO BELO HORIZONTE - COMARCA; BH-08PJ JUIZADO ESPECIAL-SECRETARIA 9.461,59 946,16 0,00 0,00 0,00 0,00 10.407,75 1.203,73 1.808,94 0,00 3.012,67 7.395,08 884,00 535,26 30/04/2017
996 274301 FERNANDA QUEIROZ PARREIRA ANALISTA DO MP ATIVO PATOS DE MINAS - COMARCA; COORD REG PJ DEF EDU DIR CRI ADO AL PAR NOROE 7.806,95 780,70 0,00 0,00 0,00 0,00 8.587,65 944,64 1.232,47 0,00 2.177,11 6.410,54 884,00 0,00 30/04/2017
997 467900 FERNANDA QUEIROZ SIMOES GANNAM ANALISTA DO MP ATIVO SÃO LOURENÇO - COMARCA; SAO LOURENCO-PJ-02PJ 8.594,48 859,45 0,00 0,00 0,00 0,00 9.453,93 1.039,93 1.392,35 0,00 2.432,28 7.021,65 1.583,00 0,00 30/04/2017
998 649300 FERNANDA SILVA MILAGRES OFICIAL DO MP ATIVO ERVÁLIA - COMARCA; ERVALIA-PJ-SECRETARIA 3.182,15 0,00 0,00 0,00 0,00 0,00 3.182,15 350,04 70,02 0,00 420,06 2.762,09 884,00 0,00 30/04/2017
999 255500 FERNANDA SIMOES LOPES MENDES ANALISTA DO MP ATIVO BELO HORIZONTE - COMARCA; BH-17PJ PATRIMONIO PUBLICO-SECRETARIA 13.034,76 2.606,95 0,00 0,00 0,00 0,00 15.641,71 1.720,59 2.854,67 0,00 4.575,26 11.066,45 1.583,00 0,00 30/04/2017
1000 481700 FERNANDA VIANA FROES DA SILVA OFICIAL DO MP ATIVO GOVERNADOR VALADARES - COMARCA; GOVERNADOR VALADARES-PJ-09PJ 5.572,67 557,27 0,00 0,00 0,00 0,00 6.129,94 674,29 630,94 0,00 1.305,23 4.824,71 1.583,00 0,00 30/04/2017
1001 123900 FERNANDO ANTONIO FARIA ABREU DIRETOR/ANALISTA ATIVO BELO HORIZONTE - COMARCA; SUPERINTENDÊNCIA DE ENGENHARIA E ARQUITETURA 22.593,62 24.495,90 0,00 0,00 0,00 3.351,82 50.441,34 3.351,82 7.510,20 16.618,41 27.480,43 22.960,91 5.759,37 446,91 30/04/2017
1002 416900 FERNANDO APARECIDO DA SILVA ANALISTA DO MP ATIVO BOM DESPACHO - COMARCA; BOM DESPACHO-PJ-01PJ 9.163,30 4.581,65 0,00 0,00 4.581,65 0,00 18.326,60 1.511,94 3.650,40 0,00 5.162,34 13.164,26 884,00 0,00 30/04/2017
1003 395900 FERNANDO AUGUSTO ETO LAGES ANALISTA DO MP ATIVO BELO HORIZONTE - COMARCA; CENTRAL DE APOIO TECN-SETOR DE MEIO AMBIENTE 10.416,20 1.041,62 0,00 0,00 0,00 0,00 11.457,82 1.260,36 1.934,94 0,00 3.195,30 8.262,52 884,00 0,00 30/04/2017
1004 380500 FERNANDO BONES COSTA OFICIAL DO MP ATIVO BELO HORIZONTE - COMARCA; EXTINTA - DIVISÃO DE MATERIAL PERMANENTE 5.226,73 522,67 0,00 0,00 0,00 0,00 5.749,40 632,43 537,81 0,00 1.170,24 4.579,16 884,00 0,00 30/04/2017
1005 500100 FERNANDO CEZAR PINTO ASSESSOR/OFICIAL ATIVO BELO HORIZONTE - COMARCA; EXTINTA - DIVISÃO DE MATERIAL PERMANENTE 0,00 887,43 8.874,34 0,00 0,00 0,00 9.761,77 674,29 1.577,56 0,00 2.251,85 7.509,92 1.583,00 0,00 30/04/2017
1006 346100 FERNANDO EUSTAQUIO CAMPOS UTSCH MOREIRA ANALISTA DO MP ATIVO BELO HORIZONTE - COMARCA; DIRETORIA DE REDES E BANCOS DE DADOS 11.105,40 2.221,08 0,00 0,00 4.442,16 0,00 17.768,64 1.465,91 3.457,48 0,00 4.923,39 12.845,25 884,00 0,00 30/04/2017
1007 103500 FERNANDO LUIZ DA SILVA JUNIOR OFICIAL DO MP ATIVO BELO HORIZONTE - COMARCA; DIVISAO DE ATENDIMENTO E CONSULTA JURIDICA 16.063,25 8.031,63 0,00 0,00 0,00 0,00 24.094,88 2.650,44 5.027,86 0,00 7.678,30 16.416,58 884,00 0,00 30/04/2017
1008 287300 FERNANDO MARCIO ALVES MARTINS OFICIAL DO MP ATIVO LEOPOLDINA - COMARCA; LEOPOLDINA-PJ-01PJ 6.334,59 1.266,92 0,00 0,00 0,00 0,00 7.601,51 836,17 834,70 0,00 1.670,87 5.930,64 884,00 0,00 30/04/2017
1009 262200 FERNANDO MARCIO RESENDE PEREIRA OFICIAL DO MP ATIVO BELO HORIZONTE - COMARCA; DIR ESTRUTURA E PROCESSOS ORGANIZACIONAIS 7.200,69 1.440,14 0,00 0,00 0,00 0,00 8.640,83 950,49 1.245,48 0,00 2.195,97 6.444,86 884,00 0,00 30/04/2017
1010 472900 FERNANDO RODRIGUES DE FREITAS ANALISTA DO MP ATIVO BELO HORIZONTE - COMARCA; BH-15PJ M AMB PAT HIST CULT-GAB 114PJ 8.594,48 859,45 0,00 0,00 0,00 0,00 9.453,93 1.039,93 1.392,35 0,00 2.432,28 7.021,65 884,00 0,00 30/04/2017
1011 421400 FERNANDO TEODORO MACIEL ANALISTA DO MP ATIVO SANTA VITÓRIA - COMARCA; SANTA VITORIA-PJ-UNPJ 8.594,48 859,45 0,00 0,00 0,00 0,00 9.453,93 1.039,93 1.392,35 0,00 2.432,28 7.021,65 2.282,00 0,00 30/04/2017
1012 446300 FERNANDO VITOR DE OLIVEIRA ANALISTA DO MP ATIVO MONTES CLAROS - COMARCA; COORD REG BACIA RIOS VERDE GRANDE E PARDO 9.163,30 916,33 0,00 0,00 0,00 0,00 10.079,63 1.108,76 1.597,63 0,00 2.706,39 7.373,24 884,00 0,00 30/04/2017
1013 639300 FILIPE ALMEIDA RODRIGUES ANALISTA DO MP ATIVO TIMÓTEO - COMARCA; TIMOTEO-04 PJ 5.572,67 0,00 0,00 0,00 0,00 0,00 5.572,67 608,44 495,80 0,00 1.104,24 4.468,43 884,00 0,00 30/04/2017
1014 398400 FLAVIA ALVARES GUIMARAES OFICIAL DO MP ATIVO BELO HORIZONTE - COMARCA; CGMP-DIVIS DE APOIO FISC ORIENTACAO FUNCIONAL 6.334,59 633,46 0,00 0,00 0,00 0,00 6.968,05 766,49 783,93 0,00 1.550,42 5.417,63 884,00 4.110,15 30/04/2017
1015 398200 FLAVIA ALVES DE ASSUNCAO RODRIGUES ANALISTA DO MP ATIVO DIVINÓPOLIS - COMARCA; COORD REG DO MA DA BACIA DO ALTO SAO FRANC 9.163,30 916,33 0,00 0,00 0,00 0,00 10.079,63 1.108,76 1.545,49 0,00 2.654,25 7.425,38 2.118,90 0,00 30/04/2017
1016 318500 FLAVIA BEATRIZ NUNES CRUZ VIEIRA ANALISTA DO MP ATIVO BARBACENA - COMARCA; BARBACENA-PJ-SECRETARIA 12.225,81 2.445,16 0,00 0,00 0,00 0,00 14.670,97 1.613,81 2.617,08 0,00 4.230,89 10.440,08 2.169,84 53,79 30/04/2017
1017 496500 FLAVIA CARAM BORLIDO ANALISTA DO MP ATIVO BELO HORIZONTE - COMARCA; EXTINTA - DIVISAO DE SERVICOS GERAIS 8.874,34 887,43 0,00 0,00 0,00 0,00 9.761,77 1.073,79 1.519,83 0,00 2.593,62 7.168,15 884,00 0,00 30/04/2017
1018 534800 FLAVIA CONDE SOARES ANALISTA DO MP ATIVO BELO HORIZONTE - COMARCA; BH-13PJ JUÍZO DE TÓXICOS-ASSESSORIA JURIDICA 6.334,59 380,08 0,00 0,00 0,00 0,00 6.714,67 738,61 774,06 0,00 1.512,67 5.202,00 884,00 0,00 30/04/2017
1019 219500 FLAVIA CRISTINA ANCELMO OFICIAL DO MP ATIVO BELO HORIZONTE - COMARCA; CAO-DIREITOS HUMANOS E APOIO COMUNITARIO 7.806,95 2.342,09 0,00 0,00 0,00 0,00 10.149,04 1.116,39 1.614,62 0,00 2.731,01 7.418,03 884,00 0,00 30/04/2017
1020 329600 FLAVIA CRISTINA DE MATOS XAVIER ANALISTA DO MP ATIVO UBERABA - COMARCA; UBERABA-PJ-15PJ 12.225,81 3.667,74 0,00 0,00 0,00 0,00 15.893,55 1.748,29 2.916,31 0,00 4.664,60 11.228,95 884,00 0,00 30/04/2017
1021 207600 FLAVIA DE ANDRADE MANCINI ANALISTA DO MP ATIVO BELO HORIZONTE - COMARCA; ASSESSORIA JURIDICO-ADMINISTRATIVA 16.063,25 4.818,98 0,00 0,00 0,00 0,00 20.882,23 2.297,05 4.085,15 0,00 6.382,20 14.500,03 6.594,74 459,41 30/04/2017
1022 402801 FLAVIA MARIA DE RESENDE NASCIMENTO ANALISTA DO MP ATIVO SÃO JOÃO DEL REI - COMARCA; SAO JOAO DEL REI-PJ-04PJ 7.806,95 780,70 0,00 0,00 0,00 0,00 8.587,65 944,64 1.232,47 0,00 2.177,11 6.410,54 1.583,00 0,00 30/04/2017
1023 437500 FLAVIA MARIA TORRES MARCHETTI ANALISTA DO MP ATIVO BELO HORIZONTE - COMARCA; BH-18PJ VIOLENCIA DOMESTICA 8.594,48 859,45 0,00 0,00 0,00 0,00 9.453,93 1.039,93 1.340,22 0,00 2.380,15 7.073,78 2.282,00 0,00 30/04/2017
1024 386000 FLAVIA NEVES BRIGIDO ASSESSOR/OFICIAL ATIVO BELO HORIZONTE - COMARCA; PROMOT ESTADUAL DE DEF PATRI CULT E TUR DE MG 0,00 887,43 8.874,34 0,00 0,00 0,00 9.761,77 766,49 1.604,34 0,00 2.370,83 7.390,94 884,00 0,00 30/04/2017
1025 488600 FLAVIA PEREIRA COSTA ANALISTA DO MP ATIVO BELO HORIZONTE - COMARCA; CENTRAL DE APOIO TECNICO 7.806,95 780,70 0,00 0,00 0,00 0,00 8.587,65 944,64 1.232,47 0,00 2.177,11 6.410,54 1.583,00 0,00 30/04/2017
1026 365400 FLAVIA PEREIRA DA SILVA OFICIAL DO MP ATIVO BELO HORIZONTE - COMARCA; BH-15PJ M AMB PAT HIST CULT-GAB 115PJ 7.200,69 1.440,14 0,00 0,00 0,00 0,00 8.640,83 950,49 1.245,48 0,00 2.195,97 6.444,86 884,00 0,00 30/04/2017
1027 515400 FLAVIA RODRIGUES DE OLIVEIRA E SILVA PAIVA ANALISTA DO MP ATIVO CARATINGA - COMARCA; CARATINGA-PJ-05PJ 7.806,95 780,70 0,00 0,00 0,00 0,00 8.587,65 944,64 1.023,92 0,00 1.968,56 6.619,09 884,00 0,00 30/04/2017
1028 621600 FLAVIA SARMENTO RODRIGUES ANALISTA DO MP ATIVO BELO HORIZONTE - COMARCA; AUDITORIA INTERNA 6.134,81 0,00 0,00 0,00 0,00 0,00 6.134,81 674,83 632,13 0,00 1.306,96 4.827,85 1.583,00 0,00 30/04/2017
1029 535800 FLAVIA SILVA VALADAO OFICIAL DO MP ATIVO TRÊS CORACOES - COMARCA; TRES CORACOES-PJ-04PJ 3.735,01 224,10 0,00 0,00 0,00 0,00 3.959,11 435,50 145,30 0,00 580,80 3.378,31 1.583,00 0,00 30/04/2017
1030 515300 FLAVIA VIEIRA OLIVEIRA GOMES ANALISTA DO MP ATIVO BELO HORIZONTE - COMARCA; PROCURADORIA-GERAL ADJUNTA ADMINISTRATIVA 7.806,95 780,70 0,00 0,00 2.862,55 0,00 11.450,20 944,64 2.019,67 0,00 2.964,31 8.485,89 884,00 0,00 30/04/2017
1031 377500 FLAVIANA GONCALVES DE OLIVEIRA ANALISTA DO MP ATIVO IPATINGA - COMARCA; IPATINGA-PJ-02PJ 10.416,20 1.041,62 0,00 0,00 0,00 0,00 11.457,82 1.260,36 1.934,94 0,00 3.195,30 8.262,52 884,00 0,00 30/04/2017
1032 273100 FLAVIANE DOS SANTOS CASTRO OFICIAL DO MP ATIVO CAXAMBU - COMARCA; CAXAMBU-PJ-SECRETARIA 7.806,95 1.561,39 0,00 0,00 0,00 0,00 9.368,34 1.030,52 1.319,27 0,00 2.349,79 7.018,55 884,00 0,00 30/04/2017
1033 310600 FLAVIANE NAVES ALCANTARA ASSESSOR/OFICIAL ATIVO BELO HORIZONTE - COMARCA; COMB CRIMES PRAT POR AG POL MUN-SECRETARIA 0,00 1.774,87 8.874,34 0,00 0,00 0,00 10.649,21 1.064,07 1.766,55 0,00 2.830,62 7.818,59 1.583,00 0,00 30/04/2017
1034 378201 FLAVIANE RIBEIRO BORGES OFICIAL DO MP ATIVO SÃO GONÇALO DO SAPUCAÍ - COMARCA; SAO GONCALO DO SAPUCAI-PJ-02PJ 4.245,74 424,57 0,00 0,00 0,00 0,00 4.670,31 513,73 299,10 0,00 812,83 3.857,48 884,00 0,00 30/04/2017
1035 455800 FLAVIO ANTONIO RIBEIRO OFICIAL DO MP ATIVO BELO HORIZONTE - COMARCA; GRUPO ESP PROM PROC JUST DEF PROB ADM PAT PUB 4.598,03 459,80 0,00 0,00 0,00 0,00 5.057,83 556,36 376,70 0,00 933,06 4.124,77 884,00 0,00 30/04/2017
1036 458200 FLAVIO AUGUSTO BRAGA SOARES ANALISTA DO MP ATIVO BELO HORIZONTE - COMARCA; DIRETORIA DE PROJETOS DE EDIFICACOES 9.163,30 916,33 0,00 0,00 0,00 0,00 10.079,63 1.108,76 1.597,63 0,00 2.706,39 7.373,24 884,00 0,00 30/04/2017
1037 516500 FLAVIO AUGUSTO RODRIGUES CORREA ANALISTA DO MP ATIVO BELO HORIZONTE - COMARCA; COORD REG BACIAS RIO VELHAS E PARAOPEBA 7.806,95 780,70 0,00 0,00 0,00 0,00 8.587,65 944,64 1.232,47 0,00 2.177,11 6.410,54 884,00 0,00 30/04/2017
1038 84300 FLAVIO DE FARIA BELTRAO OFICIAL DO MP ATIVO BELO HORIZONTE - COMARCA; DIRETORIA DE ADMINISTRACAO FINANCEIRA 20.277,14 14.194,00 0,00 0,00 0,00 0,00 34.471,14 3.351,82 6.536,31 4.000,03 13.888,16 20.582,98 884,00 0,00 30/04/2017
1039 266600 FLAVIO GUIMARAES LANA ANALISTA DO MP ATIVO BELO HORIZONTE - COMARCA; CENTRAL DE APOIO TECN-SETOR DE MEIO AMBIENTE 10.416,20 2.083,24 0,00 0,00 0,00 0,00 12.499,44 1.374,94 2.189,88 0,00 3.564,82 8.934,62 884,00 0,00 30/04/2017
1040 552600 FLAVIO HENRIQUE EVARISTO GOMES ASSESSOR/ANALISTA ATIVO BELO HORIZONTE - COMARCA; DIRETORIA DE SUPORTE E MANUTENCAO 0,00 532,46 8.874,34 0,00 0,00 0,00 9.406,80 738,61 1.514,39 0,00 2.253,00 7.153,80 884,00 0,00 30/04/2017
1041 640000 FLAVIO HENRIQUE PEREIRA VELOSO OFICIAL DO MP ATIVO BELO HORIZONTE - COMARCA; DIVISÃO DE FISCALIZAÇÃO DAS RELAÇÕES DE CONSU 3.285,74 0,00 0,00 0,00 0,00 0,00 3.285,74 361,43 299,39 0,00 660,82 2.624,92 884,00 1.233,56 30/04/2017
1042 241500 FLAVIO HENRIQUE SILVA MARTINS LAGE OFICIAL DO MP ATIVO BELO HORIZONTE - COMARCA; CAO-CRIANCAS E ADOLESCENTES-SECRETARIA 8.061,11 2.418,33 0,00 0,00 0,00 0,00 10.479,44 1.152,74 1.695,48 0,00 2.848,22 7.631,22 884,00 0,00 30/04/2017
1043 86700 FLAVIO LUCAS TOMAZ AGENTE DO MP ATIVO BELO HORIZONTE - COMARCA; BH-06PJ JUIZO CIVEL-SECRETARIA 6.334,59 4.434,22 0,00 0,00 0,00 0,00 10.768,81 1.184,57 1.308,62 0,00 2.493,19 8.275,62 884,00 0,00 30/04/2017
1044 407200 FLAVIO LUCIO MONTEIRO PENA ANALISTA DO MP ATIVO BELO HORIZONTE - COMARCA; DIRETORIA DE IMPRENSA 8.594,48 859,45 0,00 0,00 0,00 0,00 9.453,93 1.039,93 1.444,49 0,00 2.484,42 6.969,51 884,00 0,00 30/04/2017
1045 451700 FLAVIO MAGALHAES PEREIRA ANALISTA DO MP ATIVO BELO HORIZONTE - COMARCA; BH-12PJ JUIZO CRIMINAL-GAB 098PJ 8.594,48 859,45 0,00 0,00 0,00 0,00 9.453,93 1.039,93 1.444,49 0,00 2.484,42 6.969,51 1.583,00 0,00 30/04/2017
1046 481500 FLAVIO NEVES GUELBER DE MACEDO OFICIAL DO MP ATIVO SÃO JOÃO NEPOMUCENO - COMARCA; SAO JOAO NEPOMUCENO-PJ-02PJ 5.061,97 506,20 0,00 0,00 1.856,06 0,00 7.424,23 612,50 1.003,87 0,00 1.616,37 5.807,86 884,00 0,00 30/04/2017
1047 547500 FRANCELINO MOREIRA DA SILVA ANALISTA DO MP ATIVO BELO HORIZONTE - COMARCA; BH-10PJ EXECUÇÃO PENAL-SECRETARIA 6.334,59 380,08 0,00 0,00 0,00 0,00 6.714,67 738,61 774,06 0,00 1.512,67 5.202,00 2.282,00 0,00 30/04/2017
1048 278100 FRANCIANE MARY DE SOUZA DOMENICI DE BRITO E CASTRO ANALISTA DO MP ATIVO BELO HORIZONTE - COMARCA; BH-12PJ JUIZO CRIMINAL-GAB 083PJ 13.228,78 2.645,76 0,00 0,00 0,00 0,00 15.874,54 1.746,20 2.963,80 0,00 4.710,00 11.164,54 884,00 0,00 30/04/2017
1049 646500 FRANCIELLE CAROLINE PEREIRA DOS SANTOS ASSESSOR ATIVO BELO HORIZONTE - COMARCA; CENT DE ATENDIMENTO E ORIENTACAO DE PESSOAL 0,00 0,00 2.625,65 0,00 875,22 0,00 3.500,87 386,06 220,94 0,00 607,00 2.893,87 1.583,00 0,00 30/04/2017
1050 192501 FRANCIELLE REIS DE OLIVEIRA ANALISTA DO MP ATIVO PASSOS - COMARCA; PASSOS-PJ-04PJ 12.623,91 2.524,78 0,00 0,00 0,00 0,00 15.148,69 1.666,36 2.681,87 0,00 4.348,23 10.800,46 5.731,58 444,36 30/04/2017
1051 645100 FRANCIELY CRISTINA COSTA TARQUINIO RIBEIRO ASSESSOR ATIVO BELO HORIZONTE - COMARCA; COORD DE GABINETE DO PGJ 0,00 0,00 2.625,65 0,00 0,00 0,00 2.625,65 386,06 113,74 0,00 499,80 2.125,85 884,00 0,00 30/04/2017
1052 523600 FRANCINE MOURA LIMIRIO OFICIAL DO MP ATIVO UBERABA - COMARCA; UBERABA-PJ-02PJ 5.396,93 539,69 0,00 0,00 0,00 0,00 5.936,62 653,03 583,63 0,00 1.236,66 4.699,96 884,00 0,00 30/04/2017
1053 467200 FRANCINI RENNO ANALISTA DO MP ATIVO CASSIA - COMARCA; CASSIA-PJ-02PJ 8.594,48 859,45 0,00 0,00 0,00 0,00 9.453,93 1.039,93 1.444,49 0,00 2.484,42 6.969,51 884,00 0,00 30/04/2017
1054 189300 FRANCIS BERNARDO DO NASCIMENTO OFICIAL DO MP ATIVO VARGINHA - COMARCA; VARGINHA-PJ-05PJ 11.105,40 3.331,62 0,00 0,00 0,00 0,00 14.437,02 1.588,07 2.559,83 0,00 4.147,90 10.289,12 2.859,48 52,94 30/04/2017
1055 207800 FRANCISCO CAMPOS PIRES DE MORAIS ANALISTA DO MP ATIVO BELO HORIZONTE - COMARCA; CENTRAL DE APOIO TECN-SETOR DE MEIO AMBIENTE 16.063,25 4.818,98 0,00 0,00 0,00 0,00 20.882,23 2.297,05 4.137,29 0,00 6.434,34 14.447,89 5.895,74 459,41 30/04/2017
1056 607700 FRANCISCO EDUARDO DE CASTRO ANALISTA DO MP ATIVO BELO HORIZONTE - COMARCA; DIR ANALISES TECNOLOGIA INTELIGENCIA 6.334,59 380,08 0,00 0,00 0,00 0,00 6.714,67 738,61 774,06 0,00 1.512,67 5.202,00 884,00 0,00 30/04/2017
1057 204600 FRANCISCO FERREIRA NOVAIS OFICIAL DO MP ATIVO IPATINGA - COMARCA; IPATINGA-PJ-08PJ 9.163,30 3.665,32 0,00 0,00 0,00 0,00 12.828,62 1.411,15 2.166,17 0,00 3.577,32 9.251,30 884,00 0,00 30/04/2017
1058 60500 FRANCISCO OLIMPIO TEIXEIRA AGENTE DO MP ATIVO BELO HORIZONTE - COMARCA; OUVIDORIA DO MPMG 5.226,73 4.704,05 0,00 0,00 0,00 1.279,67 11.210,45 1.279,67 2.173,41 0,00 3.453,08 7.757,37 884,00 1.702,60 30/04/2017
1059 411600 FRANCISCO PAIVA BRITO ANALISTA DO MP ATIVO BELO HORIZONTE - COMARCA; TRIBUNAL DO JURI-07 PJ-02 TRIBUNAL 8.594,48 859,45 0,00 0,00 0,00 0,00 9.453,93 1.039,93 1.444,49 0,00 2.484,42 6.969,51 884,00 0,00 30/04/2017
1060 515800 FRANCISCO RAFAEL DA SILVA NETO ANALISTA DO MP ATIVO SACRAMENTO - COMARCA; SACRAMENTO-PJ-01PJ 6.540,78 654,08 0,00 0,00 0,00 0,00 7.194,86 791,43 735,17 0,00 1.526,60 5.668,26 884,00 0,00 30/04/2017
1061 515200 FRANCISLEI ELIAS GONCALVES OFICIAL DO MP ATIVO PASSOS - COMARCA; PASSOS-PJ-07PJ 4.598,03 919,61 0,00 0,00 0,00 0,00 5.517,64 606,94 340,80 0,00 947,74 4.569,90 884,00 0,00 30/04/2017
1062 443600 FRANCISLEI MARTINS DE SOUSA ANALISTA DO MP ATIVO TIMÓTEO - COMARCA; TIMOTEO-PJ-01PJ 8.594,48 859,45 0,00 0,00 0,00 0,00 9.453,93 1.039,93 1.444,49 0,00 2.484,42 6.969,51 1.583,00 0,00 30/04/2017
1063 424500 FREDERICO AUGUSTO COBRA MULLER ANALISTA DO MP ATIVO POUSO ALEGRE - COMARCA; POUSO ALEGRE-PJ-02PJ 8.594,48 859,45 0,00 0,00 0,00 0,00 9.453,93 1.039,93 1.444,49 0,00 2.484,42 6.969,51 884,00 0,00 30/04/2017
1064 473100 FREDERICO AUGUSTO LIMA FELICIO ANALISTA DO MP ATIVO CONCEIÇÃO DO MATO DENTRO - COMARCA; CONCEICAO DO MATO DENTRO-PJ-UNPJ 8.594,48 859,45 0,00 0,00 0,00 0,00 9.453,93 1.039,93 1.444,49 0,00 2.484,42 6.969,51 884,00 0,00 30/04/2017
1065 124200 FREDERICO DE SOUZA ROCHA OFICIAL DO MP ATIVO ESPINOSA - COMARCA; ESPINOSA-PJ-SECRETARIA 12.225,81 9.780,64 0,00 0,00 0,00 0,00 22.006,45 2.420,71 4.412,44 0,00 6.833,15 15.173,30 5.684,65 403,45 30/04/2017
1066 177100 FREDERICO FERNANDES DE ANDRADE OFICIAL DO MP ATIVO BELO HORIZONTE - COMARCA; SUPERINTENDENCIA DE TECNOLOGIA DA INFORMACAO 9.461,59 2.838,48 0,00 0,00 0,00 0,00 12.300,07 1.353,01 2.141,08 0,00 3.494,09 8.805,98 884,00 0,00 30/04/2017
1067 456200 FREDERICO FERNANDES PASSOS ANALISTA DO MP ATIVO BELO HORIZONTE - COMARCA; DIRETORIA DE REDES E BANCOS DE DADOS 9.163,30 916,33 0,00 0,00 0,00 0,00 10.079,63 1.108,76 1.597,63 0,00 2.706,39 7.373,24 884,00 0,00 30/04/2017
1068 400900 FREDERICO LUCIANO BORGES REIS ANALISTA DO MP ATIVO BELO HORIZONTE - COMARCA; DIRETORIA DE SISTEMAS DE INFORMACAO 9.461,59 946,16 0,00 0,00 0,00 0,00 10.407,75 1.144,85 1.677,94 0,00 2.822,79 7.584,96 884,00 0,00 30/04/2017
1069 466200 FREDERICO LUIS FERNANDES ANALISTA DO MP ATIVO BELO HORIZONTE - COMARCA; BH-12PJ JUIZO CRIMINAL-GAB 106PJ 8.594,48 859,45 0,00 0,00 3.151,31 0,00 12.605,24 1.039,93 2.258,96 0,00 3.298,89 9.306,35 884,00 0,00 30/04/2017
1070 419700 FREDERICO MECKLER SANTOS ANALISTA DO MP ATIVO CLÁUDIO - COMARCA; CLAUDIO-PJ-UNPJ 9.163,30 916,33 0,00 0,00 0,00 0,00 10.079,63 1.108,76 1.545,49 0,00 2.654,25 7.425,38 884,00 0,00 30/04/2017
1071 257100 FULVIA HERONVILLE DA SILVA OFICIAL DO MP ATIVO BELO HORIZONTE - COMARCA; COORD DE CONTROLE DA CONSTITUCIONALIDADE 8.061,11 1.612,22 0,00 0,00 0,00 0,00 9.673,33 1.064,07 1.446,05 0,00 2.510,12 7.163,21 884,00 0,00 30/04/2017
1072 621700 GABRIEL ANDRADE SOUZA GROSSI RIBEIRO OFICIAL DO MP ATIVO BETIM - COMARCA; BETIM-PJ-SECRETARIA 3.617,27 0,00 0,00 0,00 0,00 0,00 3.617,27 397,90 128,11 0,00 526,01 3.091,26 884,00 0,00 30/04/2017
1073 613600 GABRIEL BASTOS MEIRELES ANALISTA DO MP ATIVO BELO HORIZONTE - COMARCA; BH-16PJ HABITACAO URBANISMO-GAB 117PJ 5.572,67 334,36 0,00 0,00 0,00 0,00 5.907,03 686,55 688,87 0,00 1.375,42 4.531,61 884,00 445,81 30/04/2017
1074 629500 GABRIEL TEIXEIRA DE OLIVEIRA ANALISTA DO MP ATIVO UBERLÂNDIA - COMARCA; UBERLANDIA-PJ-02PJ 6.134,81 0,00 0,00 0,00 0,00 0,00 6.134,81 674,83 632,13 0,00 1.306,96 4.827,85 884,00 0,00 30/04/2017
1075 617900 GABRIELA CIRILA ROQUE ANALISTA DO MP ATIVO ITABIRA - COMARCA; ITABIRA-PJ-04PJ 6.134,81 0,00 0,00 0,00 0,00 0,00 6.134,81 674,83 632,13 0,00 1.306,96 4.827,85 1.583,00 0,00 30/04/2017
1076 386800 GABRIELA SIMOES CHAVES ANALISTA DO MP ATIVO BELO HORIZONTE - COMARCA; EXTINTA - DIVISÃO DE COMPRAS 10.416,20 1.041,62 0,00 0,00 0,00 0,00 11.457,82 1.260,36 1.934,94 0,00 3.195,30 8.262,52 1.583,00 0,00 30/04/2017
1077 449700 GABRIELE COSTA FERREIRA ASSESSOR/OFICIAL ATIVO BELO HORIZONTE - COMARCA; DIRETORIA DE ORCAMENTO-DIOR/SPC 0,00 697,36 6.973,61 0,00 0,00 0,00 7.670,97 653,03 1.060,57 0,00 1.713,60 5.957,37 884,00 0,00 30/04/2017
1078 357600 GABRIELLA CRUZ EMRICH OFICIAL DO MP ATIVO OLIVEIRA - COMARCA; OLIVEIRA-PJ-SECRETARIA 5.226,73 1.045,35 0,00 0,00 0,00 0,00 6.272,08 689,93 665,73 0,00 1.355,66 4.916,42 884,00 0,00 30/04/2017
1079 470600 GABRIELLA SPIRANDELLI COIMBRA ANALISTA DO MP ATIVO UBERLÂNDIA - COMARCA; UBERLANDIA-PJ-19PJ 8.594,48 859,45 0,00 0,00 0,00 0,00 9.453,93 1.039,93 1.444,49 0,00 2.484,42 6.969,51 884,00 0,00 30/04/2017
1080 86000 GASPAR GOMES DE SOUSA AGENTE DO MP ATIVO BELO HORIZONTE - COMARCA; BH-15PJ M AMB 16PJ HAB URB-SECRETARIA 20.277,14 16.221,71 0,00 0,00 0,00 3.351,82